[[[{"header":{"parameterUnit":"kt","parameterCategory":2,"dx":1,"dy":1,"la1":29.285339999999998,"la2":30.599998999999997,"lo1":-89.70041500000002,"lo2":-87.6738589999976,"nx":112,"ny":82,"refTime":"2022-09-21T18:00:00:Z","depth":0,"parameterNumber":1,"parameterNumberName":"U-component_of_WINDS"},"data":[0.1335,0.112,0.0922,0.1578,0.1773,0.1731,0.1743,0.2006,0.1972,0.0965,0.078,0.0615,0.0083,0.014,0.033,0.0489,0.0638,0.0788,0.0,0.1068,0.1172,0.1238,0.0812,0.0,0.0,0.0,-0.1866,-0.3608,-0.3889,-0.4665,-0.6069,-0.5453,-0.5166,-0.5355,-0.4687,-0.4767,-0.5634,-0.4227,-0.4227,-0.5742,-0.3689,-0.2514,-0.21,-0.166,-0.0902,0.0,0.0,-0.0967,-0.2631,-0.4543,-0.6267,-0.7934,-0.9765,-1.0552,-1.0552,-1.0552,-1.0552,-1.0552,-1.0552,-1.0552,-1.0552,-1.0552,-1.0552,-1.0552,-1.0552,-1.0552,-1.0552,-1.0552,-1.0552,-1.0552,-1.0552,-1.0552,-1.0803,-1.1808,-1.2185,-1.244,-1.346,-1.3714,-1.346,-1.2312,-1.2185,-1.1808,-1.0674,-1.0552,-1.0552,-1.0552,-1.0552,-1.0552,-1.0552,-1.0552,-1.0552,-1.0552,-1.0552,-1.0599,-1.0575,-1.0944,-1.1326,-1.1695,-1.1821,-1.1966,-1.2163,-1.2321,-1.2216,-1.2315,-1.2223,-1.2216,-1.2315,-1.2216,-1.2321,-1.2177,-1.2269,-1.2315,0.1896,0.1683,0.1532,0.2162,0.215,0.1996,0.2009,0.1989,0.1712,0.0954,0.0651,0.0343,-0.0162,-0.0267,-0.0217,-0.0027,-0.0183,-0.0099,0.0,0.0507,0.0273,-0.0034,-0.0448,-0.1033,-0.1862,-0.2119,-0.3026,-0.485,-0.5109,-0.5854,-0.741,-0.674,-0.6493,-0.6919,-0.6214,-0.6281,-0.7153,-0.5742,-0.5742,-0.7261,-0.5203,-0.401,-0.3578,-0.2605,-0.1651,-0.0675,-0.0228,-0.1288,-0.3402,-0.47,-0.6554,-0.8599,-0.9985,-1.0552,-1.0552,-1.0552,-1.0552,-1.0552,-1.0552,-1.0552,-1.0552,-1.0552,-1.0552,-1.0552,-1.0552,-1.0552,-1.0552,-1.0552,-1.0552,-1.0552,-1.0552,-1.0552,-1.0803,-1.1937,-1.256,-1.3316,-1.4457,-1.5098,-1.5224,-1.4077,-1.3443,-1.2687,-1.1552,-1.0932,-1.0552,-1.0552,-1.0552,-1.0552,-1.0552,-1.0552,-1.0552,-1.0552,-1.0552,-1.0552,-1.0552,-1.0601,-1.0917,-1.1405,-1.1616,-1.1807,-1.2012,-1.2117,-1.2321,-1.2321,-1.2321,-1.2321,-1.2321,-1.2321,-1.2321,-1.2321,-1.2321,-1.2321,0.2227,0.2524,0.265,0.3309,0.2952,0.2486,0.2472,0.1581,0.0762,0.0763,0.0356,-0.017,-0.0673,-0.0775,-0.0792,-0.0792,-0.1366,0.0,0.0,-0.0154,-0.0798,-0.167,-0.2058,-0.2492,-0.3132,-0.2854,-0.3362,-0.5146,-0.502,-0.5704,-0.767,-0.7812,-0.8076,-0.8763,-0.8783,-0.8783,-0.8783,-0.7255,-0.7255,-0.8676,-0.585,-0.5095,-0.6281,-0.3578,-0.2281,-0.2176,-0.0788,-0.194,-0.4922,-0.5221,-0.7087,-1.0001,-1.0291,-1.0539,-1.0539,-1.0545,-1.0552,-1.0552,-1.0552,-1.0552,-1.0552,-1.0552,-1.0552,-1.0552,-1.0552,-1.0552,-1.0552,-1.0552,-1.0552,-1.0552,-1.0552,-1.0674,-1.0681,-1.0674,-1.1937,-1.3188,-1.3316,-1.4583,-1.5728,-1.5602,-1.4204,-1.3061,-1.3061,-1.168,-1.0552,-1.0552,-1.0552,-1.0552,-1.0552,-1.0552,-1.0552,-1.0552,-1.0552,-1.0552,-1.0552,-1.0552,-1.0542,-1.0832,-1.1379,-1.1702,-1.1722,-1.1999,-1.2157,-1.2321,-1.2321,-1.2321,-1.2321,-1.2321,-1.2321,-1.2321,-1.2321,-1.2321,0.3038,0.2619,0.2079,0.2668,0.2036,0.124,0.1265,0.0995,0.0664,0.0301,0.0103,0.0,0.0,0.0,-0.0934,-0.1395,0.0,-0.2062,-0.1271,-0.2032,-0.2579,-0.2343,-0.3276,-0.4356,-0.5437,-0.4729,-0.4756,-0.5999,-0.5479,-0.5956,-0.769,-0.7812,-0.8076,-0.8763,-0.8783,-0.8783,-0.8783,-0.8347,-0.8347,-0.8783,-0.7911,-0.7153,-0.6502,-0.5742,-0.4771,-0.3689,-0.3288,-0.4346,-0.6385,-0.6496,-0.7916,-0.9981,-1.006,-1.01,-1.012,-1.0344,-1.0552,-1.0552,-1.0552,-1.0552,-1.0552,-1.0552,-1.0552,-1.0552,-1.0552,-1.0552,-1.0552,-1.0552,-1.1431,-1.2305,-1.2305,-1.3197,-1.4475,-1.5738,-1.6377,-1.6994,-1.8241,-1.8874,-1.8886,-1.763,-1.598,-1.4457,-1.3188,-1.2687,-1.2305,-1.2305,-1.131,-1.0552,-1.0552,-1.0552,-1.0552,-1.0552,-1.0552,-1.0552,-1.0552,-1.0552,-1.0585,-1.0535,-1.0891,-1.1287,-1.1702,-1.1801,-1.1946,-1.2163,-1.2321,-1.2321,-1.2321,-1.2321,-1.2321,-1.2321,-1.2321,-1.2321,0.2918,0.2607,0.2115,0.2177,0.148,0.0786,0.0777,0.045,0.0036,-0.0264,0.0,0.0,0.0,0.0,0.0,0.0,-0.2661,-0.2839,-0.2006,-0.2827,-0.3821,-0.4649,-0.5586,-0.6493,-0.7393,-0.6611,-0.6429,-0.7249,-0.6469,-0.6548,-0.7696,-0.7833,-0.8208,-0.877,-0.8783,-0.8783,-0.8783,-0.8783,-0.8783,-0.8783,-0.8783,-0.8347,-0.7476,-0.6825,-0.6066,-0.5095,-0.4554,-0.5262,-0.6811,-0.6912,-0.8028,-0.9612,-0.9612,-0.9757,-0.9994,-1.0172,-1.0814,-1.1552,-1.1552,-1.2064,-1.2576,-1.2576,-1.2192,-1.1552,-1.1552,-1.1053,-1.0552,-1.0552,-1.168,-1.3061,-1.3061,-1.433,-1.5854,-1.6743,-1.7516,-1.84,-1.927,-2.0147,-2.0283,-1.927,-1.7754,-1.6241,-1.535,-1.4583,-1.3823,-1.3188,-1.2185,-1.1303,-1.0552,-1.0552,-1.0552,-1.0552,-1.0552,-1.0552,-1.0552,-1.0552,-1.0552,-1.0552,-1.0581,-1.0884,-1.1346,-1.1596,-1.1801,-1.1979,-1.2104,-1.2321,-1.2321,-1.2321,-1.2321,-1.2321,-1.2321,-1.2321,0.2333,0.2394,0.2208,0.1753,0.116,0.0619,0.0343,0.0,-0.1147,-0.133,0.0,-0.2392,-0.2827,0.0,0.0,-0.302,-0.3763,-0.3936,-0.284,-0.3553,-0.5121,-0.7675,-0.8243,-0.864,-0.9017,-0.8511,-0.8371,-0.8789,-0.7851,-0.7528,-0.8019,-0.8116,-0.8386,-0.877,-0.8783,-0.8783,-0.8783,-0.8783,-0.8783,-0.8783,-0.8783,-0.8783,-0.8669,-0.7368,-0.6717,-0.6609,-0.5311,-0.5527,-0.6732,-0.7048,-0.7947,-0.9118,-0.9118,-0.9428,-0.9882,-1.0065,-1.1369,-1.3003,-1.3172,-1.433,-1.5602,-1.5602,-1.4583,-1.3316,-1.3316,-1.2185,-1.0803,-1.106,-1.2192,-1.3316,-1.357,-1.4836,-1.6105,-1.6105,-1.7244,-1.84,-1.84,-1.9529,-2.0652,-2.0652,-1.9282,-1.8151,-1.8276,-1.7005,-1.535,-1.3823,-1.3443,-1.2815,-1.131,-1.0932,-1.0803,-1.0803,-1.0545,-1.0552,-1.0552,-1.0552,-1.0552,-1.0552,-1.0552,-1.0542,-1.0805,-1.1333,-1.1656,-1.1722,-1.1985,-1.2137,-1.2321,-1.2321,-1.2321,-1.2321,-1.2321,-1.2321,0.2141,0.1678,0.1078,0.0977,0.0539,-0.036,0.0,0.0,0.0,-0.4709,-0.5141,-0.5248,-0.5354,-0.5369,-0.5468,-0.5905,-0.6588,-0.6757,-0.5981,-0.7352,-0.8568,-0.9149,-0.9761,-1.004,-0.9776,-1.0196,-1.0468,-1.0584,-0.942,-0.9022,-0.9817,-0.8722,-0.8386,-0.877,-0.8783,-0.8783,-0.8783,-0.8783,-0.8783,-0.8783,-0.8783,-0.8783,-0.8783,-0.8455,-0.8347,-0.824,-0.8019,-0.8019,-0.8347,-0.8405,-0.868,-0.9118,-0.9118,-0.9184,-0.9451,-1.124,-1.2212,-1.2803,-1.4472,-1.5214,-1.5602,-1.5602,-1.535,-1.5098,-1.5098,-1.3823,-1.2815,-1.4213,-1.4845,-1.535,-1.6743,-1.8389,-1.9641,-1.9641,-1.99,-2.0147,-2.0147,-2.0406,-2.0652,-2.0652,-1.9282,-1.8525,-1.99,-1.8773,-1.7516,-1.713,-1.598,-1.4972,-1.4592,-1.3324,-1.256,-1.256,-1.1303,-1.0552,-1.0552,-1.0552,-1.0552,-1.0552,-1.0552,-1.0579,-1.0502,-1.0845,-1.1247,-1.1709,-1.1774,-1.1926,-1.2321,-1.2321,-1.2321,-1.2321,-1.2321,-1.2321,0.1429,0.1123,0.072,0.0457,0.0,0.0,0.0,-0.2736,-0.3662,-0.4919,-0.5506,-0.5963,-0.636,-0.6667,-0.698,-0.7255,-0.7863,-0.8637,-0.9342,-0.9941,-1.0503,-1.1106,-1.1262,-1.1505,-1.1736,-1.2103,-1.226,-1.198,-1.1267,-1.0934,-1.1335,-1.0838,-1.0617,-1.0789,-1.0797,-1.0471,-0.9725,-0.9725,-0.9412,-0.8783,-0.8783,-0.8783,-0.8783,-0.8783,-0.8783,-0.8783,-0.8783,-0.8783,-0.8783,-0.8783,-0.9188,-0.9867,-0.9867,-1.0073,-1.0378,-1.1396,-1.2682,-1.4,-1.5676,-1.7159,-1.8117,-1.8117,-1.8117,-1.7868,-1.7119,-1.6241,-1.5602,-1.5602,-1.6116,-1.7005,-1.7902,-1.927,-2.0652,-2.0652,-2.0652,-2.0652,-2.0652,-2.0652,-2.0652,-2.0652,-1.99,-1.9653,-2.0529,-1.99,-1.9022,-1.8151,-1.7391,-1.6492,-1.5602,-1.4836,-1.433,-1.433,-1.3578,-1.3078,-1.3078,-1.3078,-1.3078,-1.3078,-1.3078,-1.3078,-1.3078,-1.2355,-1.2162,-1.2505,-1.1992,-1.1794,-1.1946,-1.1946,-1.2018,-1.2321,-1.2321,-1.2321,0.0725,0.0663,0.0541,0.0097,-0.039,0.0,-0.1662,-0.2856,-0.4182,-0.538,-0.6263,-0.704,-0.7549,-0.8161,-0.8616,-0.8616,-0.9167,-1.0371,-1.269,-1.2521,-1.257,-1.3501,-1.3281,-1.332,-1.4137,-1.4055,-1.3759,-1.3362,-1.3154,-1.2997,-1.2975,-1.2819,-1.2807,-1.2807,-1.2807,-1.227,-1.1091,-1.0879,-1.0144,-0.9091,-0.8884,-0.8783,-0.8783,-0.8783,-0.8783,-0.8783,-0.8783,-0.8783,-0.8783,-0.8991,-0.9725,-1.0773,-1.0985,-1.1285,-1.1675,-1.2076,-1.345,-1.5536,-1.7063,-1.8914,-2.0652,-2.0652,-2.0652,-2.0406,-1.9022,-1.8525,-1.8264,-1.6492,-1.7005,-1.8151,-1.8525,-1.9529,-2.0652,-2.0652,-2.0652,-2.0652,-2.0652,-2.0652,-2.0652,-2.0652,-2.0652,-2.0652,-2.0652,-2.0652,-2.0147,-1.8773,-1.8525,-1.814,-1.6733,-1.6231,-1.598,-1.598,-1.5728,-1.5602,-1.5602,-1.5602,-1.5602,-1.5602,-1.5602,-1.5602,-1.5602,-1.4204,-1.3459,-1.3369,-1.2519,-1.189,-1.1722,-1.161,-1.1735,-1.2084,-1.2144,-1.2321,0.049,0.0274,0.0086,0.0,-0.039,0.0,-0.4752,-0.5961,-0.7144,-0.9797,-1.0844,-1.1221,-1.0711,-1.1149,-1.1604,-1.1604,-1.1636,-1.2817,-1.5906,-1.6311,-1.6342,-1.6437,-1.6421,-1.6388,-1.6547,-1.5686,-1.5166,-1.5076,-1.502,-1.4962,-1.467,-1.351,-1.2807,-1.2807,-1.2807,-1.2807,-1.2586,-1.1302,-1.0667,-1.0455,-0.9305,-0.8783,-0.8783,-0.8783,-0.8783,-0.8783,-0.8783,-0.8783,-0.8891,-1.0037,-1.0561,-1.0773,-1.206,-1.2615,-1.2923,-1.4729,-1.5886,-1.676,-1.8646,-1.9916,-2.0652,-2.0652,-2.0652,-2.0529,-2.0406,-2.027,-2.0024,-1.8264,-1.7902,-1.84,-1.99,-2.0529,-2.0652,-2.0652,-2.0652,-2.0652,-2.0652,-2.0652,-2.0652,-2.0652,-2.0652,-2.0652,-2.0652,-2.0652,-2.0529,-2.0406,-2.027,-2.027,-2.0011,-1.8773,-1.7766,-1.7766,-1.6492,-1.5602,-1.5602,-1.5602,-1.5602,-1.5602,-1.5602,-1.5602,-1.5602,-1.535,-1.4602,-1.3119,-1.3138,-1.27,-1.1722,-1.1208,-1.124,-1.1774,-1.2045,-1.2321,0.0197,-0.0138,-0.0437,-0.0454,0.0,0.0,-0.468,-0.6335,-0.8292,-1.0578,-1.1689,-1.2408,-1.3277,-1.3908,-1.4357,-1.4357,-1.4597,-1.5352,-1.6704,-1.6942,-1.6942,-1.6942,-1.6942,-1.6942,-1.6942,-1.6563,-1.6399,-1.6719,-1.6759,-1.6992,-1.7741,-1.6929,-1.6114,-1.5324,-1.5324,-1.4909,-1.4064,-1.3531,-1.2787,-1.1945,-1.1425,-1.1116,-1.1116,-1.1116,-1.0683,-0.9832,-0.9832,-0.9412,-0.8884,-1.1108,-1.2472,-1.3207,-1.3855,-1.4064,-1.4201,-1.5041,-1.5749,-1.6601,-1.8503,-1.9555,-2.0075,-2.0548,-2.0652,-2.0652,-2.0652,-2.0652,-2.0393,-1.9777,-1.9529,-1.9653,-2.0406,-2.0652,-2.0652,-2.0652,-2.0652,-2.0652,-2.0652,-2.0652,-2.0652,-2.0652,-2.0652,-2.0652,-2.0652,-2.0652,-2.0652,-2.0652,-2.0652,-2.0652,-2.0652,-2.0024,-1.9529,-1.9529,-1.8886,-1.8501,-1.8501,-1.8501,-1.8501,-1.8501,-1.8501,-1.8501,-1.8501,-1.7505,-1.6743,-1.598,-1.411,-1.3022,-1.2715,-1.2437,-1.1919,-1.1234,-1.1695,-1.1999,-0.0211,0.0,0.0,0.0,0.0,0.0,-0.5078,-0.7173,-0.9431,-1.1179,-1.2469,-1.3713,-1.5121,-1.5847,-1.6394,-1.6991,-1.7448,-1.7804,-1.7804,-1.7804,-1.7804,-1.7804,-1.7804,-1.7804,-1.7804,-1.7492,-1.747,-1.7897,-1.7794,-1.8168,-1.9185,-1.9216,-1.8902,-1.8196,-1.8196,-1.7471,-1.6139,-1.5714,-1.4782,-1.3437,-1.3017,-1.2807,-1.2807,-1.2807,-1.227,-1.1302,-1.0879,-1.0356,-1.0052,-1.2481,-1.4064,-1.5013,-1.5428,-1.5543,-1.5543,-1.5543,-1.5979,-1.6697,-1.8107,-1.9062,-1.9737,-2.0153,-2.0399,-2.0652,-2.0652,-2.0652,-2.0652,-2.0652,-2.0652,-2.0652,-2.0652,-2.0652,-2.0652,-2.0652,-2.0652,-2.0652,-2.0652,-2.0652,-2.0652,-2.0652,-2.0652,-2.0652,-2.0652,-2.0652,-2.0652,-2.0652,-2.0652,-2.0652,-2.0652,-2.0652,-2.0652,-2.0652,-2.0652,-2.0652,-2.0652,-2.0652,-2.0652,-2.0652,-2.0652,-2.0652,-2.0652,-1.9406,-1.8525,-1.8027,-1.5728,-1.4092,-1.3328,-1.3722,-1.313,-1.1529,-1.197,-1.2109,0.0,0.0,0.0,-0.3142,-0.3833,-0.4872,-0.7142,-0.9421,-1.1321,-1.2397,-1.4346,-1.5846,-1.592,-1.6426,-1.7537,-1.9554,-1.9894,-1.9913,-1.9913,-1.9913,-1.9913,-1.9913,-1.9913,-1.9913,-1.9913,-1.9058,-1.8442,-1.846,-1.8011,-1.767,-1.7718,-1.909,-2.0139,-2.0806,-2.0921,-2.0244,-1.8976,-1.7506,-1.618,-1.4909,-1.3541,-1.2807,-1.2807,-1.2807,-1.2807,-1.2701,-1.1302,-1.1417,-1.2807,-1.4273,-1.4909,-1.5117,-1.6485,-1.7012,-1.7012,-1.7012,-1.7373,-1.7851,-1.7876,-1.8724,-1.9659,-1.9685,-2.0062,-2.0652,-2.0652,-2.0652,-2.0652,-2.0652,-2.0652,-2.0652,-2.0652,-2.0652,-2.0652,-2.0652,-2.0652,-2.0652,-2.0652,-2.0652,-2.0652,-2.0652,-2.0652,-2.0652,-2.0652,-2.0652,-2.0652,-2.0652,-2.0652,-2.0652,-2.0652,-2.0652,-2.0652,-2.0652,-2.0652,-2.0652,-2.0652,-2.0652,-2.0652,-2.0652,-2.0652,-2.0652,-2.0652,-2.0529,-1.9777,-1.8151,-1.8015,-1.6367,-1.3078,-1.4728,-1.4686,-1.3352,-1.3376,-1.2815,-0.2255,-0.3,-0.3718,-0.4904,-0.698,-0.8993,-0.9778,-1.2219,-1.457,-1.5648,-1.6793,-1.7812,-1.8491,-1.9349,-2.0343,-2.1711,-2.1951,-2.1951,-2.1951,-2.1951,-2.1951,-2.1951,-2.1951,-2.1951,-2.1951,-2.1051,-2.0661,-2.1398,-2.0102,-1.9734,-2.0949,-2.0597,-2.0718,-2.1446,-2.1166,-2.0822,-2.0344,-1.9916,-1.8918,-1.7661,-1.7227,-1.6537,-1.5647,-1.5647,-1.5117,-1.4273,-1.374,-1.4863,-1.6819,-1.5508,-1.5543,-1.6485,-1.6909,-1.7114,-1.7114,-1.7114,-1.7244,-1.7452,-1.7722,-1.8096,-1.8548,-1.9413,-1.9789,-2.0023,-2.0412,-2.0652,-2.0652,-2.0652,-2.0652,-2.0652,-2.0652,-2.0652,-2.0652,-2.0652,-2.0652,-2.0652,-2.0652,-2.147,-2.2428,-2.3499,-2.3739,-2.3739,-2.3739,-2.2897,-2.2172,-2.2172,-2.1239,-2.0652,-2.0652,-2.0652,-2.0652,-2.0652,-2.0652,-2.0652,-2.0652,-2.0652,-2.0652,-2.0652,-2.0652,-2.0652,-2.0652,-2.0652,-2.027,-1.9777,-1.8649,-1.7516,-1.6367,-1.6994,-1.644,-1.4796,-1.4944,-1.4285,-0.3978,-0.493,-0.5853,-0.814,-1.0354,-1.2272,-1.337,-1.5365,-1.7233,-1.7897,-1.8552,-1.9363,-2.0327,-2.1545,-2.2586,-2.3246,-2.3339,-2.3268,-2.2958,-2.2958,-2.2958,-2.2958,-2.2958,-2.2958,-2.2958,-2.2364,-2.2219,-2.2887,-2.1805,-2.1535,-2.2711,-2.2215,-2.207,-2.2544,-2.2511,-2.2494,-2.242,-2.1933,-2.1035,-1.9762,-1.9762,-1.9262,-1.8486,-1.8486,-1.7966,-1.7112,-1.7112,-1.8141,-1.9663,-1.7823,-1.7648,-1.8486,-1.8007,-1.7803,-1.7715,-1.7319,-1.7114,-1.7166,-1.753,-1.7683,-1.8005,-1.9062,-1.9503,-1.9776,-2.036,-2.0652,-2.0762,-2.1239,-2.1483,-2.1483,-2.1483,-2.1483,-2.1361,-2.0775,-2.0652,-2.0762,-2.1361,-2.2293,-2.3364,-2.4931,-2.5287,-2.5287,-2.5287,-2.444,-2.3604,-2.2989,-2.2065,-2.1239,-2.0652,-2.0652,-2.0652,-2.0652,-2.0652,-2.0652,-2.0652,-2.0652,-2.0652,-2.0652,-2.0652,-2.0652,-2.0652,-2.0652,-2.0652,-2.0652,-1.9529,-1.9022,-1.9022,-1.9022,-1.814,-1.6503,-1.6678,-1.5769,-0.587,-0.7003,-0.8483,-1.2676,-1.3828,-1.4623,-1.7549,-1.8711,-1.928,-1.928,-1.9746,-2.0496,-2.1472,-2.3039,-2.4266,-2.4334,-2.4334,-2.4106,-2.329,-2.322,-2.322,-2.322,-2.322,-2.3149,-2.3171,-2.31,-2.31,-2.31,-2.2958,-2.2958,-2.3029,-2.3705,-2.4096,-2.3968,-2.4883,-2.5372,-2.5208,-2.3822,-2.242,-2.1117,-2.1117,-2.1019,-2.1019,-2.1019,-2.1117,-2.1215,-2.1117,-2.1117,-2.1117,-2.1019,-2.1019,-2.0822,-1.9563,-1.9076,-1.8875,-1.7613,-1.7114,-1.7217,-1.7217,-1.7569,-1.8105,-1.8693,-1.9281,-1.9842,-2.043,-2.0626,-2.1007,-2.2535,-2.3003,-2.3003,-2.3003,-2.3003,-2.2521,-2.0994,-2.0652,-2.1007,-2.2521,-2.2989,-2.3589,-2.5153,-2.5523,-2.5523,-2.5523,-2.5405,-2.4916,-2.3349,-2.3003,-2.2414,-2.1007,-2.0775,-2.0762,-2.0885,-2.0885,-2.0885,-2.0885,-2.0775,-2.0762,-2.0762,-2.0652,-2.0652,-2.0652,-2.0652,-2.0652,-2.0652,-2.0652,-2.0652,-2.0652,-2.0652,-1.9777,-1.8151,-1.8151,-1.7255,-0.7853,-0.9902,-1.1595,-1.4822,-1.658,-1.7903,-1.9491,-2.0934,-2.1931,-2.1931,-2.2071,-2.2892,-2.5054,-2.5823,-2.6393,-2.702,-2.7173,-2.7109,-2.6855,-2.6855,-2.6855,-2.6855,-2.6855,-2.6623,-2.6063,-2.526,-2.488,-2.4931,-2.3735,-2.3242,-2.3874,-2.4053,-2.4484,-2.5192,-2.6154,-2.692,-2.7695,-2.6488,-2.4679,-2.2482,-2.2482,-2.19,-2.1019,-2.1019,-2.2111,-2.4032,-2.2886,-2.2482,-2.2386,-2.1411,-2.1019,-2.0822,-1.9563,-1.9076,-1.8875,-1.7613,-1.7701,-1.8587,-1.8587,-1.9279,-2.0109,-1.9867,-2.0076,-2.0468,-2.0052,-2.0996,-2.2414,-2.2883,-2.3724,-2.444,-2.3244,-2.3003,-2.2521,-2.0994,-2.0652,-2.0762,-2.1117,-2.3963,-2.6914,-2.8435,-2.8779,-2.8779,-2.8779,-2.7726,-2.6914,-2.643,-2.4425,-2.3244,-2.3978,-2.3018,-2.2777,-2.3978,-2.4098,-2.4098,-2.4098,-2.3018,-2.2414,-2.2414,-2.1239,-2.0652,-2.0652,-2.0652,-2.0652,-2.0652,-2.0652,-2.0652,-2.0652,-2.0652,-2.0406,-2.0024,-2.0024,-1.9022,-0.9086,-1.2187,-1.5257,-1.8235,-1.9834,-2.1012,-2.2405,-2.3375,-2.4037,-2.4037,-2.4653,-2.5791,-2.7622,-2.7958,-2.8108,-2.8615,-2.8676,-2.8555,-2.8249,-2.8188,-2.8188,-2.8188,-2.8188,-2.8003,-2.7566,-2.6982,-2.6662,-2.6764,-2.5533,-2.4928,-2.5491,-2.501,-2.5073,-2.5586,-2.6609,-2.7316,-2.7852,-2.7663,-2.6814,-2.539,-2.4942,-2.4017,-2.2824,-2.2824,-2.363,-2.5038,-2.4204,-2.3881,-2.3786,-2.3114,-2.2824,-2.2614,-2.133,-2.0443,-1.9847,-1.9076,-1.8875,-1.9177,-1.9762,-2.0344,-2.0933,-2.0841,-2.1119,-2.1154,-2.0645,-2.1834,-2.3465,-2.3887,-2.5153,-2.6095,-2.5255,-2.5018,-2.4544,-2.3033,-2.2685,-2.2685,-2.2685,-2.5271,-2.7842,-2.8779,-2.9482,-2.9955,-2.9955,-2.9255,-2.8435,-2.7726,-2.6079,-2.5018,-2.5287,-2.4559,-2.4321,-2.5168,-2.5287,-2.5287,-2.5287,-2.444,-2.3724,-2.3003,-2.2172,-2.1361,-2.0652,-2.0652,-2.0652,-2.0652,-2.0652,-2.0652,-2.0652,-2.0652,-2.0652,-2.0652,-2.0652,-2.0147,-1.086,-1.4264,-1.8321,-2.1776,-2.3063,-2.3861,-2.5585,-2.5906,-2.5848,-2.5848,-2.7273,-2.8736,-2.9419,-2.9536,-2.9536,-2.9536,-2.9595,-2.9449,-2.8769,-2.8648,-2.8648,-2.8648,-2.8555,-2.8494,-2.8372,-2.8372,-2.8311,-2.8188,-2.7566,-2.7213,-2.7213,-2.64,-2.5956,-2.587,-2.7166,-2.7725,-2.7492,-2.8527,-2.8992,-2.8992,-2.7652,-2.6436,-2.5302,-2.5452,-2.5471,-2.5302,-2.5114,-2.5038,-2.5038,-2.5038,-2.5038,-2.4944,-2.3481,-2.2289,-2.1215,-2.1019,-2.0344,-1.9762,-2.0822,-2.1411,-2.1624,-2.1944,-2.2117,-2.2141,-2.1866,-2.3012,-2.4616,-2.5329,-2.6681,-2.7859,-2.7628,-2.7628,-2.7263,-2.5625,-2.5641,-2.5877,-2.5877,-2.6931,-2.7975,-2.7975,-2.9026,-2.9955,-2.9955,-2.9955,-2.9482,-2.809,-2.7744,-2.7164,-2.6095,-2.5759,-2.5641,-2.5877,-2.5877,-2.5877,-2.5877,-2.5759,-2.5034,-2.3589,-2.3124,-2.2293,-2.1007,-2.0762,-2.0652,-2.0652,-2.0652,-2.0652,-2.0652,-2.0652,-2.0652,-2.0652,-2.0652,-2.0652,-1.6392,-1.7171,-1.7679,-2.2946,-2.5164,-2.63,-2.749,-2.7728,-2.7701,-2.7701,-2.9068,-3.0343,-3.0456,-3.0456,-3.0456,-3.0456,-3.0929,-3.1228,-3.1089,-3.1089,-3.1089,-3.1089,-3.0567,-2.9971,-2.9242,-2.9182,-2.8856,-2.8249,-2.8065,-2.8003,-2.8003,-2.7817,-2.7834,-2.8025,-2.9887,-3.0584,-2.9898,-3.0856,-3.136,-3.1251,-2.9233,-2.7673,-2.6508,-2.7367,-2.7297,-2.6508,-2.5471,-2.5038,-2.5038,-2.5038,-2.5038,-2.4944,-2.3481,-2.2772,-2.2482,-2.1411,-2.1509,-2.2272,-2.2482,-2.3403,-2.4241,-2.314,-2.3135,-2.353,-2.3073,-2.4411,-2.6199,-2.694,-2.8321,-2.9255,-2.7957,-2.7628,-2.7263,-2.5625,-2.7263,-2.9141,-2.9141,-2.9369,-2.9482,-2.9482,-2.9728,-2.9955,-2.9955,-2.9955,-2.9842,-2.9596,-2.8435,-2.7975,-2.9026,-2.7975,-2.7744,-2.9008,-2.9141,-2.9141,-2.9141,-2.7975,-2.703,-2.6797,-2.4425,-2.2883,-2.2521,-2.1239,-2.0652,-2.0652,-2.0652,-2.0652,-2.0652,-2.0652,-2.0652,-2.0652,-2.0652,-2.0652,-1.7305,-1.8555,-1.9853,-2.3477,-2.5917,-2.755,-2.8054,-2.8494,-2.9325,-3.1262,-3.1664,-3.1633,-3.1257,-3.1473,-3.1739,-3.1739,-3.1972,-3.2179,-3.2179,-3.2179,-3.2179,-3.2179,-3.1919,-3.155,-3.1114,-3.076,-3.0425,-3.0028,-2.9245,-2.8796,-2.8796,-2.8372,-2.827,-2.838,-3.0563,-3.1526,-3.1087,-3.2728,-3.3629,-3.3575,-3.1871,-3.0843,-3.0286,-3.0748,-3.0386,-2.9316,-2.8173,-2.77,-2.7589,-2.6416,-2.5993,-2.59,-2.5262,-2.4112,-2.3061,-2.3713,-2.3523,-2.3061,-2.3786,-2.4508,-2.4925,-2.4299,-2.4269,-2.4349,-2.3769,-2.5156,-2.692,-2.6934,-2.8469,-2.9728,-2.9026,-2.8798,-2.8683,-2.7859,-2.8798,-2.9955,-2.9955,-2.9955,-2.9955,-2.9955,-2.9955,-2.9955,-2.9955,-2.9955,-2.9955,-2.9955,-2.9255,-2.9026,-2.9842,-2.9255,-2.9141,-2.9842,-2.9955,-2.9955,-2.9955,-2.9255,-2.8435,-2.7628,-2.6196,-2.4663,-2.2989,-2.3018,-2.267,-2.1822,-2.1822,-2.147,-2.0652,-2.0652,-2.0652,-2.0652,-2.0652,-2.0652,-1.84,-1.994,-2.184,-2.4081,-2.6206,-2.8155,-2.948,-2.9942,-3.088,-3.3897,-3.3529,-3.2555,-3.2291,-3.2473,-3.2686,-3.2804,-3.2853,-3.2884,-3.2884,-3.2884,-3.2884,-3.2884,-3.2736,-3.2636,-3.2636,-3.2179,-3.1897,-3.1897,-3.0649,-2.9856,-2.9856,-2.9155,-2.8615,-2.8433,-3.0932,-3.209,-3.1678,-3.4235,-3.5501,-3.5473,-3.4392,-3.3947,-3.4131,-3.4131,-3.3475,-3.233,-3.0977,-3.0371,-2.9966,-2.8195,-2.7381,-2.722,-2.722,-2.5986,-2.4359,-2.6468,-2.5708,-2.3922,-2.5339,-2.5491,-2.5133,-2.5397,-2.5302,-2.5,-2.4583,-2.5657,-2.7119,-2.701,-2.829,-2.9727,-2.9917,-2.9955,-2.9955,-2.9955,-2.9955,-2.9955,-2.9955,-2.9955,-2.9955,-2.9955,-2.9955,-2.9955,-2.9955,-2.9955,-2.9955,-2.9955,-2.9955,-2.9955,-2.9955,-2.9955,-2.9955,-2.9955,-2.9955,-2.9955,-2.9955,-2.9955,-2.9369,-2.8205,-2.7859,-2.6547,-2.4067,-2.5153,-2.5034,-2.3484,-2.3484,-2.2897,-2.1605,-2.1239,-2.1117,-2.1117,-2.0762,-2.0652,-2.3205,-2.2384,-2.1455,-2.5266,-2.6415,-2.8096,-3.3765,-3.3654,-3.2574,-3.3401,-3.3097,-3.2937,-3.3833,-3.3273,-3.2822,-3.3289,-3.3478,-3.3495,-3.3495,-3.3495,-3.3495,-3.3495,-3.3,-3.2636,-3.2636,-3.2586,-3.2586,-3.2586,-3.1867,-3.1443,-3.1443,-3.0848,-3.0086,-2.9301,-3.2455,-3.3349,-3.1678,-3.4964,-3.6577,-3.6577,-3.5549,-3.5549,-3.6476,-3.6476,-3.5797,-3.457,-3.2492,-3.0977,-3.0138,-2.988,-2.9254,-2.8392,-2.8392,-2.8303,-2.8102,-2.8303,-2.7583,-2.6672,-2.7854,-2.6916,-2.5208,-2.6344,-2.59,-2.519,-2.581,-2.6211,-2.669,-2.8177,-2.8688,-2.9025,-2.9765,-2.9955,-2.9955,-2.9955,-2.9955,-2.9955,-2.9955,-2.9955,-2.9955,-2.9955,-2.9955,-2.9955,-2.9955,-2.9955,-2.9955,-2.9955,-2.9955,-2.9955,-2.9955,-2.9955,-2.9955,-2.9955,-2.9955,-2.9955,-2.9955,-2.9955,-2.9842,-2.9728,-2.8435,-2.7495,-2.7147,-2.7263,-2.6681,-2.505,-2.505,-2.4916,-2.4813,-2.3364,-2.2762,-2.2642,-2.1239,-2.0652,-2.0718,-2.1144,-2.1514,-2.3223,-2.5205,-2.7621,-3.0829,-3.2913,-3.4614,-3.6273,-3.4933,-3.3483,-3.3537,-3.4206,-3.4558,-3.3883,-3.4546,-3.5041,-3.4739,-3.4696,-3.4567,-3.4247,-3.3976,-3.3792,-3.3792,-3.348,-3.3242,-3.3242,-3.2605,-3.2281,-3.2281,-3.2024,-3.1709,-3.1383,-3.3723,-3.463,-3.3916,-3.6401,-3.765,-3.765,-3.7262,-3.7262,-3.765,-3.765,-3.7378,-3.6932,-3.6013,-3.5056,-3.4,-3.2012,-3.0974,-3.0511,-2.9867,-2.919,-2.8659,-2.9344,-2.8903,-2.7944,-2.8414,-2.7965,-2.717,-2.6875,-2.6528,-2.6052,-2.5686,-2.5874,-2.65,-2.7658,-2.8341,-2.893,-2.9746,-2.9955,-2.9955,-2.9955,-2.9955,-2.9955,-2.9955,-2.9955,-2.9955,-2.9955,-2.9955,-2.9955,-2.9955,-2.9955,-2.9955,-2.9955,-2.9955,-2.9955,-2.9955,-2.9955,-2.9955,-2.9955,-2.9955,-2.9955,-2.9955,-2.9955,-2.9955,-2.9955,-2.9369,-2.9026,-2.9026,-2.9026,-2.8321,-2.6681,-2.6681,-2.6213,-2.5287,-2.4678,-2.4321,-2.4321,-2.3739,-2.2912,-1.9405,-2.0343,-2.1418,-2.1997,-2.401,-2.6402,-2.8638,-3.1539,-3.4481,-3.698,-3.5736,-3.4133,-3.393,-3.4786,-3.5412,-3.498,-3.6001,-3.6876,-3.6973,-3.7001,-3.6838,-3.6463,-3.642,-3.6368,-3.6183,-3.5366,-3.4756,-3.4558,-3.356,-3.2951,-3.2951,-3.2785,-3.2636,-3.2636,-3.4664,-3.5807,-3.5807,-3.7935,-3.8906,-3.8632,-3.8632,-3.8769,-3.9042,-3.9042,-3.9042,-3.9042,-3.9042,-3.8435,-3.7321,-3.4777,-3.3392,-3.2824,-3.2086,-3.1251,-3.0658,-3.142,-3.0852,-2.9583,-2.9931,-2.9431,-2.8481,-2.8012,-2.7381,-2.6692,-2.5826,-2.5973,-2.6516,-2.6981,-2.7924,-2.9088,-2.9496,-2.9784,-2.9955,-2.9955,-3.0294,-3.0612,-3.0612,-3.0948,-3.1152,-3.1152,-3.1152,-3.1152,-3.1152,-3.1152,-3.1152,-3.1152,-3.1152,-3.104,-3.0612,-3.0612,-3.0407,-2.9955,-2.9955,-2.9955,-2.9955,-2.9955,-2.9955,-2.9955,-2.9955,-2.9955,-2.9955,-2.9955,-2.9369,-2.8321,-2.8321,-2.7744,-2.6681,-2.6213,-2.5995,-2.5978,-2.5523,-2.4694,-2.1078,-2.0901,-2.1006,-2.2558,-2.2951,-2.4213,-2.8867,-3.0251,-3.1349,-3.4052,-3.4608,-3.4866,-3.5779,-3.4883,-3.47,-3.6755,-3.7848,-3.8999,-4.0564,-4.0772,-4.0772,-4.0772,-4.0772,-4.0526,-3.9872,-3.8477,-3.742,-3.6739,-3.4799,-3.3621,-3.3621,-3.3,-3.2636,-3.2636,-3.5298,-3.6698,-3.6698,-3.9434,-4.0362,-3.9421,-3.9421,-3.9946,-4.0834,-4.0834,-4.0834,-4.0834,-4.0834,-4.0267,-3.9355,-3.8416,-3.6904,-3.5168,-3.5118,-3.5091,-3.5118,-3.5091,-3.3709,-3.2028,-3.3224,-3.136,-2.8748,-2.9954,-2.8704,-2.6855,-2.6784,-2.6784,-2.671,-2.6399,-2.7749,-2.9231,-2.8854,-2.9347,-2.9955,-2.9955,-3.106,-3.2059,-3.2059,-3.3221,-3.4169,-3.4169,-3.4169,-3.4169,-3.4169,-3.4169,-3.4169,-3.4169,-3.4169,-3.3632,-3.2259,-3.2059,-3.1505,-3.0068,-2.9955,-2.9955,-2.9955,-2.9955,-2.9955,-2.9955,-2.9955,-2.9955,-2.9955,-2.9955,-2.9955,-2.9955,-2.9955,-2.9842,-2.9842,-2.8321,-2.7628,-2.7512,-2.5978,-2.5287,-1.9851,-2.0349,-2.0995,-2.2018,-2.2732,-2.4389,-2.8901,-3.003,-3.0339,-3.1132,-3.2902,-3.4329,-3.437,-3.5702,-3.6631,-3.614,-3.7939,-3.9495,-3.9737,-4.0682,-4.1196,-4.0846,-4.0806,-4.0725,-4.0519,-4.0073,-3.9181,-3.7521,-3.6812,-3.5808,-3.4357,-3.5021,-3.5446,-3.5446,-3.7646,-3.8894,-3.8894,-4.0143,-4.0678,-4.0425,-4.0958,-4.1081,-4.0803,-4.0803,-4.0803,-4.0803,-4.0803,-4.0678,-4.0362,-4.0075,-3.8864,-3.7048,-3.5701,-3.5195,-3.5195,-3.5195,-3.4782,-3.413,-3.3786,-3.2899,-3.1861,-3.0705,-2.9867,-2.8881,-2.7311,-2.7402,-2.7954,-2.7558,-2.8388,-2.9578,-3.0433,-3.1162,-3.1995,-3.2728,-3.32,-3.3524,-3.3524,-3.3847,-3.4169,-3.4169,-3.4169,-3.4169,-3.4169,-3.4169,-3.4169,-3.4169,-3.4169,-3.4062,-3.3632,-3.2676,-3.1948,-3.1505,-3.05,-2.9955,-2.9955,-2.9955,-2.9955,-2.9955,-3.1798,-3.2458,-3.1394,-3.1394,-3.0948,-2.9955,-2.9955,-2.9955,-2.9955,-2.9369,-2.9141,-2.9141,-2.8665,-2.7859,-1.9123,-2.0164,-2.1264,-2.1939,-2.1939,-2.2829,-2.6839,-2.7819,-2.81,-2.8614,-3.072,-3.2538,-3.2973,-3.4997,-3.6482,-3.6021,-3.7857,-3.9878,-4.1439,-4.2419,-4.303,-4.3342,-4.3294,-4.306,-4.2825,-4.2337,-4.1331,-3.9788,-3.9208,-3.82,-3.6637,-3.7423,-3.7829,-3.7548,-3.9409,-4.0345,-4.0345,-4.1312,-4.1978,-4.2422,-4.2471,-4.2389,-4.2088,-4.1834,-4.1779,-4.1779,-4.1779,-4.1568,-4.1234,-4.1234,-4.0427,-3.9028,-3.7802,-3.7092,-3.6759,-3.6448,-3.6104,-3.5652,-3.5041,-3.4261,-3.3411,-3.2052,-3.0961,-3.0041,-2.8616,-2.8637,-2.9124,-2.8441,-2.9234,-3.0546,-3.1844,-3.2441,-3.2893,-3.393,-3.4595,-3.5019,-3.5019,-3.544,-3.5836,-3.5836,-3.5836,-3.5836,-3.5836,-3.5836,-3.5836,-3.5836,-3.5836,-3.565,-3.5102,-3.4276,-3.3524,-3.2895,-3.1596,-3.0744,-3.0744,-3.0744,-3.0948,-3.1465,-3.32,-3.3847,-3.2895,-3.2895,-3.2259,-3.0724,-3.0744,-3.05,-2.9955,-2.9955,-2.9955,-2.9955,-2.9955,-2.9369,-1.8818,-2.0135,-2.1502,-2.21,-2.0934,-2.0403,-2.3442,-2.4422,-2.5057,-2.6408,-2.8042,-2.9695,-3.1249,-3.2908,-3.4614,-3.6369,-3.7603,-3.9984,-4.4677,-4.5037,-4.5446,-4.7248,-4.7131,-4.6768,-4.6265,-4.5031,-4.3919,-4.3139,-4.1822,-4.0747,-3.9995,-4.0007,-3.9757,-3.9207,-4.0659,-4.1503,-4.1503,-4.2784,-4.3945,-4.5075,-4.3996,-4.3718,-4.4115,-4.3698,-4.3444,-4.3389,-4.3444,-4.2961,-4.2126,-4.2126,-4.1656,-4.0865,-4.0865,-4.0331,-3.9488,-3.8701,-3.7721,-3.6871,-3.6724,-3.5501,-3.3891,-3.3812,-3.2383,-3.062,-3.0449,-3.0472,-3.0277,-2.9102,-3.0239,-3.2192,-3.3238,-3.3197,-3.3174,-3.4244,-3.5582,-3.6585,-3.6482,-3.7631,-3.8585,-3.8485,-3.8485,-3.8485,-3.8485,-3.8485,-3.8485,-3.8485,-3.8485,-3.7958,-3.6688,-3.6378,-3.5859,-3.4489,-3.3112,-3.2259,-3.2259,-3.2259,-3.2895,-3.4382,-3.4467,-3.4467,-3.4382,-3.4382,-3.374,-3.2259,-3.2169,-3.1394,-3.0068,-2.9955,-2.9955,-2.9955,-2.9955,-2.9955,-1.8259,-1.875,-1.95,-2.0854,-2.221,-2.3452,-2.4234,-2.4548,-2.4416,-2.3481,-2.4728,-2.6079,-2.6377,-2.9609,-3.3513,-3.7414,-3.7288,-3.7916,-4.1476,-4.1891,-4.2892,-4.5785,-4.6064,-4.6449,-4.762,-4.7401,-4.6478,-4.4753,-4.3988,-4.2886,-4.1133,-4.1802,-4.2183,-4.2006,-4.3439,-4.4177,-4.4177,-4.4031,-4.4348,-4.5075,-4.483,-4.4495,-4.4165,-4.4495,-4.4397,-4.398,-4.4446,-4.4265,-4.3623,-4.3623,-4.2853,-4.1716,-4.1716,-4.1234,-4.0425,-3.9518,-3.8671,-3.7793,-3.7017,-3.6402,-3.5879,-3.5118,-3.4471,-3.3709,-3.2003,-3.2135,-3.2465,-3.0449,-3.2032,-3.4566,-3.568,-3.5886,-3.6221,-3.721,-3.851,-3.923,-3.816,-3.9057,-3.9647,-3.8685,-3.8485,-3.8485,-3.8485,-3.8485,-3.8485,-3.8485,-3.8485,-3.8385,-3.8059,-3.7019,-3.6171,-3.5836,-3.4595,-3.374,-3.374,-3.374,-3.4786,-3.7326,-3.7428,-3.7019,-3.5859,-3.5859,-3.523,-3.374,-3.2697,-3.1928,-3.1596,-3.05,-2.9955,-2.9955,-2.9955,-2.9955,-1.777,-1.8645,-1.9507,-1.9378,-2.0617,-2.1789,-2.1789,-2.2007,-2.1927,-2.0996,-2.1679,-2.2863,-2.4277,-2.6078,-2.8949,-3.3692,-3.505,-3.6656,-3.9815,-4.1426,-4.2906,-4.4765,-4.6072,-4.6894,-4.7127,-4.7756,-4.7756,-4.6597,-4.6316,-4.5568,-4.4162,-4.4437,-4.4494,-4.4245,-4.4808,-4.5075,-4.5075,-4.5198,-4.554,-4.6013,-4.5381,-4.5075,-4.5029,-4.5075,-4.489,-4.4606,-4.4937,-4.489,-4.4558,-4.4558,-4.4132,-4.3413,-4.3126,-4.2487,-4.1738,-4.0926,-3.9881,-3.8671,-3.7764,-3.719,-3.6651,-3.6104,-3.5577,-3.4937,-3.3734,-3.3814,-3.4078,-3.2905,-3.3788,-3.5436,-3.6484,-3.727,-3.8025,-3.9084,-4.0324,-4.1014,-4.0346,-4.0729,-4.085,-3.9647,-3.9378,-3.9378,-3.9378,-3.9378,-3.9524,-4.0057,-4.0154,-3.9986,-3.9451,-3.8735,-3.8011,-3.7428,-3.6067,-3.523,-3.523,-3.523,-3.5859,-3.7428,-3.8083,-3.816,-3.7326,-3.7326,-3.6688,-3.5208,-3.4382,-3.374,-3.3004,-3.1596,-3.0948,-3.0948,-3.0294,-2.9955,-1.7396,-1.8853,-1.9898,-1.8139,-1.8139,-1.8568,-1.8568,-1.8893,-1.916,-1.916,-1.9364,-2.04,-2.3027,-2.3033,-2.3981,-2.7926,-3.1815,-3.5514,-3.8812,-4.1606,-4.3535,-4.4151,-4.6508,-4.7609,-4.6553,-4.7609,-4.8383,-4.8383,-4.8315,-4.8049,-4.7468,-4.7089,-4.6631,-4.607,-4.5767,-4.5583,-4.5583,-4.6441,-4.699,-4.7132,-4.5984,-4.5688,-4.6054,-4.5601,-4.5336,-4.5246,-4.5381,-4.5302,-4.5246,-4.5246,-4.5201,-4.5029,-4.451,-4.388,-4.3221,-4.2406,-4.1201,-3.9885,-3.9012,-3.8087,-3.735,-3.7089,-3.6476,-3.5749,-3.5473,-3.5424,-3.5501,-3.5652,-3.5652,-3.587,-3.6719,-3.791,-3.9207,-4.0174,-4.1415,-4.2477,-4.2175,-4.2385,-4.2109,-4.0971,-4.0711,-4.0711,-4.0711,-4.0711,-4.104,-4.2017,-4.2175,-4.1832,-4.0876,-4.0519,-4.0037,-3.8884,-3.7529,-3.6688,-3.6688,-3.6688,-3.6688,-3.6688,-3.7857,-3.8485,-3.8485,-3.8485,-3.7958,-3.6688,-3.6482,-3.5732,-3.4595,-3.3112,-3.2259,-3.2059,-3.0836,-3.0181,-1.7326,-1.7727,-1.8085,-1.7793,-1.7918,-1.8156,-1.8156,-1.8458,-1.8746,-1.8746,-1.905,-1.9466,-1.9908,-2.2301,-2.3945,-2.3282,-2.8392,-3.3681,-3.7023,-3.921,-4.1496,-4.4262,-4.6253,-4.7817,-4.8923,-4.9107,-4.9189,-4.9189,-4.88,-4.8522,-4.8399,-4.8133,-4.7941,-4.7845,-4.7785,-4.7754,-4.7754,-4.7911,-4.7827,-4.7515,-4.7307,-4.6807,-4.6096,-4.653,-4.6451,-4.5971,-4.6491,-4.6451,-4.5894,-4.5894,-4.5636,-4.5075,-4.4983,-4.489,-4.462,-4.3327,-4.2677,-4.2252,-4.0865,-4.0362,-3.9946,-3.8563,-3.8366,-3.8485,-3.6988,-3.6503,-3.6651,-3.7579,-3.7793,-3.785,-3.8023,-3.8992,-4.0095,-4.0179,-4.2066,-4.3526,-4.2385,-4.3049,-4.3436,-4.2202,-4.1924,-4.1924,-4.1924,-4.1924,-4.2017,-4.2202,-4.2175,-4.2109,-4.1924,-4.104,-4.0327,-4.0134,-3.8958,-3.816,-3.816,-3.816,-3.816,-3.816,-3.8385,-3.8485,-3.8485,-3.8485,-3.8385,-3.816,-3.7019,-3.6275,-3.6067,-3.4595,-3.3221,-3.2059,-3.1818,-3.106,-1.705,-1.7262,-1.7517,-1.7646,-1.7765,-1.79,-1.8064,-1.8227,-1.8396,-1.851,-1.8753,-1.8973,-1.9135,-2.0497,-2.1702,-2.1913,-2.5335,-2.9165,-3.2635,-3.7736,-4.1702,-4.3361,-4.6477,-4.8446,-4.834,-4.9007,-4.9451,-4.9451,-4.9205,-4.9017,-4.9017,-4.8625,-4.8435,-4.8435,-4.8288,-4.8331,-4.8528,-4.8473,-4.8288,-4.7924,-4.7924,-4.7666,-4.7235,-4.7309,-4.7205,-4.6917,-4.7023,-4.6872,-4.6605,-4.6605,-4.6411,-4.6096,-4.5766,-4.5601,-4.5514,-4.449,-4.3608,-4.2864,-4.2171,-4.1473,-4.0678,-3.9911,-3.9584,-3.9288,-3.8446,-3.8238,-3.8337,-3.8779,-3.8915,-3.8808,-3.8384,-3.9553,-4.0915,-4.126,-4.2784,-4.413,-4.4181,-4.4698,-4.4726,-4.3436,-4.3257,-4.3257,-4.3257,-4.3257,-4.3409,-4.4118,-4.4206,-4.3942,-4.3347,-4.2714,-4.1911,-4.0519,-3.9842,-3.9279,-3.8585,-3.9694,-4.0538,-4.0538,-4.0538,-4.0538,-4.0538,-3.9914,-3.9549,-3.9549,-3.8135,-3.7553,-3.7529,-3.6067,-3.4997,-3.4382,-3.3632,-3.2458,-1.7444,0.0,-1.8111,-1.8628,-1.8306,-1.8005,0.0,-1.8139,-1.8083,-1.8416,-1.8561,-1.8694,-1.8952,-1.911,-1.9645,-2.1042,-2.3059,-2.5536,-2.8661,-3.5267,-4.0317,-4.1718,-4.6145,-4.8611,-4.74,-4.8707,-4.959,-4.959,-4.95,-4.9402,-4.9415,-4.9051,-4.8845,-4.8845,-4.8633,-4.8684,-4.8969,-4.8867,-4.8656,-4.8347,-4.8347,-4.8305,-4.8187,-4.7894,-4.7739,-4.7743,-4.7346,-4.7241,-4.7312,-4.7205,-4.7169,-4.7133,-4.6651,-4.638,-4.6213,-4.5558,-4.4633,-4.3659,-4.3327,-4.2398,-4.1324,-4.1387,-4.0803,-4.0044,-3.9816,-3.975,-3.975,-3.975,-3.975,-3.9619,-3.9042,-4.0307,-4.1877,-4.2667,-4.3774,-4.5074,-4.5988,-4.6252,-4.5919,-4.4726,-4.4552,-4.4552,-4.4552,-4.4552,-4.4813,-4.5696,-4.5864,-4.5527,-4.4639,-4.429,-4.3374,-4.1538,-4.1066,-4.0372,-3.9426,-4.1082,-4.2175,-4.2175,-4.2175,-4.2175,-4.2175,-4.1297,-4.0876,-4.0876,-3.9647,-3.8983,-3.8983,-3.7529,-3.6688,-3.6378,-3.5208,-3.3955,0.0,-1.9998,-2.0307,-2.1534,-2.0212,-1.8668,-1.8907,-1.8318,0.0,-1.8347,-1.8483,-1.8564,-1.8801,-1.8988,-1.9095,-1.923,-2.2103,-2.5007,-2.6931,-3.0456,-3.4533,-3.93,-4.4453,-4.7552,-4.7435,-4.8816,-4.9759,-4.9759,-4.9644,-4.9536,-4.9536,-4.9516,-4.9506,-4.9506,-4.9495,-4.9506,-4.9526,-4.9516,-4.9238,-4.8754,-4.8754,-4.8559,-4.8215,-4.8187,-4.8159,-4.8159,-4.7775,-4.777,-4.8101,-4.7743,-4.7581,-4.7581,-4.7512,-4.7311,-4.6872,-4.6254,-4.5936,-4.5645,-4.4427,-4.3485,-4.2875,-4.3105,-4.2568,-4.1656,-4.0927,-4.074,-4.074,-4.074,-4.074,-4.0678,-4.0615,-4.1636,-4.2998,-4.4392,-4.5683,-4.6791,-4.7217,-4.733,-4.7009,-4.5948,-4.578,-4.578,-4.578,-4.578,-4.578,-4.5864,-4.5864,-4.5864,-4.578,-4.4813,-4.4026,-4.3849,-4.2778,-4.2017,-4.1898,-4.2083,-4.2175,-4.2175,-4.2175,-4.2175,-4.2175,-4.2109,-4.2109,-4.2109,-4.085,-4.0327,-4.0352,-3.8958,-3.7655,-3.6378,-3.6275,-3.5418,-2.204,-2.2492,-2.2615,-2.3126,-2.1546,-1.9887,-2.0003,-1.8801,-1.7784,-1.8155,-1.8347,-1.8548,-1.8822,-1.8911,-1.896,-1.9019,-2.186,-2.431,-2.5093,-2.979,-3.4736,-3.8894,-4.4932,-4.875,-4.875,-4.9293,-4.9674,-4.977,-4.9653,-4.9621,-4.9687,-4.959,-4.9652,-4.9784,-4.971,-4.9687,-4.9687,-4.9628,-4.9458,-4.9264,-4.9191,-4.9068,-4.8902,-4.8593,-4.8423,-4.8435,-4.8122,-4.8072,0.0,-4.8043,-4.7984,-4.7984,-4.7984,-4.7894,-4.7739,-4.7505,-4.6954,-4.6357,-4.585,-4.4811,-4.3675,-4.3775,-4.3585,-4.3093,-4.192,-4.2454,-4.3261,-4.2365,-4.2113,-4.1972,-4.1019,-4.155,-4.2491,-4.3357,-4.4622,-4.5917,-4.684,-4.7762,-4.8084,-4.7009,-4.6878,-4.6634,-4.6032,-4.5864,-4.5864,-4.5864,-4.5864,-4.5864,-4.5864,-4.5527,-4.4928,-4.4202,-4.3643,-4.3704,-4.4381,-4.4496,-4.4496,-4.4496,-4.4496,-4.4496,-4.4496,-4.3793,-4.3347,-4.3347,-4.2136,-4.1135,-4.0423,-3.9965,-3.9057,-3.7631,-3.7631,-3.6917,-2.4311,-2.4801,-2.4964,-2.534,-2.3438,-2.145,-2.1213,-1.9543,-1.8038,-1.817,-1.8279,-1.8466,-1.8807,-1.8852,-1.8896,-1.8974,-2.174,-2.4129,-2.4796,-2.9668,-3.4667,-3.8844,-4.3488,-4.6997,-4.8616,-4.9262,-4.9619,-4.9687,-4.9621,-4.9615,-4.9767,-4.9667,-4.9683,-4.9832,-4.9773,-4.9767,-4.9767,-4.9726,-4.9673,-4.9644,-4.9564,-4.9453,-4.937,-4.8998,-4.8838,-4.8767,-4.846,-4.8394,-4.8497,-4.8394,-4.8305,-4.8305,-4.8305,-4.8288,-4.8215,-4.8215,-4.7754,-4.7093,-4.6775,-4.5891,-4.488,-4.4524,-4.4461,-4.4231,-4.3254,-4.4098,-4.5166,-4.3964,-4.3485,-4.3114,-4.2145,-4.2126,-4.2602,-4.3434,-4.4703,-4.6029,-4.7073,-4.8454,-4.9174,-4.8114,-4.7646,-4.717,-4.65,-4.6115,-4.5864,-4.5864,-4.5864,-4.5864,-4.5864,-4.5864,-4.5527,-4.4726,-4.4639,-4.4985,-4.578,-4.5864,-4.5864,-4.5864,-4.5864,-4.5864,-4.5864,-4.5071,-4.4639,-4.4639,-4.3436,-4.2412,-4.1631,-4.0807,-3.994,-3.9082,-3.8685,-3.7958,-2.6175,-2.6873,-2.7193,-2.8444,-2.6166,-2.3345,-2.2567,-2.049,-1.8638,-1.8486,-1.8261,-1.8244,-1.8741,-1.8852,-1.8852,-1.8888,-2.1701,-2.4561,-2.639,-2.9594,-3.3661,-3.8854,-3.9505,-4.1519,-4.6562,-4.8567,-4.9584,-4.9584,-4.9584,-4.9636,-4.9759,-4.9763,-4.9693,-4.9555,-4.9687,-4.9763,-4.9763,-4.9881,-4.9883,-4.9768,-4.9763,-4.9644,-4.9361,-4.9361,-4.928,-4.9147,-4.8789,-4.8811,-4.9185,-4.8767,-4.8617,-4.8617,-4.8617,-4.846,-4.8215,-4.8215,-4.8215,-4.8065,-4.6988,-4.6665,-4.6479,-4.5444,-4.5121,-4.5121,-4.5121,-4.5558,-4.5971,-4.5257,-4.4654,-4.4165,-4.4165,-4.3737,-4.3729,-4.5143,-4.6557,-4.7695,-4.8099,-4.9439,-5.0252,-4.9174,-4.8191,-4.7488,-4.7409,-4.6552,-4.5864,-4.5864,-4.5864,-4.5864,-4.5864,-4.5864,-4.5864,-4.5864,-4.5864,-4.5864,-4.5864,-4.5864,-4.5864,-4.5864,-4.5864,-4.5864,-4.5864,-4.5864,-4.5864,-4.5864,-4.4726,-4.4114,-4.4114,-4.1631,-4.0423,-4.0423,-3.9082,-3.8485,-2.9137,-2.9603,-2.9769,-3.0604,-2.8873,-2.6476,-2.4666,-2.2567,-2.0413,-1.8367,-1.7993,-1.8137,-1.8279,-1.8466,-1.8953,-2.0047,-2.3082,-2.5849,-2.7491,-3.2365,-3.6997,-4.0186,-4.2498,-4.5056,-4.8267,-4.8989,-4.9311,-4.9453,-4.9428,-4.95,-4.9636,-4.9526,-4.9495,-4.9546,-4.9619,-4.9673,-4.9763,-4.9819,-4.9843,-4.9883,-4.9784,-4.9705,-4.9652,-4.9536,-4.95,-4.9453,-4.9236,-4.921,-4.928,-4.9092,-4.9011,-4.9011,-4.9011,-4.8949,-4.8885,-4.8885,-4.8714,-4.8448,-4.8131,-4.7417,-4.6591,-4.6286,-4.5997,-4.5901,-4.6659,-4.6841,-4.6683,-4.6491,-4.6013,-4.547,-4.547,-4.4688,-4.3941,-4.3971,-4.5834,-4.7648,-4.7796,-4.9725,-5.1253,-5.0252,-4.9863,-4.9395,-4.865,-4.7646,-4.6959,-4.6959,-4.6335,-4.5864,-4.5864,-4.5864,-4.5864,-4.5864,-4.6582,-4.6634,-4.5948,-4.5864,-4.5864,-4.5864,-4.5864,-4.5864,-4.5864,-4.5864,-4.5864,-4.5864,-4.5527,-4.4899,-4.4114,-4.3374,-4.219,-4.0423,-4.0037,-3.9353,-3.036,-3.071,-3.0822,-3.1233,-2.9887,-2.8016,-2.5999,-2.3753,-2.1376,-1.9029,-1.8226,-1.7937,-1.8064,-1.8658,-1.9725,-2.1451,-2.4444,-2.7654,-3.0764,-3.499,-3.9051,-4.2491,-4.466,-4.6698,-4.8763,-4.9089,-4.9222,-4.9285,-4.9301,-4.9326,-4.9402,-4.9341,-4.9326,-4.9402,-4.9465,-4.9544,-4.9628,-4.9666,-4.9705,-4.9781,-4.9772,-4.9729,-4.968,-4.9655,-4.9636,-4.9584,-4.95,-4.9465,-4.9453,-4.9317,-4.9255,-4.9255,-4.9204,-4.9185,-4.9185,-4.9185,-4.9032,-4.8789,-4.864,-4.8104,-4.7417,-4.7295,-4.699,-4.6805,-4.7445,-4.7346,-4.7021,-4.7021,-4.6722,-4.6411,-4.6137,-4.547,-4.4749,-4.42,-4.6077,-4.8073,-4.8015,-5.0306,-5.211,-5.122,-5.0774,-5.0323,-4.9718,-4.8694,-4.8037,-4.8037,-4.7488,-4.709,-4.709,-4.709,-4.6959,-4.6552,-4.7409,-4.7646,-4.6552,-4.65,-4.6335,-4.5864,-4.5864,-4.5864,-4.5864,-4.5864,-4.5864,-4.5864,-4.5864,-4.5527,-4.4813,-4.4378,-4.3374,-4.1911,-4.1323,-4.0468,-3.0389,-3.071,-3.071,-3.0766,-2.9944,-2.854,-2.6747,-2.4395,-2.2117,-2.0347,-1.8962,-1.8111,-1.8348,-1.9635,-2.1273,-2.3185,-2.6213,-3.0092,-3.5194,-3.7558,-4.0455,-4.5082,-4.6084,-4.6967,-4.8421,-4.887,-4.9089,-4.9128,-4.9128,-4.9128,-4.9185,-4.9185,-4.9185,-4.9185,-4.9285,-4.9356,-4.9361,-4.9512,-4.9536,-4.9555,-4.9687,-4.967,-4.9583,-4.9721,-4.971,-4.9619,-4.9573,-4.9602,-4.9555,-4.9441,-4.9399,-4.9333,-4.9238,-4.9204,-4.9185,-4.9185,-4.9185,-4.9128,-4.8767,-4.864,-4.8569,-4.8342,-4.7977,-4.7707,-4.7711,-4.745,-4.7132,-4.7058,-4.7058,-4.6948,-4.6335,-4.6096,-4.5894,-4.5336,-4.7056,-4.8793,-4.8683,-5.1009,-5.2952,-5.2174,-5.1288,-5.0742,-5.0705,-4.9791,-4.91,-4.91,-4.9025,-4.9025,-4.9025,-4.9025,-4.8619,-4.7773,-4.8543,-4.8725,-4.7646,-4.7567,-4.709,-4.6115,-4.6032,-4.5948,-4.5864,-4.5864,-4.5864,-4.5864,-4.5864,-4.5864,-4.5864,-4.4813,-4.4202,-4.4114,-4.2959,-4.1765,-3.0652,-3.071,-3.0822,-3.1365,-3.1264,-3.0321,-2.7596,-2.6555,-2.5186,-2.1875,-2.095,-2.0777,-2.0828,-2.2502,-2.4435,-2.6072,-3.0397,-3.4408,-3.679,-4.0691,-4.3827,-4.5208,-4.6528,-4.7582,-4.8224,-4.8342,-4.8497,-4.8722,-4.8708,-4.8832,-4.9147,-4.9185,-4.9185,-4.9185,-4.9204,-4.929,-4.937,-4.9375,-4.9465,-4.9555,-4.9573,-4.9642,-4.9708,-4.9753,-4.9809,-4.9877,-4.9768,-4.9705,-4.9699,-4.9602,-4.9465,-4.937,-4.9341,-4.929,-4.9185,-4.9185,-4.9185,-4.9147,-4.9089,-4.8832,-4.8593,-4.8522,-4.8448,-4.8347,-4.815,-4.8014,-4.7832,-4.7205,-4.7277,-4.7379,-4.6912,-4.6451,-4.6054,-4.5894,-4.7653,-4.9379,-4.9362,-5.1812,-5.3744,-5.2952,-5.2674,-5.2299,-5.1719,-5.0811,-5.0181,-5.0181,-4.9469,-4.9025,-4.9025,-4.9025,-4.9248,-4.9791,-5.0078,-4.9791,-4.8694,-4.865,-4.8161,-4.717,-4.712,-4.6715,-4.5864,-4.5864,-4.5864,-4.5864,-4.5864,-4.5864,-4.5864,-4.5612,-4.4985,-4.4114,-4.3821,-4.3049,-3.1069,-3.1178,-3.1311,-3.1972,-3.2127,-3.1675,-2.9696,-2.8729,-2.7383,-2.4336,-2.3147,-2.2456,-2.17,-2.3843,-2.6516,-2.9036,-3.32,-3.7238,-4.0496,-4.3132,-4.5058,-4.6017,-4.7045,-4.7711,-4.7894,-4.8101,-4.8315,-4.8593,-4.8617,-4.8767,-4.9185,-4.9185,-4.9185,-4.9185,-4.9185,-4.9222,-4.9252,-4.9269,-4.9317,-4.9361,-4.9453,-4.9495,-4.9602,-4.9652,-4.9699,-4.9772,-4.977,-4.9773,-4.9772,-4.9678,-4.9636,-4.9564,-4.9428,-4.9326,-4.9273,-4.9204,-4.9185,-4.9185,-4.9185,-4.9032,-4.8891,-4.8891,-4.8767,-4.8569,-4.8435,-4.8315,-4.813,-4.7743,-4.7614,-4.7581,-4.7381,-4.6914,-4.6451,-4.6172,-4.7239,-4.8692,-4.9892,-5.2543,-5.452,-5.3744,-5.3279,-5.2919,-5.2521,-5.1785,-5.1185,-5.1185,-5.0742,-5.0399,-5.0399,-5.0399,-5.0571,-5.1117,-5.1185,-5.0811,-4.9791,-4.9718,-4.9248,-4.8268,-4.7694,-4.717,-4.6663,-4.6199,-4.5864,-4.5864,-4.5864,-4.5864,-4.5864,-4.5864,-4.5527,-4.4985,-4.4985,-4.4262,-3.1736,-3.189,-3.1875,-3.2661,-3.267,-3.2213,-3.1364,-3.0222,-2.8797,-2.6871,-2.5417,-2.4078,-2.2804,-2.551,-2.8758,-3.1334,-3.5222,-3.9385,-4.3598,-4.4417,-4.5201,-4.6843,-4.7347,-4.7515,-4.7515,-4.7801,-4.815,-4.8497,-4.8473,-4.8607,-4.897,-4.9069,-4.9089,-4.9089,-4.9128,-4.9185,-4.9185,-4.9185,-4.9185,-4.9185,-4.9285,-4.9356,-4.9361,-4.95,-4.9526,-4.9555,-4.968,-4.9754,-4.9772,-4.9771,-4.9743,-4.9754,-4.9544,-4.9428,-4.9399,-4.9306,-4.9221,-4.9222,-4.9222,-4.9185,-4.9185,-4.9185,-4.897,-4.8685,-4.8617,-4.851,-4.8342,-4.8243,-4.8014,-4.7801,-4.7739,-4.745,-4.7023,-4.646,-4.6686,-4.7727,-5.0364,-5.2872,-5.4563,-5.4416,-5.3915,-5.3396,-5.31,-5.2521,-5.2078,-5.1949,-5.1883,-5.1883,-5.1883,-5.1883,-5.1883,-5.1883,-5.1883,-5.162,-5.0843,-5.0774,-5.0323,-4.9322,-4.8467,-4.7773,-4.7409,-4.6552,-4.6032,-4.5864,-4.5864,-4.5864,-4.5864,-4.5864,-4.5864,-4.5864,-4.5864,-4.5357,-3.2741,-3.2638,-3.1981,-3.3347,-3.2716,-3.1482,-3.0119,-2.9665,-2.9216,-2.8263,-2.736,-2.6731,-2.647,-3.0172,-3.2754,-3.1429,-3.6696,-4.1256,-4.1891,-4.3159,-4.4794,-4.6805,-4.7095,-4.7132,-4.7132,-4.7133,-4.7481,-4.8206,-4.7918,-4.7918,-4.8325,-4.8559,-4.8663,-4.8663,-4.9011,-4.9185,-4.9185,-4.9185,-4.9185,-4.9185,-4.9185,-4.9252,-4.9361,-4.9389,-4.9439,-4.9555,-4.9602,-4.9666,-4.9768,-4.9781,-4.9773,-4.9763,-4.9705,-4.9652,-4.9554,-4.9544,-4.9453,-4.9356,-4.9341,-4.929,-4.9185,-4.9185,-4.9128,-4.9032,-4.8685,-4.8826,-4.8928,-4.8379,-4.8331,-4.8423,-4.8178,-4.7832,-4.7515,-4.7411,-4.7205,-4.7877,-5.0935,-5.1891,-5.2785,-5.4668,-5.4956,-5.4538,-5.3279,-5.3013,-5.2645,-5.2014,-5.1883,-5.1883,-5.1883,-5.1883,-5.1883,-5.1883,-5.1883,-5.1818,-5.1752,-5.1752,-5.132,-5.0393,-5.0181,-4.9322,-4.7488,-4.733,-4.6797,-4.5864,-4.5864,-4.5864,-4.5864,-4.5864,-4.5864,-4.5864,-4.5864,-4.578,-3.191,-3.2162,-3.2094,-3.3832,-3.3211,-3.2179,-3.1877,-3.1818,-3.1633,-3.0813,-2.9766,-2.8952,-2.8952,-3.1541,-3.406,-3.516,-3.9514,-4.3224,-4.4482,-4.5264,-4.6014,-4.695,-4.7021,-4.7021,-4.7021,-4.7021,-4.7277,-4.7832,-4.7743,-4.777,-4.8187,-4.8315,-4.8383,-4.8383,-4.8677,-4.8832,-4.8832,-4.9051,-4.9185,-4.9185,-4.9185,-4.9222,-4.9252,-4.9252,-4.9301,-4.9356,-4.9428,-4.9512,-4.9536,-4.9636,-4.9688,-4.9772,-4.9693,-4.9663,-4.9673,-4.9573,-4.95,-4.9361,-4.937,-4.9326,-4.9285,-4.9285,-4.9238,-4.9128,-4.8991,-4.9032,-4.9109,-4.8841,-4.8677,-4.8569,-4.846,-4.8206,-4.7894,-4.7679,-4.7481,-4.8174,-5.1057,-5.173,-5.2538,-5.5328,-5.5526,-5.5007,-5.4343,-5.3595,-5.2952,-5.2583,-5.2174,-5.2078,-5.2458,-5.2174,-5.1883,-5.1883,-5.1883,-5.1883,-5.1883,-5.1883,-5.1752,-5.132,-5.0291,-4.9248,-4.8345,-4.717,-4.6335,-4.5864,-4.5864,-4.5864,-4.5864,-4.5864,-4.5864,-4.5864,-4.5864,-4.5864,-3.127,-3.1728,-3.2005,-3.4324,-3.3885,-3.2951,-3.3338,-3.3385,-3.3336,-3.3116,-3.2022,-3.1298,-3.1616,-3.3485,-3.5665,-3.8051,-4.1313,-4.4155,-4.5976,-4.6265,-4.6445,-4.6985,-4.7021,-4.7021,-4.7021,-4.7021,-4.7133,-4.745,-4.7448,-4.7614,-4.7894,-4.8014,-4.8072,-4.8072,-4.8398,-4.8617,-4.8617,-4.8991,-4.9185,-4.9185,-4.9185,-4.9185,-4.9185,-4.9185,-4.9185,-4.9166,-4.9285,-4.9341,-4.9361,-4.9451,-4.9573,-4.9705,-4.9598,-4.9659,-4.9759,-4.9645,-4.9552,-4.9489,-4.9477,-4.9453,-4.9415,-4.9413,-4.9317,-4.9203,-4.9204,-4.9185,-4.9185,-4.9185,-4.8991,-4.8767,-4.8767,-4.8534,-4.8206,-4.7863,-4.7711,-4.8274,-5.0718,-5.1574,-5.2649,-5.54,-5.5796,-5.5683,-5.5526,-5.4431,-5.3537,-5.3396,-5.2707,-5.2428,-5.3013,-5.2521,-5.211,-5.1949,-5.1883,-5.1883,-5.1883,-5.1883,-5.1883,-5.1883,-5.0571,-4.9542,-4.9025,-4.7488,-4.6417,-4.5864,-4.5864,-4.5864,-4.5864,-4.5864,-4.5864,-4.5864,-4.5864,-4.5864,-3.1518,-3.1835,-3.1555,-3.4883,-3.4629,-3.3433,-3.2835,-3.2686,-3.3078,-3.4417,-3.4019,-3.386,-3.5239,-3.7703,-3.9119,-3.7921,-4.0701,-4.3285,-4.3994,-4.4107,-4.4826,-4.6805,-4.7021,-4.7021,-4.7021,-4.7021,-4.7021,-4.7058,-4.7058,-4.7058,-4.7095,-4.745,-4.7647,-4.7647,-4.8268,-4.8617,-4.8617,-4.8991,-4.9185,-4.9185,-4.9185,-4.9185,-4.9185,-4.9185,-4.9185,-4.9185,-4.9166,-4.9255,-4.937,-4.9361,-4.9439,-4.9564,-4.9564,-4.9635,-4.9772,-4.9777,-4.9735,-4.9754,-4.9754,-4.9666,-4.9516,-4.9402,-4.937,-4.9341,-4.9222,-4.9185,-4.9185,-4.9185,-4.9147,-4.9128,-4.9128,-4.887,-4.8497,-4.8234,-4.7894,-4.8085,-4.9718,-5.1236,-5.2719,-5.438,-5.597,-5.6891,-5.6413,-5.5658,-5.4888,-5.4283,-5.3547,-5.3013,-5.3073,-5.3013,-5.2707,-5.2014,-5.1883,-5.1883,-5.1883,-5.1883,-5.1883,-5.1883,-5.1818,-5.0948,-4.91,-4.8876,-4.7881,-4.5948,-4.5864,-4.5864,-4.5864,-4.5864,-4.5864,-4.5864,-4.5864,-4.5864,-2.9299,-2.9857,-3.025,-3.3549,-3.3369,-3.2555,-3.3146,-3.329,-3.3815,-3.569,-3.5086,-3.4997,-3.7343,-3.8583,-3.9477,-4.031,-4.2264,-4.4102,-4.5165,-4.5288,-4.5736,-4.6912,-4.7021,-4.7021,-4.7021,-4.7021,-4.7021,-4.7021,-4.7021,-4.7021,-4.7021,-4.7169,-4.7241,-4.7241,-4.7702,-4.797,-4.797,-4.8368,-4.8584,-4.8584,-4.8737,-4.9529,-5.0774,-4.9671,-4.9783,-5.0811,-5.0811,-5.0813,-5.0924,-5.2067,-5.2564,-5.2595,-5.1502,-5.1147,-5.1151,-5.0127,-4.9689,-4.9655,-4.9734,-4.9725,-4.968,-4.9644,-4.9584,-4.9489,-4.9326,-4.9301,-4.9285,-4.9204,-4.9185,-4.9185,-4.9185,-4.9089,-4.887,-4.8559,-4.8347,-4.8545,-4.971,-5.1369,-5.2965,-5.4034,-5.5851,-5.6973,-5.6493,-5.6105,-5.5706,-5.4991,-5.4644,-5.4431,-5.4431,-5.3653,-5.2919,-5.2645,-5.2174,-5.1883,-5.1883,-5.1883,-5.1883,-5.1883,-5.132,-5.0361,-4.9025,-4.8345,-4.733,-4.5864,-4.5864,-4.5864,-4.5864,-4.5864,-4.5864,-4.5864,-4.5864,-4.5864,-2.7203,-2.8118,-2.9097,-3.1958,-3.2328,-3.2302,-3.3353,-3.3621,-3.4193,-3.6338,-3.597,-3.6233,-3.9159,-3.9685,-4.0313,-4.2368,-4.3476,-4.4476,-4.5558,-4.5929,-4.6254,-4.6644,-4.6872,-4.7021,-4.7021,-4.7021,-4.7021,-4.7021,-4.7021,-4.7021,-4.7021,-4.7021,-4.7021,-4.7021,-4.7415,-4.7868,-4.8411,-4.8788,-4.925,-4.9771,-4.9531,-5.0394,-5.2272,-5.1312,-5.1484,-5.2569,-5.2569,-5.2569,-5.2643,-5.3765,-5.4277,-5.4183,-5.2493,-5.1907,-5.1841,-5.0207,-4.9958,-5.0353,-4.992,-4.977,-4.9826,-4.9772,-4.9693,-4.9628,-4.9489,-4.9389,-4.9356,-4.929,-4.9222,-4.9185,-4.9185,-4.9185,-4.9089,-4.8685,-4.8617,-4.8769,-4.9353,-5.0974,-5.2618,-5.3662,-5.5441,-5.6714,-5.6652,-5.6632,-5.6421,-5.5706,-5.5574,-5.5574,-5.5574,-5.4538,-5.3595,-5.31,-5.2583,-5.2174,-5.1949,-5.1883,-5.1883,-5.1883,-5.132,-5.0533,-4.9542,-4.8876,-4.7773,-4.6417,-4.6417,-4.6252,-4.5864,-4.5864,-4.5864,-4.5864,-4.5864,-4.5864,-2.5427,-2.6743,-2.8108,-3.0104,-3.1552,-3.271,-3.3352,-3.3571,-3.4161,-3.6305,-3.6726,-3.7614,-4.0624,-4.1151,-4.1785,-4.3746,-4.4048,-4.4247,-4.4983,-4.5601,-4.6013,-4.6054,-4.6644,-4.6984,-4.6984,-4.6984,-4.7021,-4.7021,-4.7021,-4.7021,-4.7021,-4.7021,-4.7021,-4.7021,-4.7415,-4.8341,-4.9935,-5.0299,-5.1292,-5.2828,-5.1564,-5.1827,-5.3434,-5.4001,-5.4268,-5.4289,-5.4289,-5.4289,-5.4289,-5.4326,-5.4326,-5.4139,-5.2494,-5.1879,-5.1764,-5.0071,-5.0521,-5.1805,-5.0299,-4.9832,-4.9924,-4.9784,-4.9768,-4.9754,-4.959,-4.9489,-4.9385,-4.937,-4.9252,-4.9185,-4.9185,-4.9185,-4.9089,-4.8722,-4.8617,-4.8617,-4.8617,-4.9952,-5.1595,-5.3137,-5.4831,-5.6231,-5.7002,-5.7173,-5.6973,-5.6457,-5.6404,-5.6404,-5.6404,-5.5706,-5.4697,-5.3279,-5.31,-5.2769,-5.2014,-5.1883,-5.1883,-5.1883,-5.1883,-5.1454,-5.0565,-5.0565,-4.9573,-4.7488,-4.7409,-4.6959,-4.5864,-4.5864,-4.5864,-4.5864,-4.5864,-4.5864,-2.5276,-2.5015,-2.4823,-2.718,-2.8453,-2.9441,-3.0579,-3.1553,-3.3059,-3.6108,-3.6726,-3.7318,-3.9192,-3.9504,-4.0064,-4.177,-4.2002,-4.259,-4.4179,-4.4558,-4.5029,-4.5971,-4.6254,-4.6137,-4.568,-4.6054,-4.6335,-4.6335,-4.6796,-4.7021,-4.7021,-4.7021,-4.7021,-4.7021,-4.7133,-4.7958,-4.9535,-4.9647,-5.0512,-5.2021,-5.1958,-5.2161,-5.2669,-5.4252,-5.5128,-5.5532,-5.5808,-5.5934,-5.6008,-5.7242,-5.7018,-5.5859,-5.541,-5.4554,-5.3378,-5.1693,-5.0669,-5.0069,-4.9744,-4.9699,-4.9832,-4.9887,-4.9884,-4.9879,-4.9759,-4.9628,-4.95,-4.9375,-4.9252,-4.9185,-4.9185,-4.9185,-4.9165,-4.9032,-4.9011,-4.8933,-4.8663,-5.015,-5.1754,-5.2467,-5.4423,-5.6231,-5.7002,-5.7173,-5.7094,-5.6973,-5.6932,-5.6932,-5.6932,-5.6386,-5.5658,-5.4697,-5.371,-5.3013,-5.2769,-5.2238,-5.1883,-5.1883,-5.1883,-5.1454,-5.0565,-5.0565,-4.9573,-4.7488,-4.7409,-4.6959,-4.5864,-4.5864,-4.5864,-4.5864,-4.5864,-4.5864,-2.2967,-2.2907,-2.3096,-2.5182,-2.5882,-2.6783,-2.9057,-2.97,-3.079,-3.4239,-3.4918,-3.5575,-3.7614,-3.796,-3.8502,-3.9981,-4.077,-4.1583,-4.2723,-4.3595,-4.4412,-4.5201,-4.5246,-4.5212,-4.5121,-4.5426,-4.5766,-4.6054,-4.6411,-4.6722,-4.7021,-4.7663,-4.7984,-4.7984,-4.8662,-4.9732,-5.1343,-5.1343,-5.2123,-5.3657,-5.3393,-5.3623,-5.4348,-5.4959,-5.5728,-5.6741,-5.7104,-5.7427,-5.7691,-5.87,-5.8514,-5.7541,-5.6831,-5.5597,-5.4027,-5.2344,-5.1185,-5.034,-4.976,-4.9659,-4.9772,-4.9923,-4.9963,-4.9925,-4.9877,-4.9759,-4.9644,-4.9536,-4.9441,-4.9348,-4.929,-4.9273,-4.9255,-4.9185,-4.9185,-4.9109,-4.8891,-4.9795,-5.1051,-5.2478,-5.3931,-5.5449,-5.7115,-5.7406,-5.7443,-5.7623,-5.748,-5.7332,-5.7173,-5.6891,-5.643,-5.5754,-5.4644,-5.371,-5.31,-5.2645,-5.2238,-5.1949,-5.1883,-5.1686,-5.1117,-5.1117,-5.0117,-4.8084,-4.8084,-4.733,-4.5864,-4.5864,-4.5864,-4.5864,-4.5864,-4.5312,-1.9559,-2.049,-2.2162,-2.3349,-2.35,-2.4249,0.0,-2.751,-2.7665,-3.1058,-3.1735,-3.2624,-3.5477,-3.6003,-3.6595,-3.8322,-3.9817,-4.0854,-4.1184,-4.269,-4.3847,-4.4015,-4.4048,-4.4265,-4.4877,-4.4937,-4.5212,-4.5809,-4.5894,-4.6254,-4.6908,-4.8406,-4.9301,-4.9379,-5.0874,-5.2479,-5.4013,-5.4013,-5.4834,-5.6323,-5.5292,-5.5605,-5.7058,-5.5877,-5.6197,-5.769,-5.8045,-5.8499,-5.9005,-5.9089,-5.8977,-5.8663,-5.713,-5.5485,-5.3765,-5.227,-5.1655,-5.1387,-5.0002,-4.9644,-4.9763,-4.9883,-4.9925,-4.9963,-4.9963,-4.9877,-4.9763,-4.9763,-4.9673,-4.9564,-4.9453,-4.9399,-4.9356,-4.9258,-4.9204,-4.9185,-4.9185,-4.9185,-4.9964,-5.2659,-5.3375,-5.4379,-5.7083,-5.7678,-5.7846,-5.8082,-5.7935,-5.7656,-5.7254,-5.7137,-5.6932,-5.6448,-5.5754,-5.4802,-5.3421,-5.316,-5.2707,-5.1949,-5.1883,-5.1818,-5.1523,-5.149,-5.0557,-4.841,-4.841,-4.7425,-4.5457,-4.5457,-4.5457,-4.5457,-4.5457,-4.4265,0.0,0.0,0.0,0.0,0.0,0.0,0.0,-2.2914,-2.4159,-2.6793,-2.7291,-2.818,-3.1038,-3.1564,-3.2781,-3.6529,-3.7384,-3.8436,-4.0887,-4.155,-4.2197,-4.3386,-4.3518,-4.3572,-4.3645,-4.4082,-4.4363,-4.451,-4.4983,-4.5558,-4.6213,-4.7733,-4.8824,-4.934,-5.0874,-5.2479,-5.4013,-5.4013,-5.4834,-5.6359,-5.6135,-5.6215,-5.6501,-5.6273,-5.6567,-5.7292,-5.7332,-5.7792,-5.8489,-5.892,-5.8289,-5.7018,-5.6681,-5.4775,-5.2157,-5.1821,-5.0831,-4.967,-4.9469,-4.95,-4.9644,-4.9763,-4.9877,-4.9963,-4.9963,-4.9877,-4.9763,-4.9763,-4.9673,-4.9584,-4.9516,-4.9465,-4.9385,-4.9326,-4.9255,-4.9185,-4.9185,-4.9185,-4.9629,-5.1114,-5.2866,-5.456,-5.6063,-5.7375,-5.7897,-5.7031,-5.7635,-5.8076,-5.7656,-5.7332,-5.6932,-5.6448,-5.6233,-5.5754,-5.4853,-5.371,-5.2707,-5.1949,-5.1883,-5.1097,-4.9332,-4.9201,-4.7784,-4.4687,-4.4584,-4.4053,-4.2898,-4.2898,-4.2898,-4.2898,-4.2898,-4.2636,0.0,0.0,0.0,0.0,0.0,0.0,0.0,0.0,0.0,0.0,0.0,-2.5352,-2.7505,0.0,-3.1005,-3.3175,-3.5312,-3.7515,-3.9751,-4.0704,-4.1461,-4.2184,-4.1862,-4.21,-4.3247,-4.3203,-4.336,-4.4065,-4.5158,-4.6041,-4.6614,-4.8881,-5.0452,-5.1087,-5.2607,-5.4026,-5.5191,-5.5226,-5.5619,-5.6359,-5.6359,-5.6359,-5.6359,-5.6359,-5.6501,-5.6802,-5.7054,-5.748,-5.8045,-5.8526,-5.7889,-5.6382,-5.4775,-5.313,-5.1597,-5.0774,-4.9895,-4.9185,-4.9348,-4.9402,-4.9512,-4.9693,-4.9784,-4.9877,-4.9924,-4.9922,-4.9875,-4.9875,-4.9822,-4.9759,-4.968,-4.9555,-4.9465,-4.9399,-4.929,-4.9185,-4.9185,-4.9185,-4.9517,-5.0706,-5.1818,-5.3028,-5.4449,-5.5413,-5.6049,-5.6239,-5.6609,-5.6999,-5.737,-5.7292,-5.6648,-5.5342,-5.5226,-5.4888,-5.41,-5.3112,-5.2476,-5.2487,-5.1687,-5.0402,-4.8647,-4.8079,-4.6487,-4.3639,-4.3536,-4.283,-4.1411,-4.1411,-4.1411,-4.1354,-3.8483,-3.7146,0.0,0.0,0.0,0.0,0.0,0.0,0.0,0.0,0.0,0.0,0.0,0.0,0.0,0.0,0.0,-3.0074,-3.3396,-3.6496,-3.819,-3.9554,-4.0459,-4.0704,-4.0085,-4.0561,-4.2755,-4.2091,-4.2259,-4.3845,-4.5196,-4.63,-4.7038,-5.0028,-5.201,-5.2652,-5.4204,-5.5379,-5.6105,-5.6151,-5.6233,-5.6359,-5.6233,0.0,-5.6359,-5.6233,-5.6233,-5.6404,-5.6808,-5.7294,-5.7722,-5.7707,-5.7253,-5.6233,-5.2838,-5.1467,-5.1303,-4.9666,-4.9109,-4.9185,-4.9317,-4.9582,-4.9916,-5.0144,-5.0436,-5.0683,-5.0492,-5.0456,0.0,-5.0039,-4.9963,-4.9924,-4.9829,-4.9693,-4.9593,-4.9477,-4.9348,-4.9222,-4.9222,-4.9185,-4.9462,-5.0407,-5.0842,-5.1534,-5.2869,-5.3129,-5.3474,-5.4412,-5.48,-5.5167,-5.5767,-5.6053,-5.549,-5.3571,-5.3421,-5.3086,-5.2343,-5.1666,-5.1573,-5.2189,-5.0704,-4.8926,-4.6965,-4.6094,-4.4537,-4.2207,-4.1932,-4.1056,-3.9569,-3.9384,-3.9193,-3.883,-3.3556,-3.1259,0.0,0.0,0.0,0.0,0.0,0.0,0.0,0.0,0.0,0.0,0.0,0.0,0.0,0.0,0.0,0.0,-3.1567,-3.3866,-3.6595,-3.7121,-3.7712,-3.8978,-3.906,-3.965,-4.1263,-4.0626,-4.1033,-4.3291,-4.4005,-4.5045,-4.6473,-4.9379,0.0,0.0,0.0,-5.4679,-5.5343,-5.5343,-5.5706,-5.6359,-5.5658,-5.5706,-5.6359,-5.5658,-5.5706,-5.6404,-5.6448,-5.6941,-5.7615,-5.6177,-5.5961,-5.6152,-5.2207,-5.0679,-5.0514,-4.9138,-4.8891,-4.9204,-4.9185,0.0,0.0,-5.1805,-5.2932,-5.3983,-5.2618,-5.2203,-5.1899,-5.038,-4.9963,-4.9963,-4.9924,-4.9832,-4.9754,-4.9705,-4.9516,-4.9356,-4.9356,-4.9235,-4.9222,-4.937,-5.0602,-5.1685,-5.1872,-5.1638,-5.0953,-4.9618,-5.1629,-5.2838,-5.1438,-5.2203,-5.2421,-5.1246,-5.1112,0.0,-5.0158,-4.9479,-4.9185,-4.9278,-4.7821,-4.5116,-4.0966,-4.0743,-3.9578,-3.7196,-3.6222,-3.5804,-3.5832,-3.4847,-3.3939,-3.2963,-2.9406,-2.8427,0.0,0.0,0.0,0.0,0.0,0.0,0.0,0.0,0.0,0.0,0.0,0.0,0.0,0.0,0.0,0.0,-2.8578,-3.1209,-3.2177,-3.3422,-3.5082,-3.7384,-3.7229,-3.7583,-3.9143,-3.8518,-3.8497,-3.9545,-4.1773,-4.3498,-4.4358,-4.813,-5.0321,-5.0391,-5.2467,-5.3059,-5.2021,-5.296,-5.3548,-5.3883,-5.2658,-5.2855,-5.4293,-5.3142,-5.3021,-5.3692,-5.3692,-5.4002,-5.4493,-5.3801,-5.3939,-5.4174,0.0,0.0,0.0,0.0,-4.887,-4.9297,-5.0325,-5.1131,-5.197,-5.3095,-5.4014,-5.4575,-5.3931,-5.3127,-5.2316,-5.1542,-5.064,-4.9963,-4.9963,-4.9875,-4.9763,-4.9763,-4.9584,-4.9361,-4.9361,-4.9252,-4.9185,-4.9185,-4.9745,0.0,-4.9934,-4.9468,-4.9163,-4.9353,-5.0279,-5.0983,-5.12,-5.1627,-5.1431,-5.0095,-4.9615,-4.9056,-4.8359,-4.7771,0.0,0.0,0.0,-4.582,-4.2927,-4.2093,0.0,0.0,0.0,-3.397,-3.2843,-3.0816,0.0,0.0,-2.4656,-2.4103,0.0,0.0,0.0,0.0,0.0,0.0,0.0,0.0,0.0,0.0,0.0,0.0,0.0,0.0,0.0,0.0,-2.5536,-2.8088,-2.7219,-2.9499,-3.1853,-3.3382,-3.4437,-3.5411,-3.6452,-3.6861,-3.7086,-3.7163,-4.0215,-4.1942,-4.1895,-4.562,-4.7825,-4.8022,-4.9968,-5.0493,-4.9516,-5.0631,-5.1267,-5.1442,-5.0116,-5.0504,-5.2263,-5.0966,-5.091,-5.173,-5.173,-5.1907,-5.2248,-5.185,-5.1943,-5.1988,-4.8175,-4.6821,-4.7019,-4.7189,-4.7429,-4.793,-4.9745,-5.0662,-5.1336,-5.3145,-5.4103,-5.4483,-5.4052,-5.3224,-5.2197,-5.1172,-5.01,-4.9241,-4.9241,-4.9154,-4.9195,-4.965,-4.9584,-4.9385,-4.9361,-4.9252,-4.9185,-4.9185,-4.8735,-4.8391,-4.8509,-4.7633,-4.7361,-4.8452,-4.8677,-4.8986,-4.9781,-5.024,-4.9942,-4.8612,-4.7866,-4.7215,-4.6438,-4.5885,-4.5724,-4.6059,-4.5853,-4.5021,-4.342,-4.1961,-3.9468,-3.586,-3.404,-3.2114,0.0,0.0,0.0,0.0,0.0,0.0,0.0,0.0,0.0,0.0,0.0,0.0,0.0,0.0,0.0,0.0,0.0,0.0,0.0,0.0,0.0,0.0,0.0,0.0,-2.209,-2.5555,-2.7613,-2.5826,-3.0409,-3.3559,-3.321,-3.5929,-3.771,-3.7836,-3.9864,-4.0517,-3.929,-4.135,-4.3234,-4.4617,-4.5372,-4.6687,-4.8826,-4.886,-4.9237,-4.9802,-4.9169,-4.9533,-5.0765,-4.9965,-5.0382,-5.173,-5.173,-5.1907,-5.2176,-5.0657,-5.0239,-5.0131,-4.4941,-4.2956,-4.3038,-4.3653,-4.388,-4.4204,-4.6289,-4.8007,-4.9578,-5.141,-5.3104,-5.415,-5.2626,-5.2212,-5.1593,-4.8322,-4.7443,-4.7495,-4.7495,-4.7408,-4.7711,-4.9384,-4.9574,-4.937,-4.9399,-4.9252,-4.9185,-4.9185,-4.7646,-4.6754,-4.8004,-4.6618,-4.5333,-4.5238,-4.6308,0.0,-4.5463,-4.6416,-4.6903,-4.6243,-4.5583,-4.4912,-4.4283,-4.3732,-4.3092,-4.2229,-4.1421,-4.0612,-3.9674,-3.7619,-3.5925,-3.4488,-3.146,-2.9056,-2.7544,0.0,0.0,0.0,0.0,0.0,0.0,0.0,0.0,0.0,0.0,0.0,0.0,0.0,0.0,0.0,0.0,0.0,0.0,0.0,0.0,0.0,0.0,0.0,0.0,-2.2891,-2.5177,-2.4348,-2.6901,-2.8083,-2.6396,-2.9363,-3.1224,-3.0868,-3.496,-3.7502,-3.7413,-4.0094,-4.1513,-4.128,-4.3111,-4.3476,-4.2237,-4.4197,-4.5268,-4.5503,-4.5268,-4.6146,-4.7874,-4.6531,-4.6446,-4.7345,-4.7803,-4.745,-4.6618,-4.6524,-4.5945,-4.499,-4.3396,-4.2922,-4.3337,-4.4817,-4.5587,-4.6065,-4.7783,-4.9465,-5.1149,-5.2994,-5.3301,-5.2874,-5.2297,-5.1436,-5.0223,-4.7785,-4.7267,-4.7172,-4.5928,-4.6421,-4.7379,-4.7955,-4.8767,-4.9385,-4.9361,-4.9252,-4.9185,-4.9185,-4.5656,-4.2795,-4.3236,-4.3364,-4.3001,-4.2035,-4.308,-4.4165,-4.4769,-4.484,-4.5167,-4.5991,-4.5075,-4.4363,-4.4165,-4.3083,-4.2306,-4.2042,-4.1234,-4.0025,-3.8347,-3.767,-3.6389,-3.4464,-3.2009,-2.9377,-2.663,0.0,0.0,0.0,0.0,0.0,0.0,0.0,0.0,0.0,0.0,0.0,0.0,0.0,0.0,0.0,0.0,0.0,0.0,0.0,0.0,0.0,0.0,0.0,0.0,0.0,0.0,-2.3283,-2.5207,0.0,-2.3152,-2.5593,-2.6831,-2.5714,-2.9501,-3.2164,-3.2844,-3.4591,-3.6018,-3.7123,-3.8987,-3.9371,-3.8092,-4.0489,-4.1737,-4.1737,-4.1737,-4.2584,-4.4082,-4.3038,-4.2947,-4.3624,-4.4209,-4.3919,-4.2936,-4.2213,-4.0653,-3.8659,-3.8374,-3.7913,-3.782,-4.0632,-4.187,-4.2411,-4.4869,-4.6809,-4.8243,-4.8206,-4.7152,-4.6104,-4.7213,-4.6054,-4.4162,-4.2916,-4.3167,-4.3665,-4.3062,-4.4129,-4.5528,-4.6133,-4.6876,-4.7435,-4.7435,-4.6886,-4.6548,-4.6988,-4.3063,-3.9693,-3.9877,-4.0381,-4.0462,-3.9532,-4.0507,-4.2068,-4.4129,-4.3849,-4.405,-4.5549,-4.4749,-4.4115,-4.4115,-4.2798,-4.1834,-4.1596,-4.0803,-3.9397,-3.7299,-3.7239,-3.5738,-3.2457,-3.1089,-2.8494,0.0,0.0,0.0,0.0,0.0,0.0,0.0,0.0,0.0,0.0,0.0,0.0,0.0,0.0,0.0,0.0,0.0,0.0,0.0,0.0,0.0,0.0,0.0,0.0,0.0,0.0,0.0,-2.2163,-2.4667,0.0,0.0,0.0,0.0,-2.2668,-2.3963,-2.5174,-2.6082,-2.5533,-2.7425,-3.2344,-3.3114,-3.447,-3.6496,-3.7895,-3.8601,-3.8601,-3.8732,-3.9106,-3.9681,-3.9681,-4.0049,-4.0725,-4.1235,-4.1462,-4.1183,-3.7847,-3.4697,-3.1756,-3.0436,-2.8648,-2.7309,-3.1638,-3.3265,-3.3854,-3.7976,-4.0461,-4.1293,-3.8087,-3.5948,-3.5148,-3.8036,-3.6709,0.0,0.0,-3.5562,-3.7381,-3.889,-4.0457,-4.2133,-4.3801,-4.4081,-4.387,-4.387,-4.2551,-4.1617,-4.2527,-3.971,-3.7272,-3.765,0.0,-3.7426,-3.7336,-3.8341,-4.0124,-4.2898,-4.3007,-4.332,-4.4754,-4.4427,-4.4065,-4.4015,-4.2743,-4.1596,-4.0803,-3.982,-3.8365,-3.6296,-3.6092,-3.3649,-2.8682,-2.8478,0.0,0.0,0.0,0.0,0.0,0.0,0.0,0.0,0.0,0.0,0.0,0.0,0.0,0.0,0.0,0.0,0.0,0.0,0.0,0.0,0.0,0.0,0.0,0.0,0.0,0.0,-1.6453,-1.7581,-1.7679,-1.8104,-1.7622,0.0,0.0,0.0,0.0,0.0,0.0,-2.4383,-2.4217,-2.5934,-2.9906,-2.9239,-3.0323,-3.3546,-3.4515,-3.4996,-3.4981,-3.6637,-3.754,-3.7667,-3.7667,-3.8031,-3.8683,-3.9283,-3.9422,-3.8693,-3.3033,-3.0224,-2.9298,-2.7824,-2.688,-2.6741,-2.9642,-3.0855,-3.1843,-3.6987,-3.9168,-3.9547,-3.8785,-3.8254,-3.7329,-3.4373,0.0,0.0,0.0,0.0,-3.3331,-3.3648,-3.581,-3.8301,-3.9828,-4.187,-4.3506,-4.3506,-4.2012,-3.9352,-3.4805,-3.2991,-3.1616,-2.9929,-3.0365,0.0,-2.9524,-3.2152,-3.4865,-3.6584,-3.8968,-4.1101,-4.2649,-4.3259,-4.3291,-4.2608,-4.1684,-4.074,-3.9881,-3.8157,-3.6209,-3.415,-3.1899,-2.9389,-2.6493,0.0,0.0,0.0,0.0,0.0,0.0,0.0,0.0,0.0,0.0,0.0,0.0,0.0,0.0,0.0,0.0,0.0,0.0,0.0,0.0,0.0,0.0,0.0,0.0,0.0,0.0,0.0,-1.5104,-1.6629,-1.6884,-1.6146,-1.4982,0.0,0.0,0.0,0.0,0.0,0.0,0.0,0.0,0.0,-2.5309,-2.4672,-2.5399,-2.7697,-2.9496,-3.038,-3.0412,-3.2403,-3.3654,-3.4198,-3.4198,-3.4535,-3.511,-3.5722,-3.5083,-3.3422,-2.9667,-2.6764,-2.4499,0.0,0.0,0.0,0.0,-2.5815,-2.7027,-3.1883,-3.3902,-3.4138,-3.2703,0.0,0.0,0.0,0.0,0.0,0.0,0.0,-3.0816,-3.1428,-3.4496,-3.7603,-3.8417,-3.9326,-4.0036,-4.0036,-3.6892,-3.321,-3.0409,-2.9059,-2.7775,-2.5842,-2.6759,0.0,0.0,0.0,-3.1906,-3.3909,-3.6867,-3.9356,-4.0873,-4.1772,-4.2016,-4.1537,-4.0212,-3.9249,-3.8739,-3.6704,-3.4245,-3.1398,-2.9649,-2.6877,0.0,0.0,0.0,0.0,0.0,0.0,0.0,0.0,0.0,0.0,0.0,0.0,0.0,0.0,0.0,0.0,0.0,0.0,0.0,0.0,0.0,0.0,0.0,0.0,0.0,0.0,0.0,0.0,0.0,-1.7695,-1.7193,0.0,0.0,0.0,0.0,0.0,0.0,0.0,0.0,0.0,0.0,0.0,0.0,0.0,-2.0448,-2.1861,-2.4132,-2.527,-2.5229,-2.6802,-2.8104,-2.9117,-2.9194,-2.9717,-3.0563,-3.0555,0.0,-2.7249,-2.6279,0.0,0.0,0.0,0.0,0.0,0.0,0.0,0.0,0.0,0.0,0.0,0.0,0.0,0.0,0.0,0.0,0.0,0.0,0.0,0.0,0.0,0.0,-3.7075,-3.6913,-3.6107,-3.5183,-3.466,-2.9942,-2.6179,-2.73,-2.6284,-2.4783,0.0,0.0,0.0,0.0,0.0,0.0,-3.258,-3.5643,-3.8104,-3.9426,-4.041,-4.0865,-4.0678,-3.8851,-3.762,-3.743,-3.5045,-3.2077,-2.8585,-2.8032,0.0,0.0,0.0,0.0,0.0,0.0,0.0,0.0,0.0,0.0,0.0,0.0,0.0,0.0,0.0,0.0,0.0,0.0,0.0,0.0,0.0,0.0,0.0,0.0,0.0,0.0,0.0,0.0,0.0,0.0,0.0,0.0,0.0,0.0,0.0,0.0,0.0,0.0,0.0,0.0,0.0,0.0,0.0,0.0,0.0,0.0,0.0,0.0,0.0,0.0,-2.0608,-2.0967,-2.0781,-2.1225,-2.2963,-2.5533,-2.2731,-2.2739,-2.4342,-1.9162,0.0,0.0,0.0,0.0,0.0,0.0,0.0,0.0,0.0,0.0,0.0,0.0,0.0,0.0,0.0,0.0,0.0,0.0,0.0,0.0,0.0,0.0,-2.9612,-2.8743,-3.0865,-3.2128,-2.8784,0.0,0.0,0.0,0.0,0.0,0.0,0.0,0.0,0.0,0.0,0.0,-2.8031,-3.3292,-3.7213,-3.7987,-4.0304,-4.1203,-3.9816,-3.8471,-3.7145,-3.573,-3.1929,-2.8858,0.0,0.0,0.0,0.0,0.0,0.0,0.0,0.0,0.0,0.0,0.0,0.0,0.0,0.0,0.0,0.0,0.0,0.0,0.0,0.0,0.0,0.0,0.0,0.0,0.0,0.0,0.0,0.0,0.0,0.0,0.0,0.0,0.0,0.0,0.0,0.0,0.0,0.0,0.0,0.0,0.0,0.0,0.0,0.0,0.0,0.0,0.0,0.0,0.0,0.0,0.0,0.0,0.0,0.0,0.0,0.0,0.0,0.0,-1.9704,-1.7451,0.0,0.0,0.0,0.0,0.0,0.0,0.0,0.0,0.0,0.0,0.0,0.0,0.0,0.0,0.0,0.0,0.0,0.0,0.0,0.0,0.0,0.0,0.0,0.0,0.0,0.0,0.0,0.0,0.0,0.0,0.0,0.0,0.0,0.0,0.0,0.0,0.0,0.0,0.0,0.0,-2.6949,-3.2402,-3.6411,-3.7046,-3.9274,-3.9897,-3.7995,-3.6333,-3.4372,-3.2005,-2.8887,0.0,0.0,0.0,0.0,0.0,0.0,0.0,0.0,0.0,0.0,0.0,0.0,0.0,0.0,0.0,0.0,0.0,0.0,0.0,0.0,0.0,0.0,0.0,0.0,0.0,0.0,0.0,0.0,0.0,0.0,0.0,0.0,0.0,0.0,0.0,0.0,0.0,0.0,0.0,0.0,0.0,0.0,0.0,0.0,0.0,0.0,0.0,0.0,0.0,0.0,0.0,0.0,0.0,0.0,0.0,0.0,0.0,0.0,0.0,-1.6671,-1.3009,0.0,0.0,0.0,0.0,0.0,0.0,0.0,0.0,0.0,0.0,0.0,0.0,0.0,0.0,0.0,0.0,0.0,0.0,0.0,0.0,0.0,0.0,0.0,0.0,0.0,0.0,0.0,0.0,0.0,0.0,0.0,0.0,0.0,0.0,0.0,0.0,0.0,0.0,0.0,0.0,-2.6989,-3.1695,-3.5338,-3.643,-3.8179,-3.8479,-3.6508,-3.4613,-3.2017,-2.8671,-2.6359,0.0,0.0,0.0,0.0,0.0,0.0,0.0,0.0,0.0,0.0,0.0,0.0,0.0,0.0,0.0,0.0,0.0,0.0,0.0,0.0,0.0,0.0,0.0,0.0,0.0,0.0,0.0,0.0,0.0,0.0,0.0,0.0,0.0,0.0,0.0,0.0,0.0,0.0,0.0,0.0,0.0,0.0,0.0,0.0,0.0,0.0,0.0,0.0,0.0,0.0,0.0,0.0,0.0,0.0,0.0,0.0,0.0,0.0,0.0,0.0,0.0,0.0,0.0,0.0,0.0,0.0,0.0,0.0,0.0,0.0,0.0,0.0,0.0,0.0,0.0,0.0,0.0,0.0,0.0,0.0,0.0,0.0,0.0,0.0,0.0,0.0,0.0,0.0,0.0,0.0,0.0,0.0,0.0,0.0,0.0,0.0,0.0,0.0,0.0,0.0,0.0,-2.685,-3.0441,-3.3705,-3.6269,-3.7863,-3.8116,-3.6487,-3.5126,-3.2324,-2.7795,0.0,0.0,0.0,0.0,0.0,0.0,0.0,0.0,0.0,0.0,0.0,0.0,0.0,0.0,0.0,0.0,0.0,0.0,0.0,0.0,0.0,0.0,0.0,0.0,0.0,0.0,0.0,0.0,0.0,0.0,0.0,0.0,0.0,0.0,0.0,0.0,0.0,0.0,0.0,0.0,0.0,0.0,0.0,0.0,0.0,0.0,0.0,0.0,0.0,0.0,0.0,0.0,0.0,0.0,0.0,0.0,0.0,0.0,0.0,0.0,0.0,0.0,0.0,0.0,0.0,0.0,0.0,0.0,0.0,0.0,0.0,0.0,0.0,0.0,0.0,0.0,0.0,0.0,0.0,0.0,0.0,0.0,0.0,0.0,0.0,0.0,0.0,0.0,0.0,0.0,0.0,0.0,0.0,0.0,0.0,0.0,0.0,0.0,0.0,0.0,0.0,0.0,-2.6815,-3.0275,-3.3536,-3.6269,-3.7829,-3.7691,-3.5407,-3.3212,-2.9873,-2.5033,0.0,0.0,0.0,0.0,0.0,0.0,0.0,0.0,0.0,0.0,0.0,0.0,0.0,0.0,0.0,0.0,0.0,0.0,0.0,0.0,0.0,0.0,0.0,0.0,0.0,0.0,0.0,0.0,0.0,0.0,0.0,0.0,0.0,0.0,0.0,0.0,0.0,0.0,0.0,0.0,0.0,0.0,0.0,0.0,0.0,0.0,0.0,0.0,0.0,0.0,0.0,0.0,0.0,0.0,0.0,0.0,0.0,0.0,0.0,0.0,0.0,0.0,0.0,0.0,0.0,0.0,0.0,0.0,0.0,0.0,0.0,0.0,0.0,0.0,0.0,0.0,0.0,0.0,0.0,0.0,0.0,0.0,0.0,0.0,0.0,0.0,0.0,0.0,0.0,0.0,0.0,0.0,0.0,0.0,0.0,0.0,0.0,0.0,0.0,0.0,0.0,0.0,-2.679,-2.9768,-3.2994,-3.6482,-3.7573,-3.7111,-3.4623,-3.2164,-2.8377,-2.2936,0.0,0.0,0.0,0.0,0.0,0.0,0.0,0.0,0.0,0.0,0.0,0.0,0.0,0.0,0.0,0.0,0.0,0.0,0.0,0.0,0.0,0.0,0.0,0.0,0.0,0.0,0.0,0.0,0.0,0.0,0.0,0.0,0.0,0.0,0.0,0.0,0.0,0.0,0.0,0.0,0.0,0.0,0.0,0.0,0.0,0.0,0.0,0.0,0.0,0.0,0.0,0.0,0.0,0.0,0.0,0.0,0.0,0.0,0.0,0.0,0.0,0.0,0.0,0.0,0.0,0.0,0.0,0.0,0.0,0.0,0.0,0.0,0.0,0.0,0.0,0.0,0.0,0.0,0.0,0.0,0.0,0.0,0.0,0.0,0.0,0.0,0.0,0.0,0.0,0.0,0.0,0.0,0.0,0.0,0.0,0.0,0.0,0.0,0.0,0.0,0.0,0.0,-2.6765,-2.8591,-3.168,-3.7135,-3.7038,-3.5954,-3.4545,-3.2698,-2.8863,0.0,0.0,0.0,0.0,0.0,0.0,0.0,0.0,0.0,0.0,0.0,0.0,0.0,0.0,0.0,0.0,0.0,0.0,0.0,0.0,0.0,0.0,0.0,0.0,0.0,0.0,0.0,0.0,0.0,0.0,0.0,0.0,0.0,0.0,0.0,0.0,0.0,0.0,0.0,0.0,0.0,0.0,0.0,0.0,0.0,0.0,0.0,0.0,0.0,0.0,0.0,0.0,0.0,0.0,0.0,0.0,0.0,0.0,0.0,0.0,0.0,0.0,0.0,0.0,0.0,0.0,0.0,0.0,0.0,0.0,0.0,0.0,0.0,0.0,0.0,0.0,0.0,0.0,0.0,0.0,0.0,0.0,0.0,0.0,0.0,0.0,0.0,0.0,0.0,0.0,0.0,0.0,0.0,0.0,0.0,0.0,0.0,0.0,0.0,0.0,0.0,0.0,0.0,-2.6104,-2.776,-3.0547,-3.5593,-3.6389,-3.5985,-3.4535,-3.1525,-2.7544,-2.2482,0.0,0.0,0.0,0.0,0.0,0.0,0.0,0.0,0.0,0.0,0.0,0.0,0.0,0.0,0.0,0.0,0.0,0.0,0.0,0.0,0.0,0.0,0.0,0.0,0.0,0.0,0.0,0.0,0.0,0.0,0.0,0.0,0.0,0.0,0.0,0.0,0.0,0.0,0.0,0.0,0.0,0.0,0.0,0.0,0.0,0.0,0.0,0.0,0.0,0.0,0.0,0.0,0.0,0.0,0.0,0.0,0.0,0.0,0.0,0.0,0.0,0.0,0.0,0.0,0.0,0.0,0.0,0.0,0.0,0.0,0.0,0.0,0.0,0.0,0.0,0.0,0.0,0.0,0.0,0.0,0.0,0.0,0.0,0.0,0.0,0.0,0.0,0.0,0.0,0.0,0.0,0.0,0.0,0.0,0.0,0.0,0.0,0.0,0.0,0.0,0.0,0.0,0.0,-2.7173,-3.0059,-3.531,-3.5642,-3.5147,-3.4506,-3.0492,-2.6355,-2.2382,0.0,0.0,0.0,0.0,0.0,0.0,0.0,0.0,0.0,0.0,0.0,0.0,0.0,0.0,0.0,0.0,0.0,0.0,0.0,0.0,0.0,0.0,0.0,0.0,0.0,0.0,0.0,0.0,0.0,0.0,0.0,0.0,0.0,0.0,0.0,0.0,0.0,0.0,0.0,0.0,0.0,0.0,0.0,0.0,0.0,0.0,0.0,0.0,0.0,0.0,0.0,0.0,0.0,0.0,0.0,0.0,0.0,0.0,0.0,0.0,0.0,0.0,0.0,0.0,0.0,0.0,0.0,0.0,0.0,0.0,0.0,0.0,0.0,0.0,0.0,0.0,0.0,0.0,0.0,0.0,0.0,0.0,0.0,0.0,0.0,0.0,0.0,0.0,0.0,0.0,0.0,0.0,0.0,0.0,0.0,0.0,0.0,0.0,0.0,0.0,0.0,0.0,0.0,-2.6729,-2.9865,-3.5817,-3.4766,-3.3809,-3.4217,-2.9648,-2.5371,-2.2022,-1.822,0.0,0.0,0.0,0.0,0.0,0.0,0.0,0.0,0.0,0.0,0.0,0.0,0.0,0.0,0.0,0.0,0.0,0.0,0.0,0.0,0.0,0.0,0.0,0.0,0.0,0.0,0.0,0.0,0.0,0.0,0.0,0.0,0.0,0.0,0.0,0.0,0.0,0.0,0.0,0.0,0.0,0.0,0.0,0.0,0.0,0.0,0.0,0.0,0.0,0.0,0.0,0.0,0.0,0.0,0.0,0.0,0.0,0.0,0.0,0.0,0.0,0.0,0.0,0.0,0.0,0.0,0.0,0.0,0.0,0.0,0.0,0.0,0.0,0.0,0.0,0.0,0.0,0.0,0.0,0.0,0.0,0.0,0.0,0.0,0.0,0.0,0.0,0.0,0.0,0.0,0.0,0.0,0.0,0.0,0.0,0.0,0.0,0.0,0.0,0.0,0.0,0.0,-2.4918,-2.7362,-3.2866,-3.357,-3.3423,-3.2983,-2.8735,-2.4967,-2.237,-1.8134,0.0,0.0,0.0,0.0,0.0,0.0,0.0,0.0,0.0,0.0,0.0,0.0,0.0,0.0,0.0,0.0,0.0,0.0,0.0,0.0,0.0,0.0,0.0,0.0,0.0,0.0,0.0,0.0,0.0,0.0,0.0,0.0,0.0,0.0,0.0,0.0,0.0,0.0,0.0,0.0,0.0,0.0,0.0,0.0,0.0,0.0,0.0,0.0,0.0,0.0,0.0,0.0,0.0,0.0,0.0,0.0,0.0,0.0,0.0,0.0,0.0,0.0,0.0,0.0,0.0,0.0,0.0,0.0,0.0,0.0,0.0,0.0,0.0,0.0,0.0,0.0,0.0,0.0,0.0,0.0,0.0,0.0,0.0,0.0,0.0,0.0,0.0,0.0,0.0,0.0,0.0,0.0,0.0,0.0,0.0,0.0,0.0,0.0,0.0,0.0,0.0,0.0,-2.2886,-2.5594,-3.1087,-3.2044,-3.2223,-3.1977,-2.7897,-2.4452,-2.2208,-1.8193,0.0,0.0,0.0,0.0,0.0,0.0,0.0,0.0,0.0,0.0,0.0,0.0,0.0,0.0,0.0,0.0,0.0,0.0,0.0,0.0,0.0,0.0,0.0,0.0,0.0,0.0,0.0,0.0,0.0,0.0,0.0,0.0,0.0,0.0,0.0,0.0,0.0,0.0,0.0,0.0,0.0,0.0,0.0,0.0,0.0,0.0,0.0,0.0,0.0,0.0,0.0,0.0,0.0,0.0,0.0,0.0,0.0,0.0,0.0,0.0,0.0,0.0,0.0,0.0,0.0,0.0,0.0,0.0,0.0,0.0,0.0,0.0,0.0,0.0,0.0,0.0,0.0,0.0,0.0,0.0,0.0,0.0,0.0,0.0,0.0,0.0,0.0,0.0,0.0,0.0,0.0,0.0,0.0,0.0,0.0,0.0,0.0,0.0,0.0,0.0,0.0,0.0,0.0,-2.4162,-2.909,-3.0299,-3.0746,-3.0745,-2.707,-2.3799,-2.1691,0.0,0.0,0.0,0.0,0.0,0.0,0.0,0.0,0.0,0.0,0.0,0.0,0.0,0.0,0.0,0.0,0.0,0.0,0.0,0.0,0.0,0.0,0.0,0.0,0.0,0.0,0.0,0.0,0.0,0.0,0.0,0.0,0.0,0.0,0.0,0.0,0.0,0.0,0.0,0.0,0.0,0.0,0.0,0.0,0.0,0.0,0.0,0.0,0.0,0.0,0.0,0.0,0.0,0.0,0.0,0.0,0.0,0.0,0.0,0.0,0.0,0.0,0.0,0.0,0.0,0.0,0.0,0.0,0.0,0.0,0.0,0.0,0.0,0.0,0.0,0.0,0.0,0.0,0.0,0.0,0.0,0.0,0.0,0.0,0.0,0.0,0.0,0.0,0.0,0.0,0.0,0.0,0.0,0.0,0.0,0.0,0.0,0.0,0.0,0.0,0.0,0.0,0.0,0.0,-2.2687,-2.4453,-2.827,-3.0053,-2.8468,-2.5753,-2.304,-2.0603,0.0,0.0,0.0,0.0,0.0,0.0,0.0,0.0,0.0,0.0,0.0,0.0,0.0,0.0]}],[{"header":{"parameterUnit":"kt","parameterCategory":2,"dx":1,"dy":1,"la1":29.285339999999998,"la2":30.599998999999997,"lo1":-89.70041500000002,"lo2":-87.6738589999976,"nx":112,"ny":82,"refTime":"2022-09-21T18:00:00:Z","depth":0,"parameterNumber":2,"parameterNumberName":"V-component_of_WINDS"},"data":[3.0571,3.2061,3.2486,2.5806,2.7049,2.8307,2.2141,2.0365,2.0025,2.0099,1.7865,1.658,1.8945,1.6059,1.374,1.495,1.2702,1.0601,0.0,1.0844,1.2169,1.3802,1.6913,0.0,0.0,0.0,3.1646,3.2947,3.7002,4.0163,4.1856,4.3625,4.5341,4.7001,4.8675,4.9506,4.9453,4.9555,4.9555,4.9441,4.9636,5.0052,5.0641,5.0695,5.1701,5.3418,5.4025,5.5421,5.7382,5.7719,5.8398,5.9267,5.9147,5.9089,5.9089,5.9089,5.9089,5.9089,5.9089,5.9089,5.9089,5.9089,5.9089,5.9089,5.9089,5.9089,5.9089,5.9089,5.9089,5.9089,5.9089,5.9089,5.9005,5.8696,5.858,5.8526,5.83,5.8241,5.83,5.8553,5.858,5.8696,5.9028,5.9089,5.9089,5.9089,5.9089,5.9089,5.9089,5.9089,5.9089,5.9089,5.9089,5.9351,5.9972,6.2065,6.4234,6.6328,6.7038,6.7861,6.8982,6.8993,6.9282,6.9842,6.9319,6.9282,6.9842,6.9282,6.8993,6.9057,6.9581,6.9842,2.7117,2.8539,2.9231,2.2982,2.3974,2.5359,2.0861,1.8535,1.738,1.7476,1.5704,1.4271,1.4844,1.3589,1.2451,1.2453,1.1958,1.1389,0.0,1.2214,1.3893,1.5566,1.8674,2.1502,2.3655,2.9385,3.2929,3.2941,3.7544,4.1005,4.2565,4.379,4.5477,4.7717,4.8848,4.9375,4.9333,4.9441,4.9441,4.9317,4.95,4.9573,4.9606,4.9705,5.0429,5.1591,5.2202,5.3668,5.563,5.6564,5.7525,5.8407,5.8879,5.9089,5.9089,5.9089,5.9089,5.9089,5.9089,5.9089,5.9089,5.9089,5.9089,5.9089,5.9089,5.9089,5.9089,5.9089,5.9089,5.9089,5.9089,5.9089,5.9005,5.867,5.8462,5.8255,5.7983,5.7858,5.7825,5.8076,5.8226,5.8434,5.8747,5.8981,5.9089,5.9089,5.9089,5.9089,5.9089,5.9089,5.9089,5.9089,5.9089,5.9089,5.9089,6.0121,6.1916,6.4683,6.5879,6.6963,6.8122,6.8721,6.8993,6.8993,6.8993,6.8993,6.8993,6.8993,6.8993,6.8993,6.8993,6.8993,2.5454,2.3518,2.1975,2.004,1.9751,1.9891,1.9778,1.8536,1.7448,1.7485,1.484,1.3021,1.4677,1.3646,1.2504,1.2504,1.3866,0.0,0.0,1.416,1.5888,1.7346,2.0436,2.3712,2.6964,2.8979,3.1332,3.4432,3.6291,3.9339,4.4061,4.4306,4.5801,4.9073,4.9185,4.9185,4.9185,4.928,4.928,4.9204,4.9428,4.9512,4.9375,4.9606,4.9759,4.9839,5.1627,5.2281,5.2313,5.5488,5.6697,5.6719,5.8364,5.9014,5.9014,5.9052,5.9089,5.9089,5.9089,5.9089,5.9089,5.9089,5.9089,5.9089,5.9089,5.9089,5.9089,5.9089,5.9089,5.9089,5.9089,5.9028,5.9066,5.9028,5.867,5.8284,5.8255,5.7951,5.769,5.7724,5.8045,5.8313,5.8313,5.8721,5.9089,5.9089,5.9089,5.9089,5.9089,5.9089,5.9089,5.9089,5.9089,5.9089,5.9089,5.9089,5.9785,6.143,6.4533,6.6365,6.6477,6.8048,6.8945,6.8993,6.8993,6.8993,6.8993,6.8993,6.8993,6.8993,6.8993,6.8993,2.1618,2.2552,2.318,1.8986,1.9789,2.1034,1.8674,1.6865,1.6008,1.7234,1.5793,0.0,0.0,0.0,1.4245,1.4169,0.0,1.7419,1.4523,1.9752,2.355,2.2773,2.331,2.5023,2.8298,3.3649,3.6748,3.6335,3.8987,4.1719,4.4173,4.4306,4.5801,4.9073,4.9185,4.9185,4.9185,4.9222,4.9222,4.9185,4.9255,4.9333,4.9385,4.9441,4.9544,4.9636,5.0159,5.0955,5.2002,5.2906,5.4593,5.6607,5.7055,5.728,5.7392,5.8663,5.9089,5.9089,5.9089,5.9089,5.9089,5.9089,5.9089,5.9089,5.9089,5.9089,5.9089,5.9089,5.8809,5.8516,5.8516,5.8321,5.8057,5.7727,5.7588,5.737,5.6985,5.6819,5.6855,5.7217,5.7621,5.7983,5.8284,5.8434,5.8516,5.8516,5.8871,5.9089,5.9089,5.9089,5.9089,5.9089,5.9089,5.9089,5.9089,5.9089,5.9276,5.9747,6.1766,6.401,6.6365,6.6926,6.7749,6.8982,6.8993,6.8993,6.8993,6.8993,6.8993,6.8993,6.8993,6.8993,1.9525,2.0144,2.1003,1.8055,1.8811,1.9992,1.8739,1.7193,1.6325,1.731,0.0,0.0,0.0,0.0,0.0,0.0,1.8642,1.9882,1.7272,2.2221,2.5954,2.5395,2.7766,2.9593,2.9929,3.4413,3.7417,3.7731,3.972,4.1937,4.4211,4.4996,4.6549,4.911,4.9185,4.9185,4.9185,4.9185,4.9185,4.9185,4.9185,4.9222,4.9285,4.9341,4.9402,4.9512,4.9564,5.0067,5.0876,5.1628,5.2926,5.4513,5.4513,5.5335,5.6681,5.7691,5.8347,5.8747,5.8747,5.8644,5.8536,5.8536,5.8617,5.8747,5.8747,5.892,5.9089,5.9089,5.8721,5.8313,5.8313,5.8014,5.7656,5.7443,5.7292,5.7054,5.6766,5.6501,5.6493,5.6766,5.7179,5.7587,5.7792,5.7951,5.8137,5.8284,5.858,5.8834,5.9089,5.9089,5.9089,5.9089,5.9089,5.9089,5.9089,5.9089,5.9089,5.9089,6.0009,6.1729,6.4346,6.5767,6.6926,6.7936,6.8646,6.8993,6.8993,6.8993,6.8993,6.8993,6.8993,6.8993,1.8341,1.7031,1.7056,1.7033,1.7121,1.7719,1.9625,0.0,1.8111,1.8441,0.0,1.6494,1.7849,0.0,0.0,1.8048,2.0809,2.2321,2.0534,2.3423,2.6039,2.6987,3.2455,3.4978,3.1973,3.321,3.5551,3.8844,3.947,4.1117,4.4346,4.6026,4.7559,4.911,4.9185,4.9185,4.9185,4.9185,4.9185,4.9185,4.9185,4.9185,4.9166,4.9301,4.9356,4.937,4.9489,4.9465,4.9469,5.0958,5.1633,5.1709,5.1709,5.3466,5.6046,5.6361,5.7157,5.8054,5.821,5.8014,5.7724,5.7724,5.7951,5.8255,5.8255,5.858,5.9005,5.8957,5.8617,5.8255,5.8197,5.7887,5.7586,5.7586,5.7295,5.7054,5.7054,5.6718,5.6359,5.6359,5.6802,5.7134,5.7094,5.7406,5.7792,5.8137,5.8226,5.8407,5.8871,5.8981,5.9005,5.9005,5.9052,5.9089,5.9089,5.9089,5.9089,5.9089,5.9089,5.9785,6.128,6.4271,6.6103,6.6477,6.7973,6.8833,6.8993,6.8993,6.8993,6.8993,6.8993,6.8993,1.6261,1.5322,1.5414,1.5421,1.5443,1.6511,0.0,0.0,0.0,2.4224,2.4447,2.3919,2.2961,2.2801,2.2778,2.2629,2.5472,2.6605,2.355,2.8176,3.1978,3.2172,3.322,3.4167,3.4954,3.5268,3.681,4.0202,4.0803,4.2446,4.5693,4.6494,4.7559,4.911,4.9185,4.9185,4.9185,4.9185,4.9185,4.9185,4.9185,4.9185,4.9185,4.9204,4.9222,4.924,4.9238,4.9238,4.9222,4.9559,5.0513,5.1709,5.1709,5.2083,5.2922,5.5247,5.6245,5.6581,5.7509,5.7789,5.7724,5.7724,5.7792,5.7858,5.7858,5.8137,5.8407,5.8082,5.7924,5.7792,5.7443,5.7018,5.6639,5.6639,5.6589,5.6501,5.6501,5.6448,5.6359,5.6359,5.6802,5.7014,5.6589,5.6932,5.7292,5.7369,5.7621,5.7891,5.7988,5.8293,5.8462,5.8462,5.8834,5.9089,5.9089,5.9089,5.9089,5.9089,5.9089,5.9238,5.956,6.1505,6.3785,6.6403,6.6776,6.7636,6.8993,6.8993,6.8993,6.8993,6.8993,6.8993,1.4509,1.4269,1.4979,1.4951,1.5604,0.0,0.0,2.1505,2.2483,2.3911,2.4834,2.5079,2.4158,2.4666,2.517,2.5093,2.788,2.9633,2.8541,3.2016,3.4623,3.4435,3.5182,3.5941,3.6665,3.6705,3.7732,4.0443,4.2417,4.4266,4.5888,4.6944,4.7889,4.8667,4.8704,4.8737,4.8891,4.8891,4.8991,4.9185,4.9185,4.9185,4.9185,4.9185,4.9185,4.9185,4.9185,4.9185,4.9185,4.9185,4.9574,5.0179,5.0179,5.0641,5.1587,5.3043,5.4389,5.5632,5.605,5.6567,5.7025,5.7025,5.7025,5.7104,5.7333,5.7587,5.7724,5.7724,5.7623,5.7406,5.7212,5.6766,5.6359,5.6359,5.6359,5.6359,5.6359,5.6359,5.6359,5.6359,5.6589,5.6675,5.6404,5.6589,5.685,5.7134,5.733,5.7516,5.7724,5.7887,5.8014,5.8014,5.8234,5.8387,5.8387,5.8387,5.8387,5.8387,5.8387,5.8387,5.8387,5.9398,6.1142,6.3589,6.5503,6.6889,6.7749,6.7749,6.816,6.8993,6.8993,6.8993,1.2774,1.3195,1.4569,1.4882,1.6245,0.0,2.0548,2.2064,2.3126,2.3539,2.4889,2.5823,2.5283,2.6486,2.7537,2.7537,2.9752,3.1919,3.3274,3.4875,3.5744,3.5403,3.674,3.7613,3.7314,3.7344,3.8061,3.9647,4.3023,4.5327,4.6004,4.7426,4.8215,4.8215,4.8215,4.8315,4.8522,4.8569,4.8767,4.9051,4.9128,4.9185,4.9185,4.9185,4.9185,4.9185,4.9185,4.9185,4.9185,4.9109,4.8891,4.8593,4.8546,4.9373,5.0569,5.0787,5.2481,5.463,5.4531,5.5323,5.6359,5.6359,5.6359,5.6448,5.685,5.7014,5.7058,5.7516,5.7406,5.7134,5.7014,5.6718,5.6359,5.6359,5.6359,5.6359,5.6359,5.6359,5.6359,5.6359,5.6359,5.6359,5.6359,5.6359,5.6501,5.6932,5.7014,5.7098,5.7407,5.7551,5.7621,5.7621,5.769,5.7724,5.7724,5.7724,5.7724,5.7724,5.7724,5.7724,5.7724,5.8045,5.8885,6.0306,6.3664,6.5753,6.6477,6.5842,6.6552,6.8534,6.887,6.8993,1.0695,1.1424,1.3098,1.4579,1.6245,0.0,2.4448,2.5821,2.6661,2.907,3.0837,3.1469,3.0039,3.1051,3.2098,3.2098,3.2409,3.3388,3.5516,3.5999,3.6069,3.6067,3.6241,3.6381,3.6309,3.6731,3.7071,3.7313,4.0713,4.4076,4.7244,4.7904,4.8215,4.8215,4.8215,4.8215,4.8234,4.8473,4.8617,4.8663,4.9011,4.9185,4.9185,4.9185,4.9185,4.9185,4.9185,4.9185,4.9165,4.8789,4.864,4.8593,4.8368,4.8344,4.8655,4.9725,5.116,5.2755,5.3769,5.5092,5.6359,5.6359,5.6359,5.6404,5.6448,5.6457,5.6545,5.7058,5.7212,5.7054,5.6589,5.6404,5.6359,5.6359,5.6359,5.6359,5.6359,5.6359,5.6359,5.6359,5.6359,5.6359,5.6359,5.6359,5.6404,5.6448,5.6457,5.6457,5.6509,5.6932,5.7215,5.7215,5.7516,5.7724,5.7724,5.7724,5.7724,5.7724,5.7724,5.7724,5.7724,5.7792,5.8025,5.8572,6.0512,6.3125,6.6477,6.3561,6.3748,6.6776,6.8309,6.8993,1.1312,1.2642,1.4306,1.6015,0.0,0.0,2.3262,2.5888,2.7993,2.8673,3.0852,3.2325,3.1278,3.2371,3.3417,3.3417,3.4182,3.5097,3.6028,3.6127,3.6127,3.6127,3.6127,3.6127,3.6127,3.6344,3.6834,3.7772,3.9245,4.1534,4.4752,4.6199,4.7132,4.7515,4.7515,4.7647,4.7863,4.7977,4.8142,4.8357,4.8522,4.8633,4.8633,4.8633,4.8691,4.887,4.887,4.8991,4.9128,4.8596,4.8224,4.8028,4.7924,4.7863,4.7942,4.8441,4.9571,5.1092,5.225,5.3728,5.5155,5.6074,5.6359,5.6359,5.6359,5.6359,5.6413,5.6632,5.6718,5.6675,5.6448,5.6359,5.6359,5.6359,5.6359,5.6359,5.6359,5.6359,5.6359,5.6359,5.6359,5.6359,5.6359,5.6359,5.6359,5.6359,5.6359,5.6359,5.6359,5.6545,5.6718,5.6718,5.6855,5.6941,5.6941,5.6941,5.6941,5.6941,5.6941,5.6941,5.6941,5.7256,5.7443,5.7621,5.8771,6.0615,6.3199,6.1822,6.204,6.3711,6.6328,6.8048,1.2109,0.0,0.0,0.0,0.0,0.0,2.2907,2.5865,2.8392,2.8199,3.0668,3.2701,3.2242,3.3411,3.437,3.4079,3.4996,3.571,3.571,3.571,3.571,3.571,3.571,3.571,3.571,3.5864,3.6422,3.7523,3.8159,3.9409,4.1615,4.3932,4.5633,4.6491,4.6491,4.6728,4.7204,4.7307,4.7607,4.8043,4.8159,4.8215,4.8215,4.8215,4.8315,4.8473,4.8569,4.8722,4.8864,4.8261,4.7863,4.7614,4.7481,4.7484,4.7484,4.7484,4.8459,4.9901,5.078,5.2372,5.4228,5.5369,5.6047,5.6359,5.6359,5.6359,5.6359,5.6359,5.6359,5.6359,5.6359,5.6359,5.6359,5.6359,5.6359,5.6359,5.6359,5.6359,5.6359,5.6359,5.6359,5.6359,5.6359,5.6359,5.6359,5.6359,5.6359,5.6359,5.6359,5.6359,5.6359,5.6359,5.6359,5.6359,5.6359,5.6359,5.6359,5.6359,5.6359,5.6359,5.6359,5.676,5.7014,5.7173,5.769,5.8697,6.0121,6.0032,6.0475,6.1457,6.3808,6.6138,0.0,0.0,0.0,1.9029,2.0681,2.268,2.5322,2.679,2.802,2.9383,3.1846,3.3789,3.3754,3.5027,3.5757,3.4739,3.4632,3.4665,3.4665,3.4665,3.4665,3.4665,3.4665,3.4665,3.4665,3.51,3.5427,3.5461,3.7342,3.8551,3.8654,4.1408,4.3684,4.5132,4.5121,4.547,4.6096,4.6512,4.6989,4.7647,4.8014,4.8215,4.8215,4.8215,4.8215,4.8243,4.8473,4.8485,4.8215,4.7801,4.7647,4.7581,4.7205,4.7058,4.7058,4.7058,4.8058,4.9379,4.945,5.1445,5.4013,5.4085,5.5119,5.6359,5.6359,5.6359,5.6359,5.6359,5.6359,5.6359,5.6359,5.6359,5.6359,5.6359,5.6359,5.6359,5.6359,5.6359,5.6359,5.6359,5.6359,5.6359,5.6359,5.6359,5.6359,5.6359,5.6359,5.6359,5.6359,5.6359,5.6359,5.6359,5.6359,5.6359,5.6359,5.6359,5.6359,5.6359,5.6359,5.6359,5.6359,5.6404,5.6632,5.7134,5.7137,5.7552,5.8387,5.7993,5.8904,6.0854,6.0965,6.2985,1.4864,1.7012,1.935,2.1895,2.4144,2.5934,2.6864,2.9499,3.1786,3.1905,3.3498,3.477,3.4413,3.4375,3.4194,3.3433,3.3322,3.3322,3.3322,3.3322,3.3322,3.3322,3.3322,3.3322,3.3322,3.3853,3.4048,3.3589,3.4995,3.6158,3.6653,3.9356,4.1554,4.3015,4.4376,4.5166,4.5426,4.5532,4.5955,4.6615,4.6697,4.7026,4.745,4.745,4.7581,4.7801,4.7918,4.7502,4.6845,4.7375,4.7484,4.7205,4.7095,4.7021,4.7021,4.7021,4.7378,4.7949,4.9022,5.0057,5.1307,5.3336,5.437,5.5012,5.6083,5.6359,5.6359,5.6359,5.6359,5.6359,5.6359,5.6359,5.6359,5.6359,5.6359,5.6359,5.6359,5.5931,5.5512,5.5026,5.4923,5.4923,5.4923,5.5279,5.5574,5.5574,5.6059,5.6359,5.6359,5.6359,5.6359,5.6359,5.6359,5.6359,5.6359,5.6359,5.6359,5.6359,5.6359,5.6359,5.6359,5.6359,5.6457,5.6632,5.6973,5.7292,5.7552,5.737,5.7807,5.8798,5.9935,6.1266,1.6732,1.8724,2.0755,2.3979,2.5953,2.7242,2.8031,3.0817,3.3103,3.2792,3.3992,3.4932,3.4336,3.3495,3.271,3.2291,3.2271,3.2322,3.2636,3.2636,3.2636,3.2636,3.2636,3.2636,3.2636,3.3,3.3097,3.2686,3.3417,3.4131,3.4639,3.679,3.8811,4.0462,4.2338,4.3675,4.448,4.4722,4.511,4.5723,4.5723,4.5936,4.6335,4.6335,4.6499,4.6698,4.6698,4.6349,4.5766,4.6432,4.658,4.6335,4.6605,4.6683,4.6757,4.6946,4.7021,4.7164,4.8163,4.8915,4.9807,5.2372,5.3585,5.4335,5.594,5.6359,5.6278,5.6059,5.5966,5.5966,5.5966,5.5966,5.6013,5.6314,5.6359,5.6278,5.6013,5.5526,5.5042,5.4392,5.4228,5.4228,5.4228,5.4573,5.494,5.5159,5.5658,5.6059,5.6359,5.6359,5.6359,5.6359,5.6359,5.6359,5.6359,5.6359,5.6359,5.6359,5.6359,5.6359,5.6359,5.6359,5.6359,5.6359,5.6718,5.685,5.685,5.685,5.7098,5.7552,5.8647,5.937,1.7933,1.9913,2.1957,2.5285,2.6144,2.6793,2.8919,3.0834,3.2087,3.2087,3.3356,3.428,3.3542,3.2299,3.134,3.1287,3.1287,3.1558,3.2353,3.2403,3.2403,3.2403,3.2403,3.2454,3.2485,3.2535,3.2535,3.2535,3.2636,3.2636,3.2586,3.4013,3.5724,3.7804,3.9247,4.1001,4.3225,4.3875,4.448,4.5029,4.5029,4.5075,4.5075,4.5075,4.5029,4.4983,4.5029,4.5029,4.5029,4.5075,4.5075,4.5166,4.5809,4.6054,4.6137,4.6796,4.7021,4.6984,4.6984,4.7946,4.9408,5.1012,5.2616,5.4149,5.5753,5.6288,5.6187,5.5428,5.5194,5.5194,5.5194,5.5194,5.5393,5.6151,5.6359,5.6187,5.5393,5.5159,5.4905,5.4248,5.4117,5.4117,5.4117,5.4173,5.4358,5.5007,5.5194,5.5477,5.6187,5.6314,5.6278,5.6233,5.6233,5.6233,5.6233,5.6314,5.6278,5.6278,5.6359,5.6359,5.6359,5.6359,5.6359,5.6359,5.6359,5.6359,5.6359,5.6359,5.6632,5.7134,5.7134,5.7332,1.8278,2.148,2.4039,2.6467,2.773,2.8791,3.0302,3.1627,3.2514,3.2514,3.2877,3.2543,3.0665,2.9969,2.9571,2.9103,2.9012,2.9071,2.9307,2.9307,2.9307,2.9307,2.9307,2.9568,3.0114,3.0643,3.1,3.1203,3.2075,3.2434,3.1972,3.3721,3.5459,3.6999,3.8412,3.991,4.1448,4.2184,4.318,4.4363,4.4363,4.4654,4.5075,4.5075,4.4592,4.3804,4.4199,4.4363,4.4412,4.489,4.5075,4.5166,4.5809,4.6054,4.6137,4.6796,4.6722,4.6295,4.6295,4.6258,4.6524,4.8562,5.032,5.1961,5.399,5.5055,5.5477,5.5244,5.4888,5.4573,5.5093,5.5194,5.5393,5.6151,5.6359,5.6278,5.6105,5.4784,5.3396,5.2645,5.2458,5.2458,5.2458,5.2979,5.3396,5.3595,5.4538,5.5093,5.4819,5.5229,5.5329,5.4819,5.4767,5.4767,5.4767,5.5229,5.5477,5.5477,5.6059,5.6359,5.6359,5.6359,5.6359,5.6359,5.6359,5.6359,5.6359,5.6359,5.6448,5.6545,5.6545,5.685,1.727,2.1108,2.4535,2.6533,2.8195,2.9594,3.0697,3.1302,3.1611,3.1611,3.1133,3.0197,2.8479,2.8203,2.8108,2.7754,2.7692,2.7817,2.8126,2.8188,2.8188,2.8188,2.8188,2.8372,2.8796,2.9189,2.9482,2.9595,3.0564,3.106,3.0649,3.2156,3.373,3.5378,3.6793,3.8296,3.9962,4.1012,4.1888,4.2677,4.2985,4.3552,4.4316,4.4316,4.3978,4.3368,4.3665,4.3756,4.3808,4.4166,4.4316,4.4382,4.4971,4.5381,4.5645,4.6054,4.6137,4.6013,4.5723,4.5426,4.5408,4.7365,4.8569,4.9835,5.2748,5.3705,5.3966,5.461,5.4248,5.3801,5.4159,5.4269,5.4485,5.5264,5.5449,5.5449,5.5449,5.4193,5.2919,5.2458,5.211,5.1883,5.1883,5.2238,5.2645,5.2979,5.3767,5.4269,5.4228,5.452,5.4626,5.4283,5.4228,5.4228,5.4228,5.4573,5.4888,5.5194,5.5574,5.6013,5.6359,5.6359,5.6359,5.6359,5.6359,5.6359,5.6359,5.6359,5.6359,5.6359,5.6359,5.6501,1.6486,1.9998,2.3555,2.5837,2.773,2.9335,3.0223,3.0199,2.9998,2.9998,2.8866,2.7629,2.6957,2.6829,2.6829,2.6829,2.6764,2.6867,2.754,2.7665,2.7665,2.7665,2.7817,2.7879,2.8003,2.8003,2.8065,2.8188,2.8796,2.9182,2.9182,2.9971,3.1348,3.3411,3.4615,3.6295,3.8543,3.981,4.0458,4.0458,4.1385,4.2306,4.317,4.2994,4.3027,4.317,4.328,4.3368,4.3368,4.3368,4.3368,4.3422,4.3929,4.4461,4.4983,4.5075,4.5426,4.5723,4.5166,4.489,4.5083,4.6528,4.716,4.8028,5.1513,5.2299,5.2194,5.3705,5.3513,5.2952,5.3073,5.3073,5.3219,5.4027,5.4061,5.3949,5.3949,5.343,5.2891,5.2891,5.2365,5.1883,5.1883,5.1883,5.211,5.283,5.3013,5.3312,5.3801,5.4005,5.4061,5.3949,5.3949,5.3949,5.3949,5.4005,5.4303,5.4905,5.5144,5.5526,5.6187,5.6278,5.6359,5.6359,5.6359,5.6359,5.6359,5.6359,5.6359,5.6359,5.6359,5.6359,1.9797,2.0284,2.0248,2.4074,2.5944,2.7116,2.8343,2.8588,2.8561,2.8561,2.7225,2.603,2.5897,2.5897,2.5897,2.5897,2.527,2.484,2.4952,2.4952,2.4952,2.4952,2.5648,2.64,2.7149,2.7213,2.7504,2.8126,2.8311,2.8372,2.8372,2.8555,2.9589,3.1676,3.2191,3.3818,3.6757,3.7935,3.8554,3.8592,4.0236,4.1416,4.2217,4.1347,4.1438,4.2217,4.3027,4.3368,4.3368,4.3368,4.3368,4.3422,4.3929,4.4215,4.4363,4.489,4.4843,4.4427,4.4363,4.4014,4.3732,4.4452,4.565,4.7194,4.9479,5.0609,5.1418,5.2873,5.2707,5.2238,5.2858,5.3073,5.3219,5.4027,5.3219,5.2302,5.2302,5.2174,5.211,5.211,5.2014,5.1883,5.1883,5.1883,5.1949,5.2045,5.2645,5.2891,5.2365,5.2891,5.3013,5.2332,5.2302,5.2302,5.2302,5.2891,5.3338,5.3455,5.4538,5.5244,5.5393,5.6059,5.6359,5.6359,5.6359,5.6359,5.6359,5.6359,5.6359,5.6359,5.6359,5.6359,1.6785,1.7841,1.8513,2.2085,2.5137,2.743,2.8054,2.7879,2.7227,2.6,2.4962,2.4383,2.4863,2.4589,2.4245,2.4245,2.3874,2.3594,2.3594,2.3594,2.3594,2.3594,2.3944,2.4429,2.486,2.5357,2.5757,2.6103,2.7034,2.7566,2.7566,2.8003,2.8642,2.9646,3.0966,3.2362,3.3925,3.5717,3.6539,3.664,3.7983,3.8774,3.9115,3.8656,3.8893,3.98,4.0801,4.1261,4.129,4.2274,4.2625,4.2681,4.2886,4.3499,4.4065,4.3675,4.3778,4.4065,4.3808,4.3539,4.3389,4.3612,4.4236,4.5316,4.7414,4.8582,4.958,5.1466,5.1892,5.2014,5.2365,5.2491,5.2554,5.2952,5.2491,5.1883,5.1883,5.1883,5.1883,5.1883,5.1883,5.1883,5.1883,5.1883,5.1883,5.1883,5.2238,5.2365,5.1949,5.2238,5.2302,5.1949,5.1883,5.1883,5.1883,5.2238,5.2645,5.3073,5.371,5.4431,5.5159,5.5229,5.5414,5.5754,5.5754,5.5931,5.6359,5.6359,5.6359,5.6359,5.6359,5.6359,1.343,1.53,1.7063,2.0028,2.3492,2.6255,2.6778,2.649,2.5569,2.3406,2.2936,2.3007,2.3246,2.3056,2.2887,2.2651,2.2579,2.2601,2.2601,2.2601,2.2601,2.2601,2.2815,2.2958,2.2958,2.3594,2.4036,2.4036,2.5491,2.6415,2.6415,2.7187,2.7754,2.7941,3.0001,3.1261,3.1678,3.379,3.4886,3.486,3.577,3.6087,3.5966,3.5966,3.6372,3.7192,3.8424,3.9049,3.9408,4.0833,4.1565,4.1716,4.1716,4.2406,4.3274,4.2152,4.2575,4.3604,4.3017,4.3059,4.3313,4.3115,4.317,4.374,4.5751,4.6766,4.7689,5.0006,5.1037,5.1489,5.1818,5.1883,5.1883,5.1883,5.1883,5.1883,5.1883,5.1883,5.1883,5.1883,5.1883,5.1883,5.1883,5.1883,5.1883,5.1883,5.1883,5.1883,5.1883,5.1883,5.1883,5.1883,5.1883,5.1883,5.1883,5.1883,5.2174,5.2769,5.2952,5.3537,5.4697,5.4248,5.4303,5.4991,5.4991,5.5279,5.5919,5.6059,5.6105,5.6105,5.6278,5.6359,1.4012,1.4675,1.5163,1.8189,1.9191,2.004,2.2243,2.3022,2.2914,2.1691,2.2219,2.2321,2.0429,2.1608,2.2558,2.1515,2.1431,2.1545,2.1545,2.1545,2.1545,2.1545,2.2364,2.2958,2.2958,2.3029,2.3029,2.3029,2.4014,2.4566,2.4566,2.5429,2.6269,2.7085,2.8462,3.0027,3.1678,3.3035,3.3812,3.3812,3.4782,3.4782,3.3866,3.3866,3.4418,3.5332,3.705,3.8424,3.9277,3.9473,4.0081,4.0927,4.0927,4.0989,4.1081,4.0989,4.1477,4.2068,4.1295,4.2048,4.3225,4.2364,4.2681,4.3631,4.5158,4.5628,4.6228,4.9052,4.994,5.0272,5.1555,5.1883,5.1883,5.1883,5.1883,5.1883,5.1883,5.1883,5.1883,5.1883,5.1883,5.1883,5.1883,5.1883,5.1883,5.1883,5.1883,5.1883,5.1883,5.1883,5.1883,5.1883,5.1883,5.1883,5.1883,5.1883,5.1949,5.2014,5.2645,5.31,5.3279,5.3219,5.3513,5.4338,5.4338,5.4358,5.4446,5.5042,5.5294,5.5343,5.6059,5.6359,0.8109,1.06,1.2547,1.3611,1.5903,1.8456,2.0213,1.815,1.6233,1.7692,1.7992,1.7897,1.7551,1.8476,1.8861,1.7544,1.8079,1.8927,1.9554,1.963,1.9857,2.0476,2.0923,2.1219,2.1219,2.1638,2.2002,2.2002,2.2936,2.3454,2.3454,2.3804,2.4222,2.4519,2.6825,2.842,2.9095,3.1504,3.2729,3.2729,3.3112,3.3112,3.2729,3.2729,3.2924,3.3254,3.4026,3.4904,3.5985,3.7814,3.8766,3.9228,3.9816,4.0362,4.074,4.0203,4.0521,4.1234,4.0958,4.1266,4.1839,4.1984,4.2249,4.2722,4.3825,4.4814,4.5899,4.7905,4.9089,5.0108,5.1522,5.1883,5.1883,5.1883,5.1883,5.1883,5.1883,5.1883,5.1883,5.1883,5.1883,5.1883,5.1883,5.1883,5.1883,5.1883,5.1883,5.1883,5.1883,5.1883,5.1883,5.1883,5.1883,5.1883,5.1883,5.1883,5.1883,5.1883,5.2174,5.2365,5.2365,5.2365,5.2707,5.3513,5.3513,5.3744,5.4228,5.4466,5.4626,5.4626,5.4923,5.5314,0.3422,0.6561,0.9202,0.9679,1.2168,1.4937,1.6534,1.3632,1.1453,1.4474,1.462,1.4226,1.4315,1.5397,1.5859,1.4758,1.6029,1.749,1.8333,1.8448,1.877,1.949,1.9569,1.9746,2.016,2.0522,2.0883,2.1281,2.2003,2.2436,2.2436,2.2744,2.2958,2.2958,2.5533,2.686,2.686,2.9638,3.1225,3.1564,3.1564,3.1395,3.1055,3.1055,3.1055,3.1055,3.1055,3.1684,3.2874,3.5235,3.6601,3.7264,3.7901,3.8592,3.9065,3.8456,3.8961,3.998,3.972,4.0139,4.0865,4.1142,4.1565,4.21,4.277,4.3656,4.4791,4.6498,4.7882,4.9136,5.0833,5.1587,5.1883,5.1883,5.1686,5.1454,5.1454,5.1253,5.1085,5.1085,5.1085,5.1085,5.1085,5.1085,5.1085,5.1085,5.1085,5.1153,5.1454,5.1454,5.162,5.1883,5.1883,5.1883,5.1883,5.1883,5.1883,5.1883,5.1883,5.1883,5.1883,5.1883,5.2174,5.2707,5.2707,5.3013,5.3513,5.3744,5.3892,5.3858,5.4117,5.45,0.1705,0.3217,0.5043,0.7112,0.7624,0.816,1.0152,0.9975,1.0035,1.2562,1.3026,1.2432,1.0344,1.261,1.464,1.4109,1.6066,1.7876,1.8379,1.8473,1.8473,1.8473,1.8473,1.9005,2.0426,1.9817,1.9792,2.1105,2.1325,2.1419,2.1419,2.2364,2.2958,2.2958,2.4716,2.5696,2.5696,2.7612,2.919,3.0386,3.0386,2.9693,2.8592,2.8592,2.8592,2.8592,2.8592,2.9256,3.0472,3.1527,3.3228,3.5168,3.5271,3.5245,3.5271,3.5245,3.6466,3.8,3.7061,3.8554,4.0678,3.975,4.0616,4.1952,4.2042,4.2042,4.2538,4.4816,4.5955,4.7007,4.923,5.0831,5.1883,5.1883,5.1185,5.0565,5.0565,4.9718,4.9025,4.9025,4.9025,4.9025,4.9025,4.9025,4.9025,4.9025,4.9025,4.9395,5.0393,5.0565,5.0912,5.1818,5.1883,5.1883,5.1883,5.1883,5.1883,5.1883,5.1883,5.1883,5.1883,5.1883,5.1883,5.1883,5.1883,5.1949,5.1949,5.2707,5.3073,5.3133,5.3858,5.4228,-0.2174,-0.0089,0.1791,0.2266,0.4008,0.5407,0.4642,0.4287,0.4534,0.5981,0.6994,0.7925,0.8569,1.1,1.2792,1.2356,1.4091,1.5857,1.6765,1.7164,1.7699,1.84,1.8489,1.8667,1.911,1.89,1.9004,1.9845,1.9883,2.0053,2.044,2.1251,2.1721,2.1721,2.4215,2.55,2.55,2.759,2.8748,2.9102,2.8281,2.8102,2.857,2.857,2.857,2.857,2.857,2.8748,2.919,2.9519,3.0913,3.3067,3.4627,3.5195,3.5195,3.5195,3.5549,3.6123,3.6549,3.735,3.814,3.9125,3.9816,4.049,4.1656,4.1596,4.1639,4.3888,4.543,4.6429,4.6419,4.753,4.88,4.9681,4.9687,4.9469,4.9469,4.9248,4.9025,4.9025,4.9025,4.9025,4.9025,4.9025,4.9025,4.9025,4.9025,4.91,4.9395,5.0078,5.0635,5.0912,5.1521,5.1883,5.1883,5.1883,5.1883,5.1883,5.0641,5.022,5.0981,5.0981,5.1253,5.1883,5.1883,5.1883,5.1883,5.2174,5.2302,5.2302,5.2521,5.2952,-0.4591,-0.2744,-0.1207,-0.0479,0.0479,0.1097,0.041,0.0728,0.135,0.2252,0.3364,0.4718,0.626,0.8402,0.9946,0.9905,1.1484,1.315,1.4573,1.5439,1.6302,1.7073,1.7602,1.8167,1.8621,1.8409,1.8618,1.9406,1.9123,1.9359,2.0204,2.0744,2.1185,2.1678,2.368,2.4845,2.4845,2.6446,2.6743,2.5742,2.6026,2.6231,2.6427,2.7038,2.7262,2.7262,2.7262,2.7513,2.7944,2.7944,2.897,3.0767,3.2144,3.2961,3.3389,3.384,3.4261,3.4731,3.5348,3.6104,3.6944,3.8029,3.8923,3.9685,4.0678,4.0709,4.0643,4.2364,4.3752,4.4653,4.4439,4.5692,4.7415,4.8683,4.8725,4.8422,4.8422,4.8114,4.7773,4.7773,4.7773,4.7773,4.7773,4.7773,4.7773,4.7773,4.7773,4.7959,4.8314,4.8951,4.9469,4.9935,5.0811,5.142,5.142,5.142,5.1253,5.0848,4.9687,4.9248,4.9935,4.9935,5.0393,5.1387,5.142,5.1521,5.1883,5.1883,5.1883,5.1883,5.1883,5.2174,-0.5843,-0.4927,-0.3985,-0.1788,-0.271,-0.3874,-0.2516,-0.1173,0.0055,0.0922,0.1715,0.2533,0.3422,0.5065,0.6572,0.7482,0.8595,1.0062,1.2076,1.3447,1.4438,1.4784,1.5999,1.7254,1.8458,1.7965,1.808,1.9319,1.873,1.8892,2.0269,2.0495,2.1139,2.2295,2.3121,2.3481,2.3481,2.4453,2.3612,2.1019,2.3516,2.4109,2.2965,2.4222,2.483,2.4925,2.483,2.5433,2.658,2.658,2.7311,2.8481,2.8481,2.9168,3.03,3.1479,3.2646,3.3491,3.3652,3.4886,3.6503,3.6577,3.7748,3.9192,3.9325,3.9355,3.9457,4.0425,4.1053,4.1576,4.2735,4.4863,4.6941,4.823,4.7868,4.725,4.733,4.647,4.578,4.5864,4.5864,4.5864,4.5864,4.5864,4.5864,4.5864,4.5864,4.6252,4.717,4.7409,4.7803,4.8801,4.9791,5.0393,5.0393,5.0393,4.9935,4.8876,4.877,4.877,4.8876,4.8876,4.9322,5.0393,5.0495,5.0981,5.1818,5.1883,5.1883,5.1883,5.1883,5.1883,-0.7704,-0.7197,-0.6572,-0.5637,-0.4519,-0.361,-0.3244,-0.2526,-0.1868,-0.1642,-0.1134,-0.0398,0.0691,0.3047,0.5834,0.9069,0.878,0.8928,1.1113,1.1323,1.1694,1.2913,1.3317,1.3759,1.4219,1.4153,1.4321,1.4974,1.5902,1.6677,1.746,1.905,2.012,2.0488,2.1187,2.1666,2.1666,2.2799,2.2596,2.1019,2.1624,2.2306,2.2869,2.2306,2.25,2.3385,2.2403,2.2676,2.3809,2.3809,2.5242,2.722,2.722,2.7944,2.9102,3.0323,3.1455,3.2564,3.333,3.3945,3.4497,3.5271,3.5852,3.6466,3.7971,3.7959,3.7677,3.9325,3.8344,3.7068,3.8262,4.0384,4.2409,4.3761,4.4496,4.5129,4.6086,4.5328,4.4813,4.5696,4.5864,4.5864,4.5864,4.5864,4.5864,4.5864,4.5864,4.5948,4.6169,4.6959,4.7567,4.7773,4.8725,4.9322,4.9322,4.9322,4.8543,4.6715,4.6634,4.6959,4.7803,4.7803,4.8268,4.9322,5.011,5.0603,5.0811,5.1521,5.1883,5.1883,5.1883,5.1883,-0.886,-0.7962,-0.7342,-0.778,-0.6451,-0.503,-0.503,-0.4377,-0.3768,-0.3797,-0.3143,-0.2202,-0.1007,0.0455,0.2342,0.496,0.4848,0.5152,0.7469,0.8711,0.9414,0.9617,1.138,1.2456,1.1859,1.2462,1.2908,1.3251,1.394,1.4806,1.5639,1.7504,1.8772,1.9353,2.042,2.1019,2.1019,2.0479,1.9801,1.9177,2.0443,2.1019,2.1117,2.1019,2.1411,2.1997,2.1313,2.1411,2.2094,2.2094,2.2851,2.4188,2.4773,2.5781,2.6976,2.826,2.978,3.1455,3.2539,3.3193,3.3732,3.4261,3.4809,3.5397,3.6494,3.642,3.6226,3.7192,3.6392,3.5436,3.6804,3.8426,4.007,4.1367,4.2493,4.3409,4.403,4.3676,4.3615,4.4813,4.51,4.51,4.51,4.51,4.4871,4.4293,4.4206,4.4409,4.4985,4.5554,4.6111,4.6634,4.7646,4.8268,4.8268,4.8268,4.7803,4.6634,4.6199,4.6086,4.6715,4.6715,4.717,4.8238,4.8876,4.9322,4.9863,5.0811,5.1253,5.1253,5.1686,5.1883,-0.9494,-0.8246,-0.7489,-0.8798,-0.8076,-0.7035,-0.7035,-0.623,-0.5494,-0.5494,-0.456,-0.346,-0.2471,-0.2015,-0.1572,-0.0975,-0.0069,0.124,0.331,0.5662,0.6895,0.6107,0.9251,1.0992,0.9789,1.0992,1.1839,1.1839,1.227,1.2987,1.4061,1.5528,1.6742,1.7916,1.9075,1.9702,1.9702,1.7479,1.641,1.6806,1.9047,1.9747,1.9076,1.9946,2.0542,2.0739,2.0443,2.0526,2.0739,2.0739,2.0838,2.1117,2.2192,2.3331,2.4453,2.5986,2.779,2.9648,3.1032,3.2101,3.2899,3.3249,3.3866,3.4522,3.486,3.4964,3.4886,3.4731,3.4731,3.4943,3.6084,3.7417,3.8697,3.9825,4.1055,4.1924,4.2175,4.2017,4.2293,4.3554,4.3849,4.3849,4.3849,4.3849,4.3436,4.2385,4.2175,4.2568,4.3643,4.4026,4.4465,4.5527,4.6552,4.717,4.717,4.717,4.717,4.717,4.6335,4.5864,4.5864,4.5864,4.6252,4.717,4.733,4.7851,4.8725,4.9791,5.0393,5.0565,5.132,5.1752,-0.9853,-0.9277,-0.8821,-0.9066,-0.8643,-0.8131,-0.8131,-0.7318,-0.6546,-0.6546,-0.5733,-0.4944,-0.4734,-0.3085,-0.2042,-0.291,-0.062,0.1471,0.2264,0.257,0.3084,0.4165,0.4861,0.5237,0.525,0.6574,0.7351,0.7351,0.9596,1.1091,1.1285,1.2672,1.3521,1.3719,1.3928,1.4032,1.4032,1.3625,1.4054,1.5324,1.5714,1.7036,1.8976,1.8095,1.8297,1.9277,1.8196,1.8297,1.9363,1.9363,1.9962,2.1019,2.1215,2.1411,2.1883,2.4264,2.539,2.6019,2.8349,2.919,2.9693,3.1648,3.1767,3.1444,3.3305,3.3891,3.3732,3.2811,3.2564,3.2614,3.2762,3.5108,3.7389,3.7632,3.9227,4.0945,4.2017,4.1391,4.104,4.2202,4.2477,4.2477,4.2477,4.2477,4.2385,4.2202,4.2175,4.2293,4.2477,4.3436,4.4202,4.4378,4.5413,4.6086,4.6086,4.6086,4.6086,4.6086,4.5948,4.5864,4.5864,4.5864,4.5948,4.6086,4.6959,4.7488,4.7646,4.8725,4.9718,5.0565,5.0673,5.1185,-1.0397,-0.9966,-0.9511,-0.9186,-0.8954,-0.8682,-0.8424,-0.7972,-0.7573,-0.7291,-0.6641,-0.5982,-0.5714,-0.4544,-0.3729,-0.4061,-0.2663,-0.1337,-0.0997,0.0329,0.1365,0.1704,0.3148,0.3813,0.3168,0.4395,0.5307,0.5307,0.7244,0.8423,0.8423,1.0447,1.1628,1.1628,1.2376,1.205,1.0537,1.1302,1.2376,1.3855,1.3855,1.4459,1.569,1.5829,1.6254,1.6845,1.6999,1.7408,1.8007,1.8007,1.8399,1.8976,1.9663,1.9946,2.0145,2.2061,2.3677,2.4998,2.6223,2.7451,2.8748,2.9803,3.0237,3.0558,3.1552,3.1802,3.1743,3.1262,3.1093,3.1286,3.1924,3.3189,3.4637,3.5867,3.7355,3.8872,3.9955,3.972,3.9745,4.104,4.1229,4.1229,4.1229,4.1229,4.1014,4.025,4.0154,4.0442,4.1135,4.1792,4.2649,4.4026,4.4639,4.5186,4.578,4.467,4.3854,4.3854,4.3854,4.3854,4.3854,4.4524,4.4899,4.4899,4.6057,4.6582,4.6552,4.7646,4.8391,4.8876,4.9395,5.022,-1.1546,0.0,-1.099,-1.0864,-1.0357,-0.9725,0.0,-0.8798,-0.8384,-0.7723,-0.7265,-0.6804,-0.6295,-0.5797,-0.531,-0.5052,-0.4534,-0.4045,-0.3646,-0.1694,-0.044,-0.0728,0.141,0.2441,0.1345,0.2766,0.3794,0.3794,0.5203,0.6066,0.5958,0.7988,0.9163,0.9163,1.0227,0.9794,0.7537,0.8617,1.012,1.183,1.183,1.2156,1.2912,1.396,1.4481,1.4597,1.5957,1.6382,1.6175,1.6485,1.6588,1.6691,1.7674,1.827,1.8789,2.0046,2.1769,2.3582,2.4264,2.5854,2.7743,2.7785,2.857,2.9496,2.9867,2.9954,2.9954,2.9954,2.9954,3.0127,3.1055,3.135,3.1988,3.3939,3.5289,3.6338,3.7741,3.7958,3.836,3.9745,3.994,3.994,3.994,3.994,3.9647,3.8685,3.8485,3.8884,3.9842,4.023,4.1161,4.3014,4.3464,4.4058,4.4957,4.3292,4.2175,4.2175,4.2175,4.2175,4.2175,4.314,4.3643,4.3643,4.4813,4.5442,4.5442,4.6552,4.717,4.7409,4.8238,4.9174,0.0,-1.4264,-1.4485,-1.5574,-1.3892,-1.1893,-1.1361,-1.0102,0.0,-0.7788,-0.7562,-0.736,-0.6843,-0.6307,-0.5975,-0.5925,-0.5511,-0.4861,-0.3965,-0.3672,-0.3401,-0.292,-0.1941,-0.1349,-0.1449,0.0852,0.2281,0.2281,0.358,0.4443,0.4443,0.4659,0.4767,0.4767,0.4875,0.4767,0.4551,0.4659,0.6155,0.8816,0.8816,1.0211,1.2807,1.2912,1.3017,1.3017,1.4492,1.4377,1.3227,1.4597,1.5117,1.5117,1.5209,1.606,1.7408,1.8688,1.9262,1.9847,2.2272,2.398,2.513,2.5264,2.6086,2.7311,2.8392,2.8659,2.8659,2.8659,2.8659,2.8748,2.8837,2.9562,3.0529,3.1518,3.2585,3.384,3.6067,3.6482,3.6893,3.8385,3.8585,3.8585,3.8585,3.8585,3.8585,3.8485,3.8485,3.8485,3.8585,3.9647,4.0519,4.0711,4.1672,4.2385,4.245,4.2267,4.2175,4.2175,4.2175,4.2175,4.2175,4.2293,4.2293,4.2293,4.3615,4.4202,4.423,4.5413,4.65,4.7409,4.7488,4.8084,-1.6234,-1.6644,-1.6734,-1.7191,-1.5298,-1.3288,-1.3114,-1.1019,-0.8915,-0.8226,-0.7788,-0.74,-0.6897,-0.665,-0.639,-0.6088,-0.6268,-0.623,-0.5563,-0.5723,-0.5657,-0.5034,-0.3931,-0.3302,-0.3302,-0.2476,-0.1518,-0.0543,0.0758,0.195,0.293,0.3794,0.3472,0.163,0.2496,0.293,0.293,0.3797,0.4871,0.594,0.6804,0.7881,0.9063,1.0773,1.1514,1.1628,1.3007,1.3332,0.0,1.3437,1.3646,1.3646,1.3646,1.396,1.4481,1.4978,1.6282,1.7911,1.8875,2.1134,2.3713,2.3768,2.4035,2.4755,2.6834,2.5762,2.4227,2.5835,2.6315,2.6611,2.8192,2.829,2.8526,3.0218,3.139,3.2451,3.4031,3.4701,3.5418,3.6893,3.7122,3.7428,3.8284,3.8485,3.8485,3.8485,3.8485,3.8485,3.8485,3.8884,3.9574,4.0327,4.0876,4.0755,3.996,3.9889,3.9889,3.9889,3.9889,3.9889,3.9889,4.0659,4.1135,4.1135,4.232,4.3347,4.4114,4.4581,4.5328,4.647,4.647,4.7039,-1.9079,-1.9377,-1.9416,-1.9798,-1.7662,-1.53,-1.4648,-1.2212,-0.9743,-0.8376,-0.7948,-0.7602,-0.6938,-0.6815,-0.6691,-0.6349,-0.6802,-0.7033,-0.6471,-0.6849,-0.6896,-0.6413,-0.5629,-0.5043,-0.4895,-0.4527,-0.3905,-0.293,-0.195,-0.0758,0.076,0.1734,0.1193,-0.1305,0.0,0.076,0.076,0.2171,0.3147,0.358,0.4554,0.5634,0.6609,0.853,0.9604,1.0144,1.1522,1.1954,1.1531,1.1954,1.2156,1.2156,1.2156,1.2376,1.2807,1.2807,1.4032,1.5757,1.6564,1.8775,2.1167,2.2078,2.2289,2.2659,2.4472,2.2834,2.0822,2.3008,2.398,2.4642,2.6335,2.658,2.675,2.8477,2.9588,3.061,3.2051,3.2991,3.3955,3.544,3.6067,3.6688,3.7655,3.8184,3.8485,3.8485,3.8485,3.8485,3.8485,3.8485,3.8884,3.9745,3.9842,3.9451,3.8585,3.8485,3.8485,3.8485,3.8485,3.8485,3.8485,3.9353,3.9842,3.9842,4.104,4.2044,4.2923,4.376,4.4552,4.5357,4.5696,4.6252,-2.1963,-2.2549,-2.2818,-2.3867,-2.1379,-1.8157,-1.6023,-1.3821,-1.1366,-0.8231,-0.7988,-0.8028,-0.7007,-0.6815,-0.6815,-0.6828,-0.7051,-0.7043,-0.6519,-0.6832,-0.7078,-0.7026,-0.7055,-0.6762,-0.613,-0.4998,-0.4338,-0.4338,-0.4338,-0.3689,-0.2281,-0.2173,-0.2822,-0.4227,-0.293,-0.2173,-0.2173,-0.0762,0.0653,0.2064,0.2173,0.358,0.6389,0.6389,0.7255,0.8777,1.0037,0.9931,0.8783,1.0144,1.0667,1.0667,1.0667,1.1522,1.2807,1.2807,1.2807,1.3217,1.595,1.687,1.7378,2.0114,2.0921,2.0921,2.0921,2.0046,1.9277,2.0625,2.19,2.2869,2.2869,2.3995,2.5247,2.6063,2.688,2.8094,3.0348,3.1496,3.2478,3.3955,3.5335,3.6275,3.6378,3.7529,3.8485,3.8485,3.8485,3.8485,3.8485,3.8485,3.8485,3.8485,3.8485,3.8485,3.8485,3.8485,3.8485,3.8485,3.8485,3.8485,3.8485,3.8485,3.8485,3.8485,3.9745,4.0423,4.0423,4.2923,4.4114,4.4114,4.5357,4.5864,-2.434,-2.473,-2.4649,-2.4343,-2.2055,-1.9236,-1.6795,-1.3965,-1.1257,-0.9108,-0.8486,-0.8266,-0.7948,-0.7602,-0.7513,-0.7947,-0.8401,-0.8774,-0.9132,-1.0594,-1.1047,-0.9555,-1.0007,-0.9886,-0.8077,-0.765,-0.704,-0.5963,-0.585,-0.5203,-0.3689,-0.4551,-0.4875,-0.4335,-0.3905,-0.3147,-0.2173,-0.174,-0.0761,0.0653,0.163,0.2605,0.3472,0.4443,0.5203,0.5634,0.7029,0.7464,0.7255,0.8656,0.9305,0.9305,0.9305,0.9626,0.9946,0.9946,1.0577,1.1408,1.2224,1.4497,1.7073,1.7884,1.8818,1.9248,1.7329,1.7165,1.7803,1.8196,1.9177,2.0244,2.0244,2.1917,2.3858,2.5131,2.6462,2.7648,2.8295,2.9583,3.0948,3.2478,3.3004,3.3632,3.4702,3.6067,3.7019,3.7019,3.7857,3.8485,3.8485,3.8485,3.8485,3.8485,3.7553,3.7428,3.8385,3.8485,3.8485,3.8485,3.8485,3.8485,3.8485,3.8485,3.8485,3.8485,3.8884,3.9549,4.0423,4.1161,4.2374,4.4114,4.4465,4.5071,-2.5363,-2.5655,-2.552,-2.4955,-2.3351,-2.1112,-1.8205,-1.5425,-1.2781,-1.0225,-0.9137,-0.8604,-0.8424,-0.8405,-0.8526,-0.883,-0.9629,-1.0271,-1.0593,-1.1963,-1.25,-1.1286,-1.1239,-1.0888,-0.9589,-0.9098,-0.8347,-0.7476,-0.7368,-0.6932,-0.6066,-0.6825,-0.6932,-0.6066,-0.5527,-0.4771,-0.3797,-0.3255,-0.2605,-0.1738,-0.0217,0.076,0.1301,0.282,0.3689,0.4338,0.5203,0.5527,0.5634,0.7261,0.7911,0.7911,0.8455,0.8783,0.8783,0.8783,0.9198,1.0037,1.0561,1.2329,1.4497,1.5139,1.6295,1.7151,1.5416,1.5957,1.7114,1.7114,1.7701,1.8399,1.8875,2.0244,2.1705,2.3132,2.5018,2.651,2.6615,2.7885,2.9482,3.0929,3.1727,3.2369,3.3221,3.4573,3.5545,3.5545,3.6275,3.6791,3.6791,3.6791,3.7019,3.7529,3.6378,3.6067,3.7529,3.7655,3.7857,3.8485,3.8485,3.8485,3.8485,3.8485,3.8485,3.8485,3.8485,3.8884,3.9647,4.0134,4.1161,4.2649,4.3167,4.397,-2.5387,-2.5655,-2.5655,-2.5588,-2.4794,-2.3214,-1.9702,-1.7643,-1.5343,-1.1453,-1.0029,-0.9278,-0.8801,-0.9365,-0.9807,-0.9604,-1.0724,-1.1551,-1.135,-1.1932,-1.2465,-1.2608,-1.149,-1.0735,-1.0846,-0.9832,-0.9098,-0.8884,-0.8884,-0.8884,-0.8783,-0.8783,-0.8783,-0.8783,-0.7476,-0.6717,-0.6389,-0.5095,-0.4443,-0.4227,-0.293,-0.1626,-0.0108,0.1193,0.2496,0.3905,0.401,0.4122,0.4227,0.5742,0.6394,0.6604,0.8019,0.8676,0.8783,0.8783,0.8783,0.8884,1.0144,1.0561,1.0879,1.2165,1.3531,1.4585,1.4701,1.5647,1.6806,1.7012,1.7012,1.7204,1.8486,1.8976,1.9363,2.0542,2.2951,2.4995,2.5208,2.6413,2.7859,2.9369,3.0817,3.1707,3.1838,3.3112,3.4062,3.4062,3.4169,3.4169,3.4169,3.4169,3.468,3.5836,3.4786,3.4595,3.6067,3.6171,3.6791,3.8184,3.8284,3.8385,3.8485,3.8485,3.8485,3.8485,3.8485,3.8485,3.8485,3.9647,4.0327,4.0423,4.1485,4.2686,-2.5606,-2.5655,-2.552,-2.4727,-2.4426,-2.3161,-1.8966,-1.766,-1.6356,-1.2757,-1.1853,-1.1695,-1.1604,-1.128,-1.12,-1.154,-1.2127,-1.2694,-1.3028,-1.4409,-1.4984,-1.3929,-1.3893,-1.3532,-1.2472,-1.2165,-1.1531,-1.0356,-1.0242,-0.9824,-0.8777,-0.8783,-0.8783,-0.8783,-0.8455,-0.7697,-0.6609,-0.6281,-0.5527,-0.4227,-0.401,-0.3036,-0.1627,-0.1411,-0.0435,0.0979,0.2064,0.2605,0.2713,0.4122,0.5527,0.6609,0.6825,0.7697,0.8783,0.8783,0.8783,0.8777,0.9098,0.9824,1.0773,1.1091,1.1408,1.183,1.2902,1.3541,1.4169,1.6485,1.6279,1.5738,1.7191,1.8297,1.9076,1.9363,2.1591,2.3553,2.3677,2.4713,2.6213,2.7859,2.8303,2.899,3.0162,3.1596,3.2588,3.2588,3.3524,3.4169,3.4169,3.4169,3.3847,3.3112,3.2676,3.3112,3.4573,3.4702,3.5313,3.6688,3.6814,3.7326,3.8485,3.8485,3.8485,3.8485,3.8485,3.8485,3.8485,3.8784,3.9451,4.0423,4.0685,4.1391,-2.5159,-2.5023,-2.4795,-2.3874,-2.3665,-2.2802,-1.9655,-1.8568,-1.7361,-1.4264,-1.3364,-1.2965,-1.2529,-1.2412,-1.2577,-1.3004,-1.3498,-1.4015,-1.4839,-1.5699,-1.6178,-1.5621,-1.5172,-1.4701,-1.396,-1.3227,-1.227,-1.0773,-1.0667,-1.0144,-0.8783,-0.8783,-0.8783,-0.8783,-0.8783,-0.8347,-0.7691,-0.7583,-0.7261,-0.6389,-0.5634,-0.4875,-0.4122,-0.3472,-0.2713,-0.1956,-0.0543,0.0109,0.0217,0.2386,0.3689,0.4554,0.585,0.6932,0.7804,0.8455,0.8783,0.8783,0.8783,0.9198,0.9725,0.9725,1.0144,1.0879,1.1628,1.227,1.3122,1.4597,1.5013,1.5117,1.5853,1.7075,1.8297,1.889,1.9688,2.0543,2.1694,2.3119,2.4559,2.6213,2.7147,2.7842,2.8665,3.0049,3.106,3.106,3.1707,3.2108,3.2108,3.2108,3.1908,3.1171,3.106,3.1596,3.3112,3.3221,3.3847,3.523,3.594,3.6688,3.7451,3.8083,3.8485,3.8485,3.8485,3.8485,3.8485,3.8485,3.8884,3.9451,3.9451,4.0205,-2.4684,-2.436,-2.4129,-2.3512,-2.3303,-2.2766,-2.1056,-2.0099,-1.888,-1.6386,-1.5122,-1.4254,-1.35,-1.3564,-1.3871,-1.428,-1.477,-1.5415,-1.6301,-1.6496,-1.6675,-1.7049,-1.6072,-1.5324,-1.5324,-1.4273,-1.2902,-1.1196,-1.1302,-1.0887,-0.9519,-0.9205,-0.9098,-0.9098,-0.8884,-0.8783,-0.8783,-0.8783,-0.8783,-0.8783,-0.7476,-0.6717,-0.6389,-0.5203,-0.4551,-0.4227,-0.3039,-0.239,-0.1956,0.0434,0.1737,0.239,0.4771,0.585,0.6394,0.7589,0.8126,0.8347,0.8347,0.8562,0.8783,0.8783,0.9519,1.0348,1.0667,1.1311,1.2165,1.2701,1.3541,1.4273,1.4481,1.5647,1.6999,1.8067,1.7688,1.7726,1.9966,2.1362,2.274,2.4513,2.586,2.6914,2.7495,2.8665,2.9615,2.9842,2.9955,2.9955,2.9955,2.9955,2.9955,2.9955,2.9955,3.0407,3.1616,3.1727,3.2369,3.374,3.4891,3.5836,3.6378,3.7529,3.8284,3.8485,3.8485,3.8485,3.8485,3.8485,3.8485,3.8485,3.8485,3.9082,-2.5123,-2.4819,-2.4429,-2.5015,-2.4653,-2.3831,-2.28,-2.2456,-2.1916,-2.0067,-1.8368,-1.7112,-1.7026,-1.5874,-1.51,-1.5584,-1.6242,-1.6668,-1.6819,-1.7328,-1.7532,-1.7151,-1.6909,-1.6806,-1.6806,-1.6691,-1.5428,-1.2692,-1.374,-1.374,-1.2385,-1.1099,-1.0455,-1.0455,-0.9305,-0.8783,-0.8783,-0.8783,-0.8783,-0.8783,-0.8562,-0.7691,-0.6389,-0.6174,-0.5414,-0.4227,-0.4122,-0.3255,-0.2064,-0.1738,-0.0109,0.2173,0.2605,0.3472,0.4662,0.4771,0.5634,0.6717,0.6825,0.7697,0.8783,0.8783,0.8884,0.9198,1.0348,1.0045,0.9732,1.2174,1.205,1.1514,1.2797,1.4169,1.5324,1.5519,1.6369,1.7426,1.8791,1.9272,2.013,2.2784,2.3469,2.4425,2.7147,2.7744,2.8435,2.9728,2.9955,2.9955,2.9955,2.9955,2.9955,2.9955,2.9955,3.0068,3.0181,3.0181,3.0836,3.2259,3.2588,3.374,3.6275,3.6482,3.7224,3.8485,3.8485,3.8485,3.8485,3.8485,3.8485,3.8485,3.8485,3.8585,-2.4708,-2.4567,-2.4405,-2.4807,-2.424,-2.3272,-2.2321,-2.2073,-2.1538,-1.982,-1.842,-1.7568,-1.7568,-1.6859,-1.6337,-1.6677,-1.7284,-1.7573,-1.7075,-1.7262,-1.7319,-1.7088,-1.7114,-1.7114,-1.7114,-1.7114,-1.6279,-1.4169,-1.4597,-1.4377,-1.2912,-1.227,-1.1839,-1.1839,-1.0569,-0.9824,-0.9824,-0.9091,-0.8783,-0.8783,-0.8783,-0.8347,-0.7691,-0.7691,-0.7368,-0.6717,-0.585,-0.5095,-0.4443,-0.3689,-0.2169,-0.0217,0.0651,0.1843,0.3147,0.401,0.5203,0.6389,0.6609,0.6932,0.7476,0.7476,0.8019,0.8884,0.9412,0.9198,0.8991,1.0159,1.0569,1.0879,1.1522,1.2692,1.396,1.4805,1.5428,1.647,1.8457,1.8828,1.9382,2.1238,2.2293,2.3349,2.4765,2.643,2.7859,2.855,2.9369,2.9615,2.8779,2.9369,2.9955,2.9955,2.9955,2.9955,2.9955,2.9955,3.0181,3.0836,3.2348,3.3847,3.5125,3.6688,3.7857,3.8485,3.8485,3.8485,3.8485,3.8485,3.8485,3.8485,3.8485,3.8485,-2.3671,-2.3693,-2.3574,-2.3923,-2.3289,-2.2436,-2.1857,-2.1784,-2.1442,-2.0293,-1.9241,-1.8528,-1.881,-1.8371,-1.7977,-1.7845,-1.8286,-1.8403,-1.7419,-1.7298,-1.725,-1.7101,-1.7114,-1.7114,-1.7114,-1.7114,-1.6691,-1.5647,-1.5531,-1.5013,-1.396,-1.3541,-1.3332,-1.3332,-1.1619,-1.0667,-1.0667,-0.9412,-0.8783,-0.8783,-0.8783,-0.8783,-0.8783,-0.8783,-0.8783,-0.8669,-0.7476,-0.6825,-0.6389,-0.5307,-0.401,-0.2605,-0.1515,-0.0217,0.1194,0.2276,0.3791,0.5311,0.5419,0.5634,0.5958,0.6286,0.7261,0.8234,0.8676,0.8783,0.8783,0.8783,0.9412,1.0144,1.0144,1.1205,1.2692,1.4064,1.4701,1.5569,1.7711,1.8137,1.8515,1.9618,2.0861,2.1794,2.2293,2.4663,2.6547,2.6914,2.8321,2.8912,2.7744,2.8665,2.9482,2.9842,2.9955,2.9955,2.9955,2.9955,2.9955,2.9955,3.1908,3.3416,3.4169,3.6275,3.7756,3.8485,3.8485,3.8485,3.8485,3.8485,3.8485,3.8485,3.8485,3.8485,-2.2172,-2.1982,-2.1586,-2.2545,-2.2168,-2.1711,-2.2672,-2.2887,-2.3054,-2.3654,-2.241,-2.1467,-2.2342,-2.1331,-2.0147,-1.9322,-1.9523,-1.9272,-1.7998,-1.782,-1.7657,-1.7151,-1.7114,-1.7114,-1.7114,-1.7114,-1.7114,-1.7012,-1.7012,-1.7012,-1.6909,-1.5647,-1.4909,-1.4909,-1.2146,-1.0667,-1.0667,-0.9412,-0.8783,-0.8783,-0.8783,-0.8783,-0.8783,-0.8783,-0.8783,-0.8783,-0.8669,-0.7911,-0.6609,-0.6389,-0.5414,-0.4118,-0.4118,-0.3145,-0.1956,-0.1847,0.0,0.239,0.239,0.3255,0.4659,0.6066,0.6609,0.6825,0.8347,0.8783,0.8783,0.8783,0.8777,0.8884,0.8884,0.9832,1.1196,1.2586,1.396,1.5161,1.5915,1.6278,1.6749,1.7538,1.8051,1.8898,2.0393,2.2065,2.3724,2.5168,2.6698,2.7744,2.7628,2.7744,2.8321,2.9728,2.9955,2.9955,2.9955,2.9955,2.9955,2.9955,3.0068,3.1374,3.4062,3.4382,3.5755,3.8385,3.8485,3.8485,3.8485,3.8485,3.8485,3.8485,3.8485,3.8485,-2.2994,-2.3327,-2.3317,-2.4487,-2.4022,-2.3007,-2.2147,-2.193,-2.196,-2.2194,-2.1291,-2.0924,-2.2327,-2.2164,-2.1658,-2.0984,-2.1418,-2.1036,-1.8939,-1.8643,-1.8247,-1.7191,-1.7114,-1.7114,-1.7114,-1.7114,-1.7114,-1.7114,-1.7114,-1.7114,-1.7114,-1.6588,-1.6382,-1.6382,-1.447,-1.3416,-1.3416,-1.206,-1.1328,-1.1328,-1.0471,-0.9628,-0.8953,-0.887,-0.889,-0.8959,-0.8959,-0.8731,-0.8294,-0.8363,-0.7621,-0.6225,-0.6096,-0.515,-0.3801,-0.2517,-0.0867,0.065,-0.0326,0.0976,0.3039,0.358,0.4338,0.5311,0.6932,0.7368,0.7476,0.8455,0.8783,0.8783,0.8783,0.9098,0.9832,1.1099,1.183,1.2894,1.5435,1.546,1.5689,1.8342,1.8417,1.8649,2.0283,2.1117,2.1943,2.3484,2.4187,2.4663,2.4663,2.6313,2.7842,2.8435,2.9369,2.9955,2.9955,2.9955,2.9955,2.9955,3.0836,3.2238,3.4169,3.5125,3.6482,3.8485,3.8485,3.8485,3.8485,3.8485,3.8485,3.8485,3.8485,3.8485,-2.2029,-2.277,-2.3249,-2.4082,-2.4031,-2.3361,-2.1764,-2.1419,-2.1366,-2.1192,-2.0767,-2.0919,-2.2609,-2.2912,-2.2808,-2.2291,-2.2632,-2.2175,-2.0046,-1.9377,-1.8688,-1.7905,-1.7408,-1.7114,-1.7114,-1.7114,-1.7114,-1.7114,-1.7114,-1.7114,-1.7114,-1.7114,-1.7114,-1.7114,-1.575,-1.5093,-1.5264,-1.3874,-1.3197,-1.3453,-1.1777,-1.0711,-1.0042,-0.9394,-0.9078,-0.9269,-0.9269,-0.9269,-0.9282,-0.948,-0.8961,-0.8098,-0.7845,-0.6834,-0.5449,-0.4172,-0.2837,-0.1648,-0.207,-0.0543,0.1522,0.1956,0.2822,0.3797,0.5311,0.6174,0.6717,0.7697,0.8347,0.8783,0.8783,0.8783,0.9098,1.0348,1.0667,1.1371,1.3687,1.3658,1.3976,1.6534,1.6554,1.6934,1.9369,1.9777,2.0257,2.1943,2.2172,2.2172,2.2172,2.4425,2.643,2.7495,2.855,2.9369,2.9842,2.9955,2.9955,2.9955,3.0836,3.2039,3.3416,3.4382,3.5836,3.7756,3.7756,3.7958,3.8485,3.8485,3.8485,3.8485,3.8485,3.8485,-1.9248,-2.0152,-2.0989,-2.1079,-2.199,-2.2586,-2.1556,-2.1284,-2.1346,-2.1173,-2.1204,-2.1716,-2.3336,-2.3639,-2.3521,-2.3016,-2.293,-2.2545,-2.1215,-1.9946,-1.9177,-1.9076,-1.7905,-1.7217,-1.7217,-1.7217,-1.7114,-1.7114,-1.7114,-1.7114,-1.7114,-1.7114,-1.7114,-1.7114,-1.575,-1.5358,-1.5984,-1.4661,-1.4225,-1.4651,-1.2737,-1.1965,-1.2091,-1.0497,-0.9691,-0.9573,-0.9573,-0.9573,-0.9573,-0.9579,-0.9579,-0.9546,-0.9256,-0.8333,-0.7045,-0.6814,-0.598,-0.4646,-0.2856,-0.1305,0.0218,0.163,0.2064,0.239,0.3794,0.5311,0.6502,0.6609,0.7691,0.8783,0.8783,0.8783,0.9098,1.0356,1.0667,1.0667,1.0667,1.096,1.1438,1.2024,1.2281,1.363,1.7427,1.8027,1.8649,2.027,2.0529,2.0529,2.0529,2.1943,2.4067,2.7147,2.7495,2.8205,2.9728,2.9955,2.9955,2.9955,2.9955,3.0612,3.2059,3.2059,3.3437,3.6275,3.6378,3.7019,3.8485,3.8485,3.8485,3.8485,3.8485,3.8485,-1.9571,-1.972,-1.9657,-1.9298,-2.0389,-2.1097,-1.9481,-1.9716,-2.0458,-2.1058,-2.1204,-2.1545,-2.2628,-2.2923,-2.3015,-2.3393,-2.3522,-2.3245,-2.251,-2.2094,-2.1117,-1.9277,-1.8688,-1.8875,-1.9862,-1.9076,-1.8486,-1.8486,-1.7613,-1.7114,-1.7114,-1.7114,-1.7114,-1.7114,-1.6691,-1.6748,-1.7298,-1.6974,-1.7024,-1.7659,-1.6133,-1.5327,-1.5352,-1.4031,-1.2854,-1.1551,-1.0343,-0.9863,-0.9876,-1.0093,-1.0054,-0.9849,-0.977,-0.9374,-0.8813,-0.8535,-0.746,-0.5926,-0.4243,-0.2713,-0.1305,0.0109,0.0544,0.0871,0.2281,0.3797,0.5203,0.6281,0.7691,0.8783,0.8783,0.8783,0.8891,0.9198,0.9305,0.9512,1.0455,1.0203,1.0883,1.4674,1.3822,1.363,1.7427,1.8027,1.8276,1.8649,1.8773,1.8773,1.8773,2.0245,2.2065,2.4067,2.6196,2.7744,2.8205,2.9255,2.9955,2.9955,2.9955,3.0612,3.2059,3.2059,3.3437,3.6275,3.6378,3.7019,3.8485,3.8485,3.8485,3.8485,3.8485,3.8485,-1.8025,-1.7978,-1.8045,-1.8045,-1.8891,-1.9459,-1.869,-1.874,-1.9146,-1.9968,-2.016,-2.0539,-2.1716,-2.2027,-2.2229,-2.3083,-2.3539,-2.3647,-2.3318,-2.3058,-2.2386,-2.0838,-2.0739,-2.0723,-2.0921,-2.0344,-1.9663,-1.9076,-1.8399,-1.7701,-1.7114,-1.7348,-1.7465,-1.7465,-1.7712,-1.8101,-1.856,-1.856,-1.8971,-1.9529,-1.7865,-1.7165,-1.7266,-1.563,-1.4542,-1.3622,-1.2008,-1.0773,-1.0172,-1.035,-1.0318,-1.0146,-1.0021,-0.9803,-0.9526,-0.923,-0.8107,-0.6516,-0.4901,-0.3364,-0.1956,-0.0436,0.0,0.0109,0.0979,0.2281,0.358,0.4443,0.5742,0.7045,0.7697,0.7804,0.7911,0.8562,0.8783,0.8991,0.9725,0.9454,1.0155,1.4061,1.3446,1.3312,1.6512,1.7005,1.6743,1.6116,1.6618,1.7255,1.8027,1.8898,2.0121,2.1822,2.4187,2.6196,2.7495,2.8435,2.9255,2.9842,2.9955,3.0294,3.1171,3.1171,3.2546,3.5418,3.5418,3.6482,3.8485,3.8485,3.8485,3.8485,3.8485,3.8021,-1.5419,-1.5581,-1.6324,-1.6887,-1.7389,-1.778,0.0,-1.7865,-1.7625,-1.8112,-1.823,-1.8741,-2.0482,-2.0786,-2.1128,-2.2237,-2.2988,-2.3469,-2.3658,-2.3299,-2.3069,-2.3157,-2.3175,-2.2676,-2.1526,-2.1313,-2.0723,-1.9563,-1.9363,-1.8688,-1.7422,-1.7858,-1.8066,-1.7851,-1.8517,-1.9101,-1.9659,-1.9659,-1.9958,-2.0639,-1.8769,-1.8067,-1.8264,-1.6419,-1.5717,-1.5728,-1.4204,-1.2568,-1.0803,-1.0552,-1.0532,-1.0344,-1.0074,-0.9784,-0.948,-0.9217,-0.8297,-0.6994,-0.5145,-0.358,-0.2173,-0.0653,-0.0109,0.0,0.0,0.0979,0.2173,0.2173,0.3147,0.4554,0.5963,0.6394,0.6717,0.8133,0.8676,0.8783,0.8783,0.8783,0.9373,1.1554,1.1833,1.2554,1.4763,1.5185,1.4691,1.2876,1.4177,1.5854,1.7641,1.8015,1.8773,2.0406,2.1822,2.3828,2.678,2.7379,2.8321,2.9842,2.9955,2.9917,3.0047,3.0028,3.1286,3.4055,3.4055,3.5414,3.8143,3.8143,3.8143,3.8143,3.8143,3.7143,0.0,0.0,0.0,0.0,0.0,0.0,0.0,-1.5456,-1.5915,-1.5704,-1.5677,-1.6188,-1.792,-1.8224,-1.8926,-2.109,-2.1583,-2.2191,-2.3488,-2.3628,-2.3874,-2.4547,-2.4622,-2.4527,-2.4318,-2.3193,-2.2482,-2.2192,-2.1215,-2.0046,-1.8789,-1.9285,-1.9109,-1.7958,-1.8517,-1.9101,-1.9659,-1.9659,-1.9958,-2.0652,-2.0155,-2.0045,-2.0147,-1.9652,-1.879,-1.7516,-1.7255,-1.535,-1.2432,-1.1053,-1.0278,-1.0054,-0.9994,-0.9658,-0.9197,-0.9137,-0.8849,-0.8201,-0.6732,-0.5203,-0.358,-0.2173,-0.0979,0.0,0.0,0.0979,0.2173,0.2173,0.3147,0.4338,0.4659,0.5527,0.6502,0.6932,0.7911,0.8783,0.8783,0.8783,0.931,1.1332,1.0756,1.0605,1.2686,1.3246,1.2835,1.0828,1.2251,1.4077,1.5854,1.7255,1.8773,2.0406,2.0885,2.1822,2.3709,2.6196,2.8321,2.9842,2.9955,3.0098,3.0379,3.0447,3.1329,3.3369,3.3444,3.4264,3.5996,3.5996,3.5996,3.5996,3.5996,3.5776,0.0,0.0,0.0,0.0,0.0,0.0,0.0,0.0,0.0,0.0,0.0,-1.5083,-1.6364,0.0,-1.7901,-1.9154,-2.0388,-2.1659,-2.295,-2.3501,-2.3937,-2.4355,-2.4905,-2.5172,-2.5095,-2.4943,-2.4283,-2.3061,-2.2762,-2.2084,-2.0754,-2.1636,-2.1546,-1.9995,-2.059,-2.0604,-2.0088,-2.0101,-2.0244,-2.0652,-2.0652,-2.0652,-2.0652,-2.0652,-2.0147,-1.9282,-1.84,-1.6618,-1.4204,-1.244,-1.099,-0.9942,-0.9658,-0.9368,-0.9098,-0.8953,-0.891,-0.8562,-0.7045,-0.6066,-0.5095,-0.2822,-0.163,-0.0979,-0.0218,0.0545,0.1088,0.1088,0.1631,0.2281,0.3039,0.4227,0.5527,0.6394,0.7697,0.8783,0.8783,0.8783,0.9289,1.1241,1.1132,1.0909,1.2071,1.2285,1.2041,1.1314,1.268,1.4476,1.6586,1.7516,1.8543,2.0006,2.0101,2.0795,2.2271,2.4626,2.6882,2.8647,3.0143,3.0886,3.0546,3.1223,3.2099,3.3184,3.3256,3.4221,3.6157,3.6157,3.6157,3.6107,3.4197,3.33,0.0,0.0,0.0,0.0,0.0,0.0,0.0,0.0,0.0,0.0,0.0,0.0,0.0,0.0,0.0,-1.7539,-1.9378,-2.1071,-2.216,-2.2836,-2.3242,-2.3501,-2.4324,-2.4856,-2.4809,-2.592,-2.5644,-2.3559,-2.4412,-2.4359,-2.2815,-2.4131,-2.4114,-2.2485,-2.3008,-2.2656,-2.1117,-2.0994,-2.0885,-2.0652,-2.0885,0.0,-2.0652,-2.0885,-2.0885,-2.0529,-1.9146,-1.738,-1.5466,-1.3988,-1.2039,-0.9915,-0.9912,-1.0004,-0.9856,-0.9317,-0.8991,-0.8562,-0.7261,-0.6748,-0.6239,-0.3506,-0.2423,-0.1991,-0.0441,0.0,0.0,0.0,0.0,0.0218,0.1414,0.2822,0.423,0.5419,0.7045,0.8347,0.8347,0.8562,0.9167,1.0829,1.1155,1.1189,1.1479,1.1535,1.1733,1.2063,1.341,1.517,1.705,1.7539,1.8298,1.9763,1.9841,2.0511,2.1949,2.3682,2.5293,2.7024,2.9867,3.117,3.0499,3.1532,3.2358,3.268,3.2909,3.3995,3.5942,3.6088,3.6071,3.5737,3.1983,3.0318,0.0,0.0,0.0,0.0,0.0,0.0,0.0,0.0,0.0,0.0,0.0,0.0,0.0,0.0,0.0,0.0,-1.8595,-1.9552,-2.1128,-2.1432,-2.1773,-2.2618,-2.2779,-2.3123,-2.3823,-2.4895,-2.5392,-2.4868,-2.6572,-2.6533,-2.4192,-2.5432,0.0,0.0,0.0,-2.4202,-2.2642,-2.2642,-2.1943,-2.0652,-2.2065,-2.1943,-2.0652,-2.2065,-2.1943,-2.0529,-2.0406,-1.8501,-1.5573,-1.4921,-1.2791,-1.0154,-1.2173,-1.2989,-1.2712,-1.1119,-0.9725,-0.8676,-0.8562,0.0,0.0,-0.4646,-0.3353,-0.2121,-0.0459,0.0,0.0,0.0,0.0,0.0,0.0218,0.1305,0.239,0.2605,0.4659,0.6717,0.6717,0.7798,0.879,0.9039,0.9264,0.9463,0.9497,1.0506,1.1179,1.0886,1.2633,1.4035,1.4265,1.5587,1.754,2.0316,2.0651,0.0,2.2595,2.4132,2.5061,2.538,2.8028,2.972,3.0037,3.0148,3.0369,3.0799,3.1766,3.2238,3.2263,3.3214,3.3062,3.1832,2.8027,2.6742,0.0,0.0,0.0,0.0,0.0,0.0,0.0,0.0,0.0,0.0,0.0,0.0,0.0,0.0,0.0,0.0,-1.7598,-1.8752,-1.9718,-1.9785,-2.0255,-2.1583,-2.2369,-2.3031,-2.3753,-2.4895,-2.5481,-2.5193,-2.6357,-2.718,-2.745,-2.7648,-2.7464,-2.6935,-2.6733,-2.545,-2.289,-2.3303,-2.3283,-2.2595,-2.276,-2.2299,-2.1387,-2.1606,-2.0886,-1.9542,-1.9542,-1.82,-1.6012,-1.5809,-1.4327,-1.2258,0.0,0.0,0.0,0.0,-0.9832,-0.8803,-0.8874,-0.8671,-0.7999,-0.6519,-0.5082,-0.3816,-0.318,-0.1623,-0.0228,-0.1237,-0.0773,0.0,0.0,0.1088,0.2173,0.2173,0.4338,0.6389,0.6389,0.7691,0.8783,0.8783,0.8883,0.0,0.9932,1.1876,1.3519,1.3687,1.5132,1.632,1.6636,1.74,1.8087,1.8979,1.9794,2.0949,2.2422,2.3818,0.0,0.0,0.0,2.905,3.0761,3.0164,0.0,0.0,0.0,3.0187,2.9964,2.9244,0.0,0.0,2.5643,2.5069,0.0,0.0,0.0,0.0,0.0,0.0,0.0,0.0,0.0,0.0,0.0,0.0,0.0,0.0,0.0,0.0,-1.6583,-1.7808,-1.8101,-1.8703,-1.952,-2.0657,-2.1833,-2.2777,-2.3334,-2.4514,-2.5132,-2.4949,-2.6116,-2.7498,-2.8794,-2.8369,-2.8171,-2.8287,-2.7555,-2.6006,-2.3353,-2.4014,-2.4179,-2.3715,-2.3503,-2.275,-2.1648,-2.1503,-2.044,-1.8828,-1.8828,-1.7873,-1.6349,-1.6224,-1.5263,-1.3687,-1.3247,-1.2436,-1.1505,-1.0786,-0.9865,-0.91,-0.8883,-0.8933,-0.8821,-0.7587,-0.6404,-0.5366,-0.5086,-0.2906,-0.0797,-0.2122,-0.1203,0.0,0.0,0.1073,0.2148,0.2168,0.4338,0.6502,0.6389,0.7691,0.8783,0.8783,0.8923,0.9516,1.0976,1.321,1.4933,1.551,1.6761,1.7709,1.7628,1.8038,1.8301,1.8175,1.9461,2.0898,2.2399,2.3759,2.5345,2.7131,2.7551,2.882,3.1115,3.0347,3.0012,3.009,2.959,2.8789,0.0,0.0,0.0,0.0,0.0,0.0,0.0,0.0,0.0,0.0,0.0,0.0,0.0,0.0,0.0,0.0,0.0,0.0,0.0,0.0,0.0,0.0,0.0,0.0,-1.6421,-1.8567,-2.0062,-1.9728,-2.0705,-2.1586,-2.1981,-2.3444,-2.4256,-2.3988,-2.6511,-2.7716,-2.6752,-2.6597,-2.6885,-2.761,-2.6726,-2.5879,-2.5013,-2.503,-2.4281,-2.2827,-2.4247,-2.3494,-2.0898,-2.2376,-2.1516,-1.8828,-1.8828,-1.7873,-1.6326,-1.6094,-1.5001,-1.3432,-1.3633,-1.375,-1.3364,-1.0884,-0.9929,-0.9699,-0.8579,-0.8465,-0.8519,-0.7111,-0.6756,-0.6649,-0.4836,-0.3308,-0.2027,-0.211,-0.1139,0.0,0.0,0.1034,0.2187,0.2156,0.4446,0.6609,0.6394,0.7691,0.8783,0.8783,0.9369,1.0472,1.2415,1.3588,1.4293,1.459,1.6058,0.0,1.4882,1.6096,1.7653,1.8918,2.0176,2.1542,2.2807,2.4241,2.551,2.6773,2.7939,2.9102,3.0306,3.0463,3.0012,2.9067,2.9724,2.8553,2.535,0.0,0.0,0.0,0.0,0.0,0.0,0.0,0.0,0.0,0.0,0.0,0.0,0.0,0.0,0.0,0.0,0.0,0.0,0.0,0.0,0.0,0.0,0.0,0.0,-1.7565,-1.8376,-1.8347,-1.91,-1.9664,-1.9981,-2.0944,-2.1863,-2.2427,-2.3803,-2.5058,-2.6197,-2.5176,-2.5191,-2.6425,-2.5776,-2.4849,-2.3413,-2.4499,-2.4835,-2.4322,-2.4835,-2.4407,-2.3092,-2.3073,-2.2029,-2.0219,-1.9314,-1.8452,-1.7546,-1.6589,-1.5596,-1.4618,-1.3996,-1.3225,-1.2222,-1.076,-0.9586,-0.8746,-0.8641,-0.8722,-0.8789,-0.7566,-0.572,-0.4161,-0.469,-0.2921,-0.0767,-0.1147,-0.0103,0.1338,0.2106,0.2839,0.3313,0.3248,0.4911,0.6502,0.6389,0.7691,0.8783,0.8783,0.9809,1.0869,1.1585,1.3465,1.4702,1.376,1.4939,1.5857,1.5744,1.6988,1.8134,1.8932,2.1019,2.2482,2.2869,2.5,2.6436,2.6784,2.7944,2.8814,2.9292,2.9299,2.9205,2.8919,2.9075,2.7394,2.3872,0.0,0.0,0.0,0.0,0.0,0.0,0.0,0.0,0.0,0.0,0.0,0.0,0.0,0.0,0.0,0.0,0.0,0.0,0.0,0.0,0.0,0.0,0.0,0.0,0.0,0.0,-1.9798,-1.9783,0.0,-2.0125,-1.9906,-2.0035,-2.073,-2.1532,-2.2836,-2.4862,-2.3332,-2.3167,-2.4805,-2.4009,-2.3076,-2.2103,-2.3494,-2.4218,-2.4218,-2.4218,-2.3726,-2.2948,-2.2404,-2.1412,-1.9996,-1.8765,-1.808,-1.7675,-1.6522,-1.5503,-1.455,-1.3213,-1.2319,-1.1473,-1.0131,-0.8995,-0.8244,-0.8114,-0.8043,-0.7749,-0.699,-0.5372,-0.4034,-0.5171,-0.3726,-0.1639,-0.1405,-0.0094,0.1716,0.3011,0.3958,0.4484,0.4544,0.6067,0.7513,0.7513,0.8267,0.9048,0.956,1.0737,1.1569,1.1059,1.2829,1.4031,1.3227,1.4245,1.5624,1.6829,1.8051,1.9039,1.9687,2.1705,2.2965,2.2965,2.5336,2.7038,2.7402,2.857,2.9286,2.9404,2.9357,2.8683,2.7235,2.7025,2.5432,0.0,0.0,0.0,0.0,0.0,0.0,0.0,0.0,0.0,0.0,0.0,0.0,0.0,0.0,0.0,0.0,0.0,0.0,0.0,0.0,0.0,0.0,0.0,0.0,0.0,0.0,0.0,-2.3457,-2.2308,0.0,0.0,0.0,0.0,-1.8937,-1.9754,-2.103,-2.2773,-2.0954,-2.076,-2.2647,-2.1505,-2.0917,-2.1071,-2.1989,-2.2511,-2.2511,-2.2588,-2.2012,-2.0877,-2.0877,-2.0077,-1.8667,-1.7609,-1.7068,-1.6848,-1.5774,-1.455,-1.3316,-1.1607,-1.1285,-1.1452,-0.9222,-0.8448,-0.8284,-0.7382,-0.6408,-0.5712,-0.5607,-0.5774,-0.5961,-0.5939,-0.5322,0.0,0.0,-0.0931,0.106,0.2805,0.4431,0.5734,0.5864,0.7773,0.9625,0.9625,0.9433,0.9608,1.0998,1.2046,1.2201,1.0707,0.0,1.2341,1.2492,1.3766,1.5503,1.7769,1.9148,2.0201,2.0988,2.2272,2.3061,2.3157,2.5429,2.7402,2.857,2.9735,3.0381,3.0456,3.0285,2.8235,2.4174,2.4002,0.0,0.0,0.0,0.0,0.0,0.0,0.0,0.0,0.0,0.0,0.0,0.0,0.0,0.0,0.0,0.0,0.0,0.0,0.0,0.0,0.0,0.0,0.0,0.0,0.0,0.0,-1.8034,-1.8853,-2.0248,-1.8829,-1.7546,0.0,0.0,0.0,0.0,0.0,0.0,-1.905,-1.8582,-1.8756,-1.9888,-1.8898,-1.8673,-1.927,-2.0841,-2.1656,-2.1753,-2.3679,-2.4379,-2.4112,-2.4112,-2.3534,-2.2446,-2.1218,-1.9548,-1.7633,-1.5491,-1.4416,-1.3975,-1.2461,-1.1968,-1.1906,-1.0351,-0.9581,-0.9056,-0.7862,-0.6995,-0.6352,-0.5278,-0.4951,-0.4997,-0.4754,0.0,0.0,0.0,0.0,0.0436,0.3834,0.5432,0.6667,0.8375,0.9859,1.0847,1.0847,1.0865,1.0821,1.0558,1.0879,1.0197,0.7393,0.8421,0.0,0.8188,1.0992,1.3734,1.5154,1.8483,2.0942,2.1497,2.3365,2.4868,2.5728,2.7199,2.8659,2.978,3.0216,3.0383,3.0213,2.7365,2.5101,2.3854,0.0,0.0,0.0,0.0,0.0,0.0,0.0,0.0,0.0,0.0,0.0,0.0,0.0,0.0,0.0,0.0,0.0,0.0,0.0,0.0,0.0,0.0,0.0,0.0,0.0,0.0,0.0,-1.6849,-1.8387,-1.9681,-1.8411,-1.7159,0.0,0.0,0.0,0.0,0.0,0.0,0.0,0.0,0.0,-1.8388,-1.7843,-1.7538,-1.7645,-1.9338,-2.0204,-2.0225,-2.1959,-2.3022,-2.3504,-2.3504,-2.3075,-2.226,-2.1042,-1.9247,-1.7029,-1.5774,-1.4912,-1.4287,0.0,0.0,0.0,0.0,-1.0891,-1.0105,-0.8917,-0.7749,-0.6636,-0.584,0.0,0.0,0.0,0.0,0.0,0.0,0.0,0.175,0.4697,0.6783,0.8423,0.9757,1.0629,1.1197,1.1197,1.0318,0.9523,0.9224,0.9093,0.8359,0.6204,0.661,0.0,0.0,0.0,1.3053,1.4656,1.9294,2.2722,2.3361,2.5348,2.6896,2.7492,2.8288,2.8911,2.9591,2.9722,2.9119,2.7536,2.5322,2.2955,0.0,0.0,0.0,0.0,0.0,0.0,0.0,0.0,0.0,0.0,0.0,0.0,0.0,0.0,0.0,0.0,0.0,0.0,0.0,0.0,0.0,0.0,0.0,0.0,0.0,0.0,0.0,0.0,0.0,-1.9059,-1.9865,0.0,0.0,0.0,0.0,0.0,0.0,0.0,0.0,0.0,0.0,0.0,0.0,0.0,-1.6856,-1.6474,-1.7938,-1.8699,-1.8754,-1.9562,-2.0419,-2.1349,-2.1308,-2.0905,-2.0134,-1.9093,0.0,-1.6051,-1.6262,0.0,0.0,0.0,0.0,0.0,0.0,0.0,0.0,0.0,0.0,0.0,0.0,0.0,0.0,0.0,0.0,0.0,0.0,0.0,0.0,0.0,0.0,0.9934,0.9805,1.0439,1.1009,1.0514,0.8798,0.7322,0.7251,0.7227,0.6815,0.0,0.0,0.0,0.0,0.0,0.0,1.4934,2.0269,2.4275,2.5238,2.7129,2.8481,2.8748,2.8748,2.8867,2.9113,2.8633,2.7155,2.4522,2.3942,0.0,0.0,0.0,0.0,0.0,0.0,0.0,0.0,0.0,0.0,0.0,0.0,0.0,0.0,0.0,0.0,0.0,0.0,0.0,0.0,0.0,0.0,0.0,0.0,0.0,0.0,0.0,0.0,0.0,0.0,0.0,0.0,0.0,0.0,0.0,0.0,0.0,0.0,0.0,0.0,0.0,0.0,0.0,0.0,0.0,0.0,0.0,0.0,0.0,0.0,-2.0788,-2.1712,-2.1994,-2.1884,-2.1134,-1.9859,-1.9158,-1.8007,-1.673,-1.6439,0.0,0.0,0.0,0.0,0.0,0.0,0.0,0.0,0.0,0.0,0.0,0.0,0.0,0.0,0.0,0.0,0.0,0.0,0.0,0.0,0.0,0.0,0.7865,0.6967,0.9289,1.0828,0.7578,0.0,0.0,0.0,0.0,0.0,0.0,0.0,0.0,0.0,0.0,0.0,1.2922,1.817,2.247,2.4317,2.6049,2.7923,2.9867,2.9254,2.9414,3.106,2.727,2.5308,0.0,0.0,0.0,0.0,0.0,0.0,0.0,0.0,0.0,0.0,0.0,0.0,0.0,0.0,0.0,0.0,0.0,0.0,0.0,0.0,0.0,0.0,0.0,0.0,0.0,0.0,0.0,0.0,0.0,0.0,0.0,0.0,0.0,0.0,0.0,0.0,0.0,0.0,0.0,0.0,0.0,0.0,0.0,0.0,0.0,0.0,0.0,0.0,0.0,0.0,0.0,0.0,0.0,0.0,0.0,0.0,0.0,0.0,-1.8617,-1.6633,0.0,0.0,0.0,0.0,0.0,0.0,0.0,0.0,0.0,0.0,0.0,0.0,0.0,0.0,0.0,0.0,0.0,0.0,0.0,0.0,0.0,0.0,0.0,0.0,0.0,0.0,0.0,0.0,0.0,0.0,0.0,0.0,0.0,0.0,0.0,0.0,0.0,0.0,0.0,0.0,1.1998,1.8053,2.2974,2.4988,2.7245,2.912,3.0358,2.9817,2.8969,2.7822,2.5333,0.0,0.0,0.0,0.0,0.0,0.0,0.0,0.0,0.0,0.0,0.0,0.0,0.0,0.0,0.0,0.0,0.0,0.0,0.0,0.0,0.0,0.0,0.0,0.0,0.0,0.0,0.0,0.0,0.0,0.0,0.0,0.0,0.0,0.0,0.0,0.0,0.0,0.0,0.0,0.0,0.0,0.0,0.0,0.0,0.0,0.0,0.0,0.0,0.0,0.0,0.0,0.0,0.0,0.0,0.0,0.0,0.0,0.0,0.0,-1.7415,-1.49,0.0,0.0,0.0,0.0,0.0,0.0,0.0,0.0,0.0,0.0,0.0,0.0,0.0,0.0,0.0,0.0,0.0,0.0,0.0,0.0,0.0,0.0,0.0,0.0,0.0,0.0,0.0,0.0,0.0,0.0,0.0,0.0,0.0,0.0,0.0,0.0,0.0,0.0,0.0,0.0,1.1526,1.7841,2.3169,2.5746,2.8251,2.9928,3.0498,3.0088,2.8327,2.4596,2.332,0.0,0.0,0.0,0.0,0.0,0.0,0.0,0.0,0.0,0.0,0.0,0.0,0.0,0.0,0.0,0.0,0.0,0.0,0.0,0.0,0.0,0.0,0.0,0.0,0.0,0.0,0.0,0.0,0.0,0.0,0.0,0.0,0.0,0.0,0.0,0.0,0.0,0.0,0.0,0.0,0.0,0.0,0.0,0.0,0.0,0.0,0.0,0.0,0.0,0.0,0.0,0.0,0.0,0.0,0.0,0.0,0.0,0.0,0.0,0.0,0.0,0.0,0.0,0.0,0.0,0.0,0.0,0.0,0.0,0.0,0.0,0.0,0.0,0.0,0.0,0.0,0.0,0.0,0.0,0.0,0.0,0.0,0.0,0.0,0.0,0.0,0.0,0.0,0.0,0.0,0.0,0.0,0.0,0.0,0.0,0.0,0.0,0.0,0.0,0.0,0.0,1.1466,1.6016,2.0857,2.5514,2.7007,2.8463,3.0346,2.9605,2.7976,2.5358,0.0,0.0,0.0,0.0,0.0,0.0,0.0,0.0,0.0,0.0,0.0,0.0,0.0,0.0,0.0,0.0,0.0,0.0,0.0,0.0,0.0,0.0,0.0,0.0,0.0,0.0,0.0,0.0,0.0,0.0,0.0,0.0,0.0,0.0,0.0,0.0,0.0,0.0,0.0,0.0,0.0,0.0,0.0,0.0,0.0,0.0,0.0,0.0,0.0,0.0,0.0,0.0,0.0,0.0,0.0,0.0,0.0,0.0,0.0,0.0,0.0,0.0,0.0,0.0,0.0,0.0,0.0,0.0,0.0,0.0,0.0,0.0,0.0,0.0,0.0,0.0,0.0,0.0,0.0,0.0,0.0,0.0,0.0,0.0,0.0,0.0,0.0,0.0,0.0,0.0,0.0,0.0,0.0,0.0,0.0,0.0,0.0,0.0,0.0,0.0,0.0,0.0,1.1451,1.576,2.0551,2.5514,2.6859,2.8017,2.9448,2.9383,2.7135,2.1953,0.0,0.0,0.0,0.0,0.0,0.0,0.0,0.0,0.0,0.0,0.0,0.0,0.0,0.0,0.0,0.0,0.0,0.0,0.0,0.0,0.0,0.0,0.0,0.0,0.0,0.0,0.0,0.0,0.0,0.0,0.0,0.0,0.0,0.0,0.0,0.0,0.0,0.0,0.0,0.0,0.0,0.0,0.0,0.0,0.0,0.0,0.0,0.0,0.0,0.0,0.0,0.0,0.0,0.0,0.0,0.0,0.0,0.0,0.0,0.0,0.0,0.0,0.0,0.0,0.0,0.0,0.0,0.0,0.0,0.0,0.0,0.0,0.0,0.0,0.0,0.0,0.0,0.0,0.0,0.0,0.0,0.0,0.0,0.0,0.0,0.0,0.0,0.0,0.0,0.0,0.0,0.0,0.0,0.0,0.0,0.0,0.0,0.0,0.0,0.0,0.0,0.0,1.151,1.5745,2.0418,2.5074,2.6431,2.7461,2.8668,2.8961,2.6462,2.0026,0.0,0.0,0.0,0.0,0.0,0.0,0.0,0.0,0.0,0.0,0.0,0.0,0.0,0.0,0.0,0.0,0.0,0.0,0.0,0.0,0.0,0.0,0.0,0.0,0.0,0.0,0.0,0.0,0.0,0.0,0.0,0.0,0.0,0.0,0.0,0.0,0.0,0.0,0.0,0.0,0.0,0.0,0.0,0.0,0.0,0.0,0.0,0.0,0.0,0.0,0.0,0.0,0.0,0.0,0.0,0.0,0.0,0.0,0.0,0.0,0.0,0.0,0.0,0.0,0.0,0.0,0.0,0.0,0.0,0.0,0.0,0.0,0.0,0.0,0.0,0.0,0.0,0.0,0.0,0.0,0.0,0.0,0.0,0.0,0.0,0.0,0.0,0.0,0.0,0.0,0.0,0.0,0.0,0.0,0.0,0.0,0.0,0.0,0.0,0.0,0.0,0.0,1.1568,1.5767,2.0085,2.3886,2.5337,2.6726,2.8225,2.8299,2.5988,0.0,0.0,0.0,0.0,0.0,0.0,0.0,0.0,0.0,0.0,0.0,0.0,0.0,0.0,0.0,0.0,0.0,0.0,0.0,0.0,0.0,0.0,0.0,0.0,0.0,0.0,0.0,0.0,0.0,0.0,0.0,0.0,0.0,0.0,0.0,0.0,0.0,0.0,0.0,0.0,0.0,0.0,0.0,0.0,0.0,0.0,0.0,0.0,0.0,0.0,0.0,0.0,0.0,0.0,0.0,0.0,0.0,0.0,0.0,0.0,0.0,0.0,0.0,0.0,0.0,0.0,0.0,0.0,0.0,0.0,0.0,0.0,0.0,0.0,0.0,0.0,0.0,0.0,0.0,0.0,0.0,0.0,0.0,0.0,0.0,0.0,0.0,0.0,0.0,0.0,0.0,0.0,0.0,0.0,0.0,0.0,0.0,0.0,0.0,0.0,0.0,0.0,0.0,1.2381,1.523,1.9461,2.5742,2.6196,2.6749,2.8596,2.8137,2.5574,2.0421,0.0,0.0,0.0,0.0,0.0,0.0,0.0,0.0,0.0,0.0,0.0,0.0,0.0,0.0,0.0,0.0,0.0,0.0,0.0,0.0,0.0,0.0,0.0,0.0,0.0,0.0,0.0,0.0,0.0,0.0,0.0,0.0,0.0,0.0,0.0,0.0,0.0,0.0,0.0,0.0,0.0,0.0,0.0,0.0,0.0,0.0,0.0,0.0,0.0,0.0,0.0,0.0,0.0,0.0,0.0,0.0,0.0,0.0,0.0,0.0,0.0,0.0,0.0,0.0,0.0,0.0,0.0,0.0,0.0,0.0,0.0,0.0,0.0,0.0,0.0,0.0,0.0,0.0,0.0,0.0,0.0,0.0,0.0,0.0,0.0,0.0,0.0,0.0,0.0,0.0,0.0,0.0,0.0,0.0,0.0,0.0,0.0,0.0,0.0,0.0,0.0,0.0,0.0,1.6327,2.0275,2.6128,2.6254,2.6726,2.8571,2.7697,2.501,2.0419,0.0,0.0,0.0,0.0,0.0,0.0,0.0,0.0,0.0,0.0,0.0,0.0,0.0,0.0,0.0,0.0,0.0,0.0,0.0,0.0,0.0,0.0,0.0,0.0,0.0,0.0,0.0,0.0,0.0,0.0,0.0,0.0,0.0,0.0,0.0,0.0,0.0,0.0,0.0,0.0,0.0,0.0,0.0,0.0,0.0,0.0,0.0,0.0,0.0,0.0,0.0,0.0,0.0,0.0,0.0,0.0,0.0,0.0,0.0,0.0,0.0,0.0,0.0,0.0,0.0,0.0,0.0,0.0,0.0,0.0,0.0,0.0,0.0,0.0,0.0,0.0,0.0,0.0,0.0,0.0,0.0,0.0,0.0,0.0,0.0,0.0,0.0,0.0,0.0,0.0,0.0,0.0,0.0,0.0,0.0,0.0,0.0,0.0,0.0,0.0,0.0,0.0,0.0,1.8285,2.1998,2.543,2.5843,2.6533,2.8206,2.6931,2.4501,2.0807,1.971,0.0,0.0,0.0,0.0,0.0,0.0,0.0,0.0,0.0,0.0,0.0,0.0,0.0,0.0,0.0,0.0,0.0,0.0,0.0,0.0,0.0,0.0,0.0,0.0,0.0,0.0,0.0,0.0,0.0,0.0,0.0,0.0,0.0,0.0,0.0,0.0,0.0,0.0,0.0,0.0,0.0,0.0,0.0,0.0,0.0,0.0,0.0,0.0,0.0,0.0,0.0,0.0,0.0,0.0,0.0,0.0,0.0,0.0,0.0,0.0,0.0,0.0,0.0,0.0,0.0,0.0,0.0,0.0,0.0,0.0,0.0,0.0,0.0,0.0,0.0,0.0,0.0,0.0,0.0,0.0,0.0,0.0,0.0,0.0,0.0,0.0,0.0,0.0,0.0,0.0,0.0,0.0,0.0,0.0,0.0,0.0,0.0,0.0,0.0,0.0,0.0,0.0,1.7367,2.0339,2.6378,2.6346,2.6348,2.7553,2.6913,2.4643,2.0319,1.9532,0.0,0.0,0.0,0.0,0.0,0.0,0.0,0.0,0.0,0.0,0.0,0.0,0.0,0.0,0.0,0.0,0.0,0.0,0.0,0.0,0.0,0.0,0.0,0.0,0.0,0.0,0.0,0.0,0.0,0.0,0.0,0.0,0.0,0.0,0.0,0.0,0.0,0.0,0.0,0.0,0.0,0.0,0.0,0.0,0.0,0.0,0.0,0.0,0.0,0.0,0.0,0.0,0.0,0.0,0.0,0.0,0.0,0.0,0.0,0.0,0.0,0.0,0.0,0.0,0.0,0.0,0.0,0.0,0.0,0.0,0.0,0.0,0.0,0.0,0.0,0.0,0.0,0.0,0.0,0.0,0.0,0.0,0.0,0.0,0.0,0.0,0.0,0.0,0.0,0.0,0.0,0.0,0.0,0.0,0.0,0.0,0.0,0.0,0.0,0.0,0.0,0.0,1.5292,1.9025,2.5855,2.6065,2.6327,2.7797,2.6474,2.4029,2.044,1.9425,0.0,0.0,0.0,0.0,0.0,0.0,0.0,0.0,0.0,0.0,0.0,0.0,0.0,0.0,0.0,0.0,0.0,0.0,0.0,0.0,0.0,0.0,0.0,0.0,0.0,0.0,0.0,0.0,0.0,0.0,0.0,0.0,0.0,0.0,0.0,0.0,0.0,0.0,0.0,0.0,0.0,0.0,0.0,0.0,0.0,0.0,0.0,0.0,0.0,0.0,0.0,0.0,0.0,0.0,0.0,0.0,0.0,0.0,0.0,0.0,0.0,0.0,0.0,0.0,0.0,0.0,0.0,0.0,0.0,0.0,0.0,0.0,0.0,0.0,0.0,0.0,0.0,0.0,0.0,0.0,0.0,0.0,0.0,0.0,0.0,0.0,0.0,0.0,0.0,0.0,0.0,0.0,0.0,0.0,0.0,0.0,0.0,0.0,0.0,0.0,0.0,0.0,0.0,1.7961,2.398,2.5199,2.6259,2.7926,2.5801,2.3286,2.0494,0.0,0.0,0.0,0.0,0.0,0.0,0.0,0.0,0.0,0.0,0.0,0.0,0.0,0.0,0.0,0.0,0.0,0.0,0.0,0.0,0.0,0.0,0.0,0.0,0.0,0.0,0.0,0.0,0.0,0.0,0.0,0.0,0.0,0.0,0.0,0.0,0.0,0.0,0.0,0.0,0.0,0.0,0.0,0.0,0.0,0.0,0.0,0.0,0.0,0.0,0.0,0.0,0.0,0.0,0.0,0.0,0.0,0.0,0.0,0.0,0.0,0.0,0.0,0.0,0.0,0.0,0.0,0.0,0.0,0.0,0.0,0.0,0.0,0.0,0.0,0.0,0.0,0.0,0.0,0.0,0.0,0.0,0.0,0.0,0.0,0.0,0.0,0.0,0.0,0.0,0.0,0.0,0.0,0.0,0.0,0.0,0.0,0.0,0.0,0.0,0.0,0.0,0.0,0.0,1.7018,1.9451,2.3304,2.5668,2.5633,2.5197,2.3242,1.9212,0.0,0.0,0.0,0.0,0.0,0.0,0.0,0.0,0.0,0.0,0.0,0.0,0.0,0.0]}]]]